[[{"header":{"parameterUnit":"m.s-1","parameterCategory":1,"la1":31.0,"la2":29.5877,"lo1":-88.7671,"lo2":-86.6584,"dy":0.0162,"dx":0.0185,"nx":115,"ny":88,"refTime":"2024-06-14T00:00:00:Z","depth":0,"parameterNumber":2,"parameterNumberName":"U-component_of_WINDS"},"data":[0.0,0.0,0.0,0.0,0.0,0.0,0.0,0.0,0.0,0.0,0.0,0.0,0.0,0.0,0.0,0.0,0.0,0.0,0.0,0.0,0.0,0.0,0.0,0.0,0.0,0.0,0.0,0.0,0.0,0.0,0.0,0.0,0.0,0.0,0.0,0.0,0.0,0.0,0.0,0.0,0.0,0.0,0.0,0.0,0.0,0.0,0.0,0.0,0.0,0.0,0.0,0.0,0.0,0.0,0.0,0.0,0.0,0.0,0.0,0.0,0.0,0.0,0.0,0.0,0.0,0.0,0.0,0.0,0.0,0.0,0.0,0.0,0.0,0.0,0.0,0.0,0.0,0.0,0.0,0.0,0.0,0.0,0.0,0.0,0.0,0.0,0.0,0.0,0.0,0.0,0.0,0.0,0.0,0.0,0.0,0.0,0.0,0.0,0.0,0.0,0.0,0.0,0.0,0.0,0.0,0.0,0.0,0.0,0.0,0.0,0.0,0.0,0.0,0.0,0.0,0.0,0.0,0.0,0.0,0.0,0.0,0.0,0.0,0.0,0.0,0.0,0.0,0.0,0.0,0.0,0.0,0.0,0.0,0.0,0.0,0.0,0.0,0.0,0.0,0.0,0.0,0.0,0.0,0.0,0.0,0.0,0.0,0.0,0.0,0.0,0.0,0.0,0.0,0.0,0.0,0.0,0.0,0.0,0.0,0.0,0.0,0.0,0.0,0.0,0.0,0.0,0.0,0.0,0.0,0.0,0.0,0.0,0.0,0.0,0.0,0.0,0.0,0.0,0.0,0.0,0.0,0.0,0.0,0.0,0.0,0.0,0.0,0.0,0.0,0.0,0.0,0.0,0.0,0.0,0.0,0.0,0.0,0.0,0.0,0.0,0.0,0.0,0.0,0.0,0.0,0.0,0.0,0.0,0.0,0.0,0.0,0.0,0.0,0.0,0.0,0.0,0.0,0.0,0.0,0.0,0.0,0.0,0.0,0.0,0.0,0.0,0.0,0.0,0.0,0.0,0.0,0.0,0.0,0.0,0.0,0.0,0.0,0.0,0.0,0.0,0.0,0.0,0.0,0.0,0.0,0.0,0.0,0.0,0.0,0.0,0.0,0.0,0.0,0.0,0.0,0.0,0.0,0.0,0.0,0.0,0.0,0.0,0.0,0.0,0.0,0.0,0.0,0.0,0.0,0.0,0.0,0.0,0.0,0.0,0.0,0.0,0.0,0.0,0.0,0.0,0.0,0.0,0.0,0.0,0.0,0.0,0.0,0.0,0.0,0.0,0.0,0.0,0.0,0.0,0.0,0.0,0.0,0.0,0.0,0.0,0.0,0.0,0.0,0.0,0.0,0.0,0.0,0.0,0.0,0.0,0.0,0.0,0.0,0.0,0.0,0.0,0.0,0.0,0.0,0.0,0.0,0.0,0.0,0.0,0.0,0.0,0.0,0.0,0.0,0.0,0.0,0.0,0.0,0.0,0.0,0.0,0.0,0.0,0.0,0.0,0.0,0.0,0.0,0.0,0.0,0.0,0.0,0.0,0.0,0.0,0.0,0.0,0.0,0.0,0.0,0.0,0.0,0.0,0.0,0.0,0.0,0.0,0.0,0.0,0.0,0.0,0.0,0.0,0.0,0.0,0.0,0.0,0.0,0.0,0.0,0.0,0.0,0.0,0.0,0.0,0.0,0.0,0.0,0.0,0.0,0.0,0.0,0.0,0.0,0.0,0.0,0.0,0.0,0.0,0.0,0.0,0.0,0.0,0.0,0.0,0.0,0.0,0.0,0.0,0.0,0.0,0.0,0.0,0.0,0.0,0.0,0.0,0.0,0.0,0.0,0.0,0.0,0.0,0.0,0.0,0.0,0.0,0.0,0.0,0.0,0.0,0.0,0.0,0.0,0.0,0.0,0.0,0.0,0.0,0.0,0.0,0.0,0.0,0.0,0.0,0.0,0.0,0.0,0.0,0.0,0.0,0.0,0.0,0.0,0.0,0.0,0.0,0.0,0.0,0.0,0.0,0.0,0.0,0.0,0.0,0.0,0.0,0.0,0.0,0.0,0.0,0.0,0.0,0.0,0.0,0.0,0.0,0.0,0.0,0.0,0.0,0.0,0.0,0.0,0.0,0.0,0.0,0.0,0.0,0.0,0.0,0.0,0.0,0.0,0.0,0.0,0.0,0.0,0.0,0.0,0.0,0.0,0.0,0.0,0.0,0.0,0.0,0.0,0.0,0.0,0.0,0.0,0.0,0.0,0.0,0.0,0.0,0.0,0.0,0.0,0.0,0.0,0.0,0.0,0.0,0.0,0.0,0.0,0.0,0.0,0.0,0.0,0.0,0.0,0.0,0.0,0.0,0.0,0.0,0.0,0.0,0.0,0.0,0.0,0.0,0.0,0.0,0.0,0.0,0.0,0.0,0.0,0.0,0.0,0.0,0.0,0.0,0.0,0.0,0.0,0.0,0.0,0.0,0.0,0.0,0.0,0.0,0.0,0.0,0.0,0.0,0.0,0.0,0.0,0.0,0.0,0.0,0.0,0.0,0.0,0.0,0.0,0.0,0.0,0.0,0.0,0.0,0.0,0.0,0.0,0.0,0.0,0.0,0.0,0.0,0.0,0.0,0.0,0.0,0.0,0.0,0.0,0.0,0.0,0.0,0.0,0.0,0.0,0.0,0.0,0.0,0.0,0.0,0.0,0.0,0.0,0.0,0.0,0.0,0.0,0.0,0.0,0.0,0.0,0.0,0.0,0.0,0.0,0.0,0.0,0.0,0.0,0.0,0.0,0.0,0.0,0.0,0.0,0.0,0.0,0.0,0.0,0.0,0.0,0.0,0.0,0.0,0.0,0.0,0.0,0.0,0.0,0.0,0.0,0.0,0.0,0.0,0.0,0.0,0.0,0.0,0.0,0.0,0.0,0.0,0.0,0.0,0.0,0.0,0.0,0.0,0.0,0.0,0.0,0.0,0.0,0.0,0.0,0.0,0.0,0.0,0.0,0.0,0.0,0.0,0.0,0.0,0.0,0.0,0.0,0.0,0.0,0.0,0.0,0.0,0.0,0.0,0.0,0.0,0.0,0.0,0.0,0.0,0.0,0.0,0.0,0.0,0.0,0.0,0.0,0.0,0.0,0.0,0.0,0.0,0.0,0.0,0.0,0.0,0.0,0.0,0.0,0.0,0.0,0.0,0.0,0.0,0.0,0.0,0.0,0.0,0.0,0.0,0.0,0.0,0.0,0.0,0.0,0.0,0.0,0.0,0.0,0.0,0.0,0.0,0.0,0.0,0.0,0.0,0.0,0.0,0.0,0.0,0.0,0.0,0.0,0.0,0.0,0.0,0.0,0.0,0.0,0.0,0.0,0.0,0.0,0.0,0.0,0.0,0.0,0.0,0.0,0.0,0.0,0.0,0.0,0.0,0.0,0.0,0.0,0.0,0.0,0.0,0.0,0.0,0.0,0.0,0.0,0.0,0.0,0.0,0.0,0.0,0.0,0.0,0.0,0.0,0.0,0.0,0.0,0.0,0.0,0.0,0.0,0.0,0.0,0.0,0.0,0.0,0.0,0.0,0.0,0.0,0.0,0.0,0.0,0.0,0.0,0.0,0.0,0.0,0.0,0.0,0.0,0.0,0.0,0.0,0.0,0.0,0.0,0.0,0.0,0.0,0.0,0.0,0.0,0.0,0.0,0.0,0.0,0.0,0.0,0.0,0.0,0.0,0.0,0.0,0.0,0.0,0.0,0.0,0.0,0.0,0.0,0.0,0.0,0.0,0.0,0.0,0.0,0.0,0.0,0.0,0.0,0.0,0.0,0.0,0.0,0.0,0.0,0.0,0.0,0.0,0.0,0.0,0.0,0.0,0.0,0.0,0.0,0.0,0.0,0.0,0.0,0.0,0.0,0.0,0.0,0.0,0.0,0.0,0.0,0.0,0.0,0.0,0.0,0.0,0.0,0.0,0.0,0.0,0.0,0.0,0.0,0.0,0.0,0.0,0.0,0.0,0.0,0.0,0.0,0.0,0.0,0.0,0.0,0.0,0.0,0.0,0.0,0.0,0.0,0.0,0.0,0.0,0.0,0.0,0.0,0.0,0.0,0.0,0.0,0.0,0.0,0.0,0.0,0.0,0.0,0.0,0.0,0.0,0.0,0.0,0.0,0.0,0.0,0.0,0.0,0.0,0.0,0.0,0.0,0.0,0.0,0.0,0.0,0.0,0.0,0.0,0.0,0.0,0.0,0.0,0.0,0.0,0.0,0.0,0.0,0.0,0.0,0.0,-2.4279,0.0,0.0,0.0,0.0,0.0,0.0,0.0,0.0,0.0,0.0,0.0,0.0,0.0,0.0,0.0,0.0,0.0,0.0,0.0,0.0,0.0,0.0,0.0,0.0,0.0,0.0,0.0,0.0,0.0,0.0,0.0,0.0,0.0,0.0,0.0,0.0,0.0,0.0,0.0,0.0,0.0,0.0,0.0,0.0,0.0,0.0,0.0,0.0,0.0,0.0,0.0,0.0,0.0,0.0,0.0,0.0,0.0,0.0,0.0,0.0,0.0,0.0,0.0,0.0,0.0,0.0,0.0,0.0,0.0,0.0,0.0,0.0,0.0,0.0,0.0,0.0,0.0,0.0,0.0,0.0,0.0,0.0,0.0,0.0,0.0,0.0,0.0,0.0,0.0,0.0,0.0,0.0,0.0,0.0,0.0,0.0,0.0,0.0,0.0,0.0,0.0,0.0,0.0,0.0,0.0,0.0,0.0,0.0,0.0,0.0,-2.854,-2.8158,-2.7995,-2.7116,-2.553,0.0,0.0,0.0,0.0,0.0,0.0,0.0,0.0,0.0,0.0,0.0,0.0,0.0,0.0,0.0,0.0,0.0,0.0,0.0,0.0,0.0,0.0,0.0,0.0,0.0,0.0,0.0,0.0,0.0,0.0,0.0,0.0,0.0,0.0,0.0,0.0,0.0,0.0,0.0,0.0,0.0,0.0,0.0,0.0,0.0,0.0,0.0,0.0,0.0,0.0,0.0,0.0,0.0,0.0,0.0,0.0,0.0,0.0,0.0,0.0,0.0,0.0,0.0,0.0,0.0,0.0,0.0,0.0,0.0,0.0,0.0,0.0,0.0,0.0,0.0,0.0,0.0,0.0,0.0,0.0,0.0,0.0,0.0,0.0,0.0,0.0,0.0,0.0,0.0,0.0,0.0,0.0,0.0,0.0,0.0,0.0,0.0,0.0,0.0,0.0,0.0,0.0,0.0,0.0,0.0,0.0,0.0,0.0,0.0,0.0,0.0,0.0,-2.9404,-2.8497,-2.6801,0.0,0.0,0.0,0.0,0.0,0.0,0.0,0.0,0.0,0.0,0.0,0.0,0.0,0.0,0.0,0.0,0.0,0.0,0.0,0.0,0.0,0.0,0.0,0.0,0.0,0.0,0.0,0.0,0.0,0.0,0.0,0.0,0.0,0.0,0.0,0.0,0.0,0.0,0.0,0.0,0.0,0.0,0.0,0.0,0.0,0.0,0.0,0.0,0.0,0.0,0.0,0.0,0.0,0.0,0.0,0.0,0.0,0.0,0.0,0.0,0.0,0.0,0.0,0.0,0.0,0.0,0.0,0.0,0.0,0.0,0.0,0.0,0.0,0.0,0.0,0.0,0.0,0.0,0.0,0.0,0.0,0.0,0.0,0.0,0.0,0.0,0.0,0.0,0.0,0.0,0.0,0.0,0.0,0.0,0.0,0.0,0.0,0.0,0.0,0.0,0.0,0.0,0.0,0.0,0.0,0.0,0.0,0.0,0.0,0.0,-3.043,-3.0568,-3.0878,0.0,-2.7399,0.0,0.0,0.0,0.0,0.0,0.0,0.0,0.0,0.0,0.0,0.0,0.0,0.0,0.0,0.0,0.0,0.0,0.0,0.0,0.0,0.0,0.0,0.0,0.0,0.0,0.0,0.0,0.0,0.0,0.0,0.0,0.0,0.0,0.0,0.0,0.0,0.0,0.0,0.0,0.0,0.0,0.0,0.0,0.0,0.0,0.0,0.0,0.0,0.0,0.0,0.0,0.0,0.0,0.0,0.0,0.0,0.0,0.0,0.0,0.0,0.0,0.0,0.0,0.0,0.0,0.0,0.0,0.0,0.0,0.0,0.0,0.0,0.0,0.0,0.0,0.0,0.0,0.0,0.0,0.0,0.0,0.0,0.0,0.0,0.0,0.0,0.0,0.0,0.0,0.0,0.0,0.0,0.0,0.0,0.0,0.0,0.0,0.0,0.0,0.0,0.0,0.0,0.0,0.0,0.0,0.0,0.0,0.0,0.0,0.0,-3.1745,-3.1944,-3.0939,-2.9537,0.0,0.0,0.0,0.0,0.0,0.0,0.0,0.0,0.0,0.0,0.0,0.0,0.0,0.0,0.0,0.0,0.0,0.0,0.0,0.0,0.0,0.0,0.0,0.0,0.0,0.0,0.0,0.0,0.0,0.0,0.0,0.0,0.0,0.0,0.0,0.0,0.0,0.0,0.0,0.0,0.0,0.0,0.0,0.0,0.0,0.0,0.0,0.0,0.0,0.0,0.0,0.0,0.0,0.0,0.0,0.0,0.0,0.0,0.0,0.0,0.0,0.0,0.0,0.0,0.0,0.0,0.0,0.0,0.0,0.0,0.0,0.0,0.0,0.0,0.0,0.0,0.0,0.0,0.0,0.0,0.0,0.0,0.0,0.0,0.0,0.0,0.0,0.0,0.0,0.0,0.0,0.0,0.0,0.0,0.0,0.0,0.0,0.0,0.0,0.0,0.0,0.0,0.0,0.0,0.0,0.0,0.0,0.0,0.0,0.0,-3.2697,0.0,-3.3347,-3.1779,-3.001,-2.8185,0.0,0.0,0.0,0.0,0.0,0.0,0.0,0.0,0.0,0.0,0.0,0.0,0.0,0.0,0.0,0.0,0.0,0.0,0.0,0.0,0.0,0.0,0.0,0.0,0.0,0.0,0.0,0.0,0.0,0.0,0.0,0.0,0.0,0.0,0.0,0.0,0.0,0.0,0.0,0.0,0.0,0.0,0.0,0.0,0.0,0.0,0.0,0.0,0.0,0.0,0.0,0.0,0.0,0.0,0.0,0.0,0.0,0.0,0.0,0.0,0.0,0.0,0.0,0.0,0.0,0.0,0.0,0.0,0.0,0.0,0.0,0.0,0.0,0.0,0.0,0.0,0.0,0.0,0.0,0.0,0.0,0.0,0.0,0.0,0.0,0.0,0.0,0.0,0.0,0.0,0.0,0.0,0.0,0.0,0.0,0.0,0.0,0.0,0.0,0.0,0.0,0.0,0.0,0.0,0.0,0.0,0.0,0.0,0.0,-3.4134,-3.3816,-3.5047,-3.4067,-3.1986,0.0,0.0,0.0,0.0,0.0,0.0,0.0,0.0,0.0,0.0,0.0,0.0,0.0,0.0,0.0,0.0,0.0,0.0,0.0,0.0,0.0,0.0,0.0,0.0,0.0,0.0,0.0,0.0,0.0,0.0,0.0,0.0,0.0,0.0,0.0,0.0,0.0,0.0,0.0,0.0,0.0,0.0,0.0,0.0,0.0,0.0,0.0,0.0,0.0,0.0,0.0,0.0,0.0,0.0,0.0,0.0,0.0,0.0,0.0,0.0,0.0,0.0,0.0,0.0,0.0,0.0,0.0,0.0,0.0,0.0,0.0,0.0,0.0,0.0,0.0,0.0,0.0,0.0,0.0,0.0,0.0,0.0,0.0,0.0,0.0,0.0,0.0,0.0,0.0,0.0,0.0,0.0,0.0,0.0,0.0,0.0,0.0,0.0,0.0,0.0,0.0,0.0,0.0,0.0,0.0,0.0,0.0,0.0,0.0,-3.4676,-3.5002,-3.5702,-3.6787,-3.3973,-3.1748,0.0,0.0,0.0,0.0,0.0,0.0,0.0,0.0,0.0,0.0,0.0,0.0,0.0,0.0,0.0,0.0,0.0,0.0,0.0,0.0,0.0,0.0,0.0,0.0,0.0,0.0,0.0,0.0,0.0,0.0,0.0,0.0,0.0,0.0,0.0,0.0,0.0,0.0,0.0,0.0,0.0,0.0,0.0,0.0,0.0,0.0,0.0,0.0,0.0,0.0,0.0,0.0,0.0,0.0,0.0,0.0,0.0,0.0,0.0,0.0,0.0,0.0,0.0,0.0,0.0,0.0,0.0,0.0,0.0,0.0,0.0,0.0,0.0,0.0,0.0,0.0,0.0,0.0,0.0,0.0,0.0,0.0,0.0,0.0,0.0,0.0,0.0,0.0,0.0,0.0,0.0,0.0,0.0,0.0,0.0,0.0,0.0,0.0,0.0,0.0,0.0,0.0,0.0,0.0,0.0,0.0,0.0,0.0,0.0,-3.4686,0.0,-3.7348,0.0,-3.4563,-3.2381,0.0,0.0,0.0,0.0,0.0,0.0,0.0,0.0,0.0,0.0,0.0,0.0,0.0,0.0,0.0,0.0,0.0,0.0,0.0,0.0,0.0,0.0,0.0,0.0,0.0,0.0,0.0,0.0,0.0,0.0,0.0,0.0,0.0,0.0,0.0,0.0,0.0,0.0,0.0,0.0,0.0,0.0,0.0,0.0,0.0,0.0,0.0,0.0,0.0,0.0,0.0,0.0,0.0,0.0,0.0,0.0,0.0,0.0,0.0,0.0,0.0,0.0,0.0,0.0,0.0,0.0,0.0,0.0,0.0,0.0,0.0,0.0,0.0,0.0,0.0,0.0,0.0,0.0,0.0,0.0,0.0,0.0,0.0,0.0,0.0,0.0,0.0,0.0,0.0,0.0,0.0,0.0,0.0,0.0,0.0,0.0,0.0,0.0,0.0,0.0,0.0,0.0,0.0,0.0,0.0,0.0,0.0,0.0,-3.3961,-3.6205,-3.8229,-3.8498,-3.6897,-3.6022,-3.4017,0.0,0.0,0.0,0.0,0.0,0.0,0.0,0.0,0.0,0.0,0.0,0.0,0.0,0.0,0.0,0.0,0.0,0.0,0.0,0.0,0.0,0.0,0.0,0.0,0.0,0.0,0.0,0.0,0.0,0.0,0.0,0.0,0.0,0.0,0.0,0.0,0.0,0.0,0.0,0.0,0.0,0.0,0.0,0.0,0.0,0.0,0.0,0.0,0.0,0.0,0.0,0.0,0.0,0.0,0.0,0.0,0.0,0.0,0.0,0.0,0.0,0.0,0.0,0.0,0.0,0.0,0.0,0.0,0.0,0.0,0.0,0.0,0.0,0.0,0.0,0.0,0.0,0.0,0.0,0.0,0.0,0.0,0.0,0.0,0.0,0.0,0.0,0.0,0.0,0.0,0.0,0.0,0.0,0.0,0.0,0.0,0.0,0.0,0.0,0.0,0.0,0.0,0.0,0.0,0.0,0.0,0.0,0.0,0.0,-3.5667,-3.7596,-3.8674,-3.8645,-3.6265,-3.4428,0.0,0.0,0.0,0.0,0.0,0.0,0.0,0.0,0.0,0.0,0.0,0.0,0.0,0.0,0.0,0.0,0.0,0.0,0.0,0.0,0.0,0.0,0.0,0.0,0.0,0.0,0.0,0.0,0.0,0.0,0.0,0.0,0.0,0.0,0.0,0.0,0.0,0.0,0.0,0.0,0.0,0.0,0.0,0.0,0.0,0.0,0.0,0.0,0.0,0.0,0.0,0.0,0.0,0.0,0.0,0.0,0.0,0.0,0.0,0.0,0.0,0.0,0.0,0.0,0.0,0.0,0.0,0.0,0.0,0.0,0.0,0.0,0.0,0.0,0.0,0.0,0.0,0.0,0.0,0.0,0.0,0.0,0.0,0.0,0.0,0.0,0.0,0.0,0.0,0.0,0.0,0.0,0.0,0.0,0.0,0.0,0.0,0.0,0.0,0.0,0.0,0.0,0.0,0.0,0.0,0.0,0.0,0.0,0.0,-3.6948,-3.8471,-3.9396,-3.9614,-3.6975,-3.5414,-3.5042,0.0,0.0,0.0,0.0,0.0,0.0,0.0,0.0,0.0,0.0,0.0,0.0,0.0,0.0,0.0,0.0,0.0,0.0,0.0,0.0,0.0,0.0,0.0,0.0,0.0,0.0,0.0,0.0,0.0,0.0,0.0,0.0,0.0,0.0,0.0,0.0,0.0,0.0,0.0,0.0,0.0,0.0,0.0,0.0,0.0,0.0,0.0,0.0,0.0,0.0,0.0,0.0,0.0,0.0,0.0,0.0,0.0,0.0,0.0,0.0,0.0,0.0,0.0,0.0,0.0,0.0,0.0,0.0,0.0,0.0,0.0,0.0,0.0,0.0,0.0,0.0,0.0,0.0,0.0,0.0,0.0,0.0,0.0,0.0,0.0,0.0,0.0,0.0,0.0,0.0,0.0,0.0,0.0,0.0,0.0,0.0,0.0,0.0,0.0,0.0,0.0,0.0,0.0,0.0,0.0,0.0,0.0,0.0,-3.9552,-4.0513,-4.0565,-3.9706,-3.8117,-3.6875,0.0,0.0,0.0,0.0,0.0,0.0,0.0,0.0,0.0,0.0,0.0,0.0,0.0,0.0,0.0,0.0,0.0,0.0,0.0,0.0,0.0,0.0,0.0,0.0,0.0,0.0,0.0,0.0,0.0,0.0,0.0,0.0,0.0,0.0,0.0,0.0,0.0,0.0,0.0,0.0,0.0,0.0,0.0,0.0,0.0,0.0,0.0,0.0,0.0,0.0,0.0,0.0,0.0,0.0,0.0,0.0,0.0,0.0,0.0,0.0,0.0,0.0,0.0,0.0,0.0,0.0,0.0,0.0,0.0,0.0,0.0,0.0,0.0,0.0,0.0,0.0,0.0,0.0,0.0,0.0,0.0,0.0,0.0,0.0,0.0,0.0,0.0,0.0,0.0,0.0,0.0,0.0,0.0,0.0,0.0,0.0,0.0,0.0,0.0,0.0,0.0,0.0,0.0,0.0,0.0,0.0,0.0,0.0,0.0,-4.0461,-4.0896,-4.0933,-4.0619,-3.9023,-3.7746,0.0,0.0,0.0,0.0,0.0,0.0,0.0,0.0,0.0,0.0,0.0,0.0,0.0,0.0,0.0,0.0,0.0,0.0,0.0,0.0,0.0,0.0,0.0,0.0,0.0,0.0,0.0,0.0,0.0,0.0,0.0,0.0,0.0,0.0,0.0,0.0,0.0,0.0,0.0,0.0,0.0,0.0,0.0,0.0,0.0,0.0,0.0,0.0,0.0,0.0,0.0,0.0,0.0,0.0,0.0,0.0,0.0,0.0,0.0,0.0,0.0,0.0,0.0,0.0,0.0,0.0,0.0,0.0,0.0,0.0,0.0,0.0,0.0,0.0,0.0,0.0,0.0,0.0,0.0,0.0,0.0,0.0,0.0,0.0,0.0,0.0,0.0,0.0,0.0,0.0,0.0,0.0,0.0,0.0,0.0,0.0,0.0,0.0,0.0,0.0,0.0,0.0,0.0,0.0,0.0,0.0,0.0,0.0,-3.948,-4.0869,-4.0986,-4.1041,-4.0992,-3.9697,-3.8578,0.0,0.0,0.0,0.0,0.0,0.0,0.0,0.0,0.0,0.0,0.0,0.0,0.0,0.0,0.0,0.0,0.0,0.0,0.0,0.0,0.0,0.0,0.0,0.0,0.0,0.0,0.0,0.0,0.0,0.0,0.0,0.0,0.0,0.0,0.0,0.0,0.0,0.0,0.0,0.0,0.0,0.0,0.0,0.0,0.0,0.0,0.0,0.0,0.0,0.0,0.0,0.0,0.0,0.0,0.0,0.0,0.0,0.0,0.0,0.0,0.0,0.0,0.0,0.0,0.0,0.0,0.0,0.0,0.0,0.0,0.0,0.0,0.0,0.0,0.0,0.0,0.0,0.0,0.0,0.0,0.0,0.0,0.0,0.0,0.0,0.0,0.0,0.0,0.0,0.0,0.0,0.0,0.0,0.0,0.0,0.0,0.0,0.0,0.0,0.0,0.0,0.0,0.0,0.0,0.0,0.0,0.0,0.0,-3.9957,-4.0873,-4.0969,-4.0994,-4.0953,-4.0139,-3.9213,0.0,0.0,0.0,0.0,0.0,0.0,0.0,0.0,0.0,0.0,0.0,0.0,0.0,0.0,0.0,0.0,0.0,0.0,0.0,0.0,0.0,0.0,0.0,0.0,0.0,0.0,0.0,0.0,0.0,0.0,0.0,0.0,0.0,0.0,0.0,0.0,0.0,0.0,0.0,0.0,0.0,0.0,0.0,0.0,0.0,0.0,0.0,0.0,0.0,0.0,0.0,0.0,0.0,0.0,0.0,0.0,0.0,0.0,0.0,0.0,0.0,0.0,0.0,0.0,0.0,0.0,0.0,0.0,0.0,0.0,0.0,0.0,0.0,0.0,0.0,0.0,0.0,0.0,0.0,0.0,0.0,0.0,0.0,0.0,0.0,0.0,0.0,0.0,0.0,0.0,0.0,0.0,0.0,0.0,0.0,0.0,0.0,0.0,0.0,0.0,0.0,0.0,0.0,0.0,0.0,0.0,0.0,0.0,-3.9956,-4.0863,-4.0975,-4.0976,-4.0931,-4.0137,-3.8941,0.0,0.0,0.0,0.0,0.0,0.0,0.0,0.0,0.0,0.0,0.0,0.0,0.0,0.0,0.0,0.0,0.0,0.0,0.0,0.0,0.0,0.0,0.0,0.0,0.0,0.0,0.0,0.0,0.0,0.0,0.0,0.0,0.0,0.0,0.0,0.0,0.0,0.0,0.0,0.0,0.0,0.0,0.0,0.0,0.0,0.0,0.0,0.0,-4.0378,0.0,0.0,0.0,0.0,0.0,0.0,0.0,0.0,0.0,0.0,0.0,0.0,0.0,0.0,0.0,0.0,0.0,0.0,0.0,0.0,0.0,0.0,0.0,0.0,0.0,0.0,0.0,0.0,0.0,0.0,0.0,0.0,0.0,0.0,0.0,0.0,0.0,0.0,0.0,0.0,0.0,0.0,0.0,0.0,0.0,0.0,0.0,0.0,0.0,0.0,0.0,0.0,0.0,0.0,0.0,0.0,0.0,0.0,0.0,-4.0369,-4.0879,-4.0977,-4.0972,-4.0886,-4.045,-3.9184,0.0,0.0,0.0,0.0,0.0,0.0,0.0,0.0,0.0,0.0,0.0,0.0,0.0,0.0,0.0,0.0,0.0,0.0,0.0,0.0,0.0,0.0,0.0,0.0,0.0,0.0,0.0,0.0,0.0,0.0,0.0,0.0,0.0,0.0,0.0,0.0,0.0,0.0,0.0,0.0,0.0,0.0,0.0,0.0,0.0,0.0,0.0,0.0,0.0,0.0,0.0,0.0,0.0,0.0,0.0,0.0,0.0,0.0,0.0,0.0,0.0,0.0,0.0,0.0,0.0,0.0,0.0,0.0,0.0,0.0,0.0,0.0,0.0,0.0,0.0,0.0,0.0,0.0,0.0,0.0,0.0,0.0,0.0,0.0,0.0,0.0,0.0,0.0,0.0,0.0,0.0,0.0,0.0,0.0,0.0,0.0,0.0,0.0,0.0,0.0,0.0,0.0,0.0,0.0,0.0,0.0,0.0,-3.9835,-4.0718,-4.0914,-4.097,-4.0959,-4.0903,-4.0842,-3.9578,-3.7052,0.0,0.0,0.0,0.0,0.0,0.0,0.0,0.0,0.0,0.0,0.0,0.0,0.0,0.0,0.0,0.0,0.0,0.0,0.0,0.0,0.0,0.0,0.0,0.0,0.0,0.0,0.0,0.0,0.0,0.0,0.0,0.0,0.0,0.0,0.0,0.0,0.0,0.0,-3.8693,-4.1533,0.0,0.0,0.0,0.0,0.0,0.0,0.0,0.0,-4.404,0.0,0.0,0.0,0.0,0.0,0.0,0.0,0.0,0.0,0.0,0.0,0.0,0.0,0.0,0.0,0.0,0.0,0.0,0.0,0.0,0.0,0.0,0.0,0.0,0.0,0.0,0.0,0.0,0.0,0.0,0.0,0.0,0.0,0.0,0.0,0.0,0.0,0.0,0.0,0.0,0.0,0.0,0.0,0.0,0.0,0.0,0.0,0.0,0.0,0.0,0.0,0.0,0.0,0.0,0.0,0.0,-3.925,-3.9606,-4.017,-4.0945,-4.0994,-4.0953,-4.0903,-4.0842,-3.9572,-3.7125,0.0,0.0,0.0,0.0,0.0,0.0,0.0,0.0,0.0,0.0,0.0,0.0,0.0,0.0,0.0,0.0,0.0,0.0,0.0,0.0,0.0,0.0,0.0,0.0,0.0,0.0,0.0,0.0,0.0,0.0,0.0,0.0,0.0,0.0,0.0,0.0,0.0,0.0,0.0,-4.3814,-4.526,0.0,0.0,0.0,0.0,0.0,0.0,0.0,0.0,-4.5557,0.0,0.0,0.0,0.0,0.0,0.0,0.0,0.0,0.0,0.0,0.0,0.0,0.0,0.0,0.0,0.0,0.0,0.0,0.0,0.0,0.0,0.0,0.0,0.0,0.0,0.0,0.0,0.0,0.0,0.0,0.0,0.0,0.0,0.0,0.0,0.0,0.0,0.0,0.0,0.0,0.0,0.0,0.0,0.0,0.0,0.0,0.0,0.0,0.0,0.0,0.0,0.0,0.0,0.0,0.0,-3.881,-3.9787,-4.0521,-4.0974,-4.0995,-4.0971,-4.0884,-4.0006,-3.8695,0.0,0.0,0.0,0.0,0.0,0.0,0.0,0.0,0.0,0.0,0.0,0.0,0.0,0.0,0.0,0.0,0.0,0.0,0.0,0.0,0.0,0.0,0.0,0.0,0.0,0.0,0.0,0.0,0.0,0.0,0.0,0.0,0.0,0.0,0.0,0.0,0.0,0.0,0.0,0.0,-4.438,-4.5898,-4.6582,0.0,0.0,0.0,0.0,0.0,0.0,-4.5586,-4.5975,0.0,0.0,0.0,0.0,0.0,0.0,0.0,0.0,0.0,0.0,0.0,0.0,0.0,0.0,0.0,0.0,0.0,0.0,0.0,0.0,0.0,0.0,0.0,0.0,0.0,0.0,0.0,0.0,0.0,0.0,0.0,0.0,0.0,0.0,0.0,0.0,0.0,0.0,0.0,0.0,0.0,0.0,0.0,0.0,0.0,0.0,0.0,0.0,0.0,0.0,0.0,0.0,0.0,0.0,0.0,-3.8266,-3.983,-4.0774,-4.1006,-4.1015,-4.0969,-4.0884,-3.9544,-3.8288,0.0,0.0,0.0,0.0,0.0,0.0,0.0,0.0,0.0,0.0,0.0,0.0,0.0,0.0,0.0,0.0,0.0,0.0,0.0,0.0,0.0,0.0,0.0,0.0,0.0,0.0,0.0,0.0,0.0,0.0,0.0,0.0,0.0,0.0,0.0,0.0,0.0,0.0,0.0,0.0,0.0,-4.6577,-4.7231,-4.7575,0.0,0.0,0.0,0.0,-4.5284,-4.5817,0.0,0.0,0.0,0.0,0.0,0.0,0.0,0.0,0.0,0.0,0.0,0.0,0.0,0.0,0.0,0.0,0.0,0.0,0.0,0.0,0.0,0.0,0.0,0.0,0.0,0.0,0.0,0.0,0.0,0.0,0.0,0.0,0.0,0.0,0.0,0.0,0.0,0.0,0.0,0.0,0.0,0.0,0.0,0.0,0.0,0.0,0.0,0.0,0.0,0.0,0.0,0.0,0.0,0.0,0.0,0.0,-3.8287,-3.9302,-4.0234,-4.1033,-4.1015,-4.0964,-4.0903,-4.0647,-3.9721,0.0,0.0,0.0,0.0,0.0,0.0,0.0,0.0,0.0,0.0,0.0,0.0,0.0,0.0,0.0,0.0,0.0,0.0,0.0,0.0,0.0,0.0,0.0,0.0,0.0,0.0,0.0,0.0,0.0,0.0,0.0,0.0,0.0,0.0,0.0,0.0,0.0,0.0,0.0,0.0,0.0,-4.7927,-4.7456,-4.8117,-4.8339,0.0,0.0,-4.6964,-4.6092,-4.6683,0.0,0.0,0.0,0.0,0.0,0.0,0.0,0.0,0.0,0.0,0.0,0.0,0.0,0.0,0.0,0.0,0.0,0.0,0.0,0.0,0.0,0.0,0.0,0.0,0.0,0.0,0.0,0.0,0.0,0.0,0.0,0.0,0.0,0.0,0.0,0.0,0.0,0.0,0.0,0.0,0.0,0.0,0.0,0.0,0.0,0.0,0.0,0.0,0.0,0.0,0.0,0.0,0.0,0.0,0.0,-3.7788,-3.8336,-3.9671,-4.0623,-4.1074,-4.1073,-4.1008,-4.0956,-3.9497,-3.8563,0.0,0.0,0.0,0.0,0.0,0.0,0.0,0.0,0.0,0.0,0.0,0.0,0.0,0.0,0.0,0.0,0.0,0.0,0.0,0.0,0.0,0.0,0.0,0.0,0.0,0.0,0.0,0.0,0.0,0.0,0.0,0.0,0.0,0.0,0.0,0.0,0.0,0.0,0.0,0.0,0.0,0.0,-4.8171,-4.853,0.0,0.0,0.0,-4.6015,-4.6103,0.0,0.0,0.0,0.0,0.0,0.0,0.0,0.0,0.0,0.0,0.0,0.0,0.0,0.0,0.0,0.0,0.0,0.0,0.0,0.0,0.0,0.0,0.0,0.0,0.0,0.0,0.0,0.0,0.0,0.0,0.0,0.0,0.0,0.0,0.0,0.0,0.0,0.0,0.0,0.0,0.0,0.0,0.0,0.0,0.0,0.0,0.0,0.0,0.0,0.0,0.0,0.0,0.0,0.0,0.0,0.0,0.0,-3.8307,-3.9812,-4.076,-4.1093,-4.1106,-4.0976,-4.0677,-3.8792,0.0,0.0,0.0,0.0,0.0,0.0,0.0,0.0,0.0,0.0,0.0,0.0,0.0,0.0,0.0,0.0,0.0,0.0,0.0,0.0,0.0,0.0,0.0,0.0,0.0,0.0,0.0,-3.0999,0.0,0.0,0.0,0.0,0.0,0.0,0.0,0.0,0.0,0.0,0.0,0.0,0.0,0.0,-4.7966,-4.8034,-4.8102,-4.8431,0.0,0.0,-4.535,-4.5716,-4.5393,-4.5036,0.0,0.0,0.0,0.0,0.0,0.0,0.0,0.0,0.0,0.0,0.0,0.0,0.0,0.0,0.0,0.0,0.0,0.0,0.0,0.0,0.0,0.0,0.0,0.0,0.0,0.0,0.0,0.0,0.0,0.0,0.0,0.0,0.0,0.0,0.0,0.0,0.0,0.0,0.0,0.0,0.0,0.0,0.0,0.0,0.0,0.0,0.0,0.0,0.0,0.0,0.0,0.0,0.0,0.0,0.0,-3.8253,-3.9276,-4.0198,-4.1054,-4.1106,-4.0702,-3.9896,-3.9653,-3.8344,0.0,0.0,0.0,0.0,0.0,0.0,0.0,0.0,0.0,0.0,0.0,0.0,0.0,0.0,0.0,0.0,0.0,0.0,0.0,0.0,0.0,0.0,0.0,0.0,0.0,0.0,0.0,0.0,0.0,0.0,0.0,0.0,0.0,0.0,0.0,0.0,0.0,0.0,0.0,0.0,0.0,-4.6217,-4.6264,-4.6329,-4.6677,0.0,0.0,-4.5747,-4.5008,-4.5484,-4.5657,-4.4928,0.0,0.0,0.0,0.0,0.0,0.0,0.0,0.0,0.0,0.0,0.0,0.0,0.0,0.0,0.0,0.0,0.0,0.0,0.0,0.0,0.0,0.0,0.0,0.0,0.0,0.0,0.0,0.0,0.0,0.0,0.0,0.0,0.0,0.0,0.0,0.0,0.0,0.0,0.0,0.0,0.0,0.0,0.0,0.0,0.0,0.0,0.0,0.0,0.0,0.0,0.0,0.0,0.0,-3.6234,-3.7496,-3.8424,-3.9087,-3.9477,-3.955,-3.9389,-3.9061,-3.7943,-3.712,0.0,0.0,0.0,0.0,0.0,0.0,0.0,0.0,0.0,0.0,0.0,0.0,0.0,0.0,0.0,0.0,0.0,0.0,0.0,0.0,0.0,0.0,0.0,0.0,0.0,0.0,0.0,0.0,-3.3922,-3.4511,-3.557,0.0,0.0,0.0,0.0,0.0,0.0,0.0,0.0,0.0,0.0,-4.5857,-4.5406,-4.5394,0.0,0.0,-4.5816,-4.4803,-4.5507,-4.5414,-4.5142,-4.4851,-4.5472,0.0,0.0,0.0,0.0,0.0,0.0,0.0,0.0,0.0,0.0,0.0,0.0,0.0,0.0,0.0,0.0,0.0,0.0,0.0,0.0,0.0,0.0,0.0,0.0,0.0,0.0,0.0,0.0,0.0,0.0,0.0,0.0,0.0,0.0,0.0,0.0,0.0,0.0,0.0,0.0,0.0,0.0,0.0,0.0,0.0,0.0,0.0,0.0,0.0,0.0,0.0,0.0,-3.5578,-3.7003,-3.7686,-3.8202,-3.8482,-3.8583,-3.8477,-3.817,-3.6737,-3.5974,0.0,0.0,0.0,0.0,0.0,0.0,0.0,0.0,0.0,0.0,0.0,0.0,0.0,0.0,0.0,0.0,0.0,0.0,0.0,0.0,0.0,0.0,0.0,0.0,0.0,0.0,0.0,0.0,-3.4642,-3.5187,-3.6671,0.0,0.0,0.0,0.0,0.0,0.0,0.0,0.0,0.0,0.0,-4.4705,-4.4218,-4.4155,-4.4761,-4.6484,-4.4944,-4.41,-4.5492,-4.5177,-4.4792,-4.4792,0.0,0.0,0.0,0.0,0.0,0.0,0.0,0.0,0.0,0.0,0.0,0.0,0.0,0.0,0.0,0.0,0.0,0.0,0.0,0.0,0.0,0.0,0.0,0.0,0.0,0.0,0.0,0.0,0.0,0.0,-3.2204,0.0,0.0,0.0,0.0,0.0,0.0,0.0,0.0,0.0,0.0,0.0,0.0,0.0,0.0,0.0,0.0,0.0,0.0,0.0,0.0,0.0,0.0,-3.446,-3.7046,-3.7141,-3.76,-3.8424,-3.8543,-3.8145,-3.7291,-3.6434,-3.5194,-3.3526,0.0,0.0,0.0,0.0,0.0,0.0,0.0,0.0,0.0,0.0,0.0,0.0,0.0,0.0,0.0,0.0,0.0,0.0,0.0,0.0,0.0,0.0,0.0,0.0,0.0,0.0,-3.5534,-3.5578,-3.5938,0.0,0.0,0.0,0.0,0.0,0.0,0.0,0.0,0.0,0.0,-4.2801,-4.2322,-4.2444,-4.2457,-4.307,-4.4738,-4.4192,-4.3885,-4.4752,-4.4832,-4.4792,0.0,0.0,0.0,0.0,0.0,0.0,0.0,0.0,0.0,0.0,0.0,0.0,0.0,0.0,0.0,0.0,0.0,0.0,0.0,0.0,0.0,0.0,0.0,0.0,0.0,0.0,0.0,-3.4046,-3.2871,0.0,0.0,0.0,0.0,0.0,0.0,0.0,0.0,0.0,0.0,0.0,-3.5751,-3.6045,0.0,0.0,0.0,0.0,0.0,0.0,0.0,0.0,0.0,0.0,0.0,0.0,-3.3616,-3.6135,-3.5797,-3.5977,-3.6805,-3.6843,-3.6443,-3.5588,-3.4732,-3.3455,-3.1729,0.0,0.0,0.0,0.0,0.0,0.0,0.0,0.0,0.0,0.0,0.0,0.0,0.0,0.0,0.0,0.0,0.0,0.0,0.0,0.0,0.0,0.0,0.0,0.0,0.0,-3.5608,0.0,0.0,0.0,0.0,0.0,0.0,0.0,0.0,0.0,0.0,0.0,-4.2856,-4.2655,-4.2422,-4.2081,-4.161,-4.1539,-4.2143,0.0,0.0,0.0,0.0,0.0,0.0,0.0,0.0,0.0,0.0,0.0,0.0,0.0,0.0,-4.4535,-4.3668,-4.351,-4.3452,-4.3205,0.0,0.0,0.0,0.0,0.0,0.0,0.0,0.0,0.0,0.0,0.0,0.0,0.0,0.0,-3.4131,0.0,-3.2852,0.0,0.0,0.0,0.0,0.0,0.0,0.0,0.0,-3.5401,-3.577,-3.5799,-3.6348,-3.6604,0.0,-3.6623,-3.5922,0.0,0.0,0.0,0.0,0.0,0.0,0.0,0.0,-3.3248,-3.4928,-3.4521,-3.4521,-3.5071,-3.5103,-3.4839,-3.4256,-3.3403,-3.2281,-3.0877,-3.1612,-3.1522,0.0,0.0,0.0,0.0,0.0,0.0,0.0,0.0,0.0,0.0,0.0,0.0,0.0,0.0,0.0,0.0,0.0,0.0,0.0,0.0,0.0,0.0,0.0,-3.5637,0.0,0.0,0.0,0.0,0.0,0.0,0.0,0.0,0.0,-4.286,-4.2911,-4.2976,-4.3053,-4.2363,-4.1776,-4.1569,0.0,0.0,0.0,0.0,0.0,0.0,0.0,-4.5419,-4.591,-4.5336,-4.487,-4.5103,-4.5122,-4.5142,-4.5122,0.0,0.0,-4.3996,-4.3709,-4.3523,-4.3557,-4.3565,-4.3401,-4.2847,-4.2702,-4.2494,0.0,0.0,0.0,0.0,0.0,0.0,0.0,0.0,-3.4927,-3.4434,0.0,-3.3676,0.0,0.0,0.0,0.0,0.0,-3.4889,0.0,0.0,-3.6813,-3.7277,-3.7268,-3.7268,-3.7315,-3.7344,-3.7344,-3.7015,-3.6413,-3.6254,0.0,0.0,0.0,0.0,0.0,0.0,-3.327,-3.3434,-3.339,-3.3384,-3.3432,-3.3423,-3.3391,-3.3338,-3.2523,-3.169,-3.0972,-3.1678,-3.1336,-2.9708,-3.1189,0.0,0.0,0.0,0.0,0.0,0.0,0.0,0.0,0.0,0.0,0.0,0.0,0.0,0.0,0.0,0.0,0.0,0.0,0.0,0.0,-3.5742,0.0,0.0,0.0,0.0,0.0,0.0,0.0,0.0,0.0,0.0,-4.4369,-4.3149,-4.2748,-4.4355,0.0,0.0,0.0,0.0,-4.1406,-4.2286,-4.3062,-4.3855,-4.4718,-4.5465,-4.5909,-4.5896,0.0,0.0,-4.3646,-4.3505,-4.3544,-4.3505,-4.353,-4.3719,-4.4501,-4.3996,-4.351,-4.3491,-4.3457,-4.3447,-4.3428,-4.3146,-4.3125,-3.5182,0.0,0.0,0.0,0.0,-3.512,-3.5029,-3.5001,-3.4927,-3.4434,-3.3695,-3.3695,0.0,0.0,0.0,0.0,0.0,0.0,-3.4415,-3.4415,-3.4661,-3.5059,-3.559,-3.5609,-3.5931,-3.6529,-3.6538,-3.6757,-3.7081,-3.6587,-3.5425,-3.366,0.0,0.0,0.0,0.0,-3.2083,-3.3281,-3.2788,-3.2779,-3.3374,-3.3384,-3.3099,-3.25,-3.1642,-3.1079,-3.091,-3.1675,-3.1874,-3.1387,-3.1836,0.0,0.0,0.0,0.0,0.0,0.0,0.0,0.0,0.0,0.0,0.0,0.0,0.0,0.0,0.0,0.0,0.0,0.0,0.0,-3.6433,-3.6555,-3.7058,0.0,0.0,0.0,0.0,0.0,0.0,0.0,0.0,0.0,-4.3537,-4.334,-4.3063,0.0,0.0,-4.1836,-4.1512,-4.1263,-4.1406,-4.2265,-4.2606,0.0,-4.3855,-4.3691,-4.3643,-4.4115,-4.4035,-4.3782,-4.3525,-4.3486,-4.3486,-4.3466,-4.2986,-4.266,-4.2908,-4.3277,-4.3447,-4.3466,-4.301,-4.2606,-4.2548,-4.2042,-4.1579,-3.5182,-3.5182,-3.5182,-3.5193,-3.5179,-3.5119,-3.5075,-3.5029,-3.4936,-3.4624,-3.4169,-3.4169,-3.3695,-3.2918,-3.2918,0.0,0.0,0.0,-3.4169,-3.4169,-3.4169,-3.4434,-3.4889,-3.4908,-3.5173,-3.5666,-3.5695,-3.5922,-3.6415,-3.6063,-3.4867,-3.2961,0.0,0.0,-3.2023,-3.1472,-3.1593,-3.2304,-3.1843,-3.1854,-3.2352,-3.2388,-3.2122,-3.1602,-3.1075,-3.0843,-3.0907,-3.202,-3.2452,-3.2126,-3.2769,-3.2807,0.0,0.0,0.0,0.0,0.0,0.0,0.0,0.0,0.0,0.0,0.0,-3.1877,-3.1,0.0,0.0,0.0,-3.3959,-3.6008,-3.7748,-3.7928,0.0,0.0,0.0,0.0,0.0,0.0,0.0,-4.3401,-4.2647,-4.2318,-4.3189,-4.3108,-4.2883,-4.2728,-4.2174,-4.1752,-4.163,0.0,-4.1289,-4.1797,-4.2181,-4.2584,-4.3049,-4.2988,-4.2933,-4.2992,-4.3019,-4.2886,-4.2555,-4.2492,-4.2507,-4.2455,-4.2081,-4.1708,-4.1689,-4.2131,-4.2456,-4.2461,-4.2058,-4.1699,-4.1683,-4.1216,-4.0807,-3.5141,-3.5122,-3.5064,-3.5081,-3.5193,-3.5127,-3.5092,-3.5084,-3.4974,-3.4908,-3.4908,-3.4908,-3.4472,-3.3809,-3.379,0.0,-3.3828,-3.4548,-3.4889,-3.4908,-3.4832,-3.4794,-3.4794,-3.4737,-3.4699,-3.468,-3.4699,-3.4699,-3.4709,-3.4836,-3.411,-3.266,-3.359,-3.333,-3.198,-3.189,-3.1535,-3.0821,-3.0801,-3.0808,-3.0802,-3.0785,-3.0816,-3.0937,-3.082,-3.0862,-3.1043,-3.2468,-3.2919,-3.22,-3.3626,-3.376,-3.2169,0.0,0.0,0.0,0.0,0.0,0.0,0.0,0.0,0.0,0.0,0.0,0.0,0.0,0.0,0.0,-3.5774,0.0,-3.9346,-3.9481,0.0,0.0,0.0,-4.1738,-4.1087,-4.2241,-4.2802,-4.2067,0.0,0.0,-4.2995,-4.2452,-4.2322,-4.3184,-4.2013,-4.14,-4.2191,-4.1594,-4.1113,-4.1158,-4.1773,-4.2272,-4.2293,-4.2793,-4.2939,-4.2325,-4.2202,-4.1922,-4.1279,-4.1085,-4.1036,-4.1104,-4.0996,-4.1003,-4.0941,-4.0951,-4.081,-4.0849,-4.0903,-4.0893,-4.081,-4.0707,-4.0627,-3.4542,-3.4528,-3.3876,-3.4226,-3.517,-3.5119,-3.5066,-3.5011,-3.4936,-3.4908,-3.4908,-3.4908,-3.4794,-3.4605,-3.4624,-3.4605,-3.4624,-3.4794,-3.4908,-3.487,-3.4263,-3.3998,-3.396,-3.3297,-3.3013,-3.2994,-3.2994,-3.2985,-3.2985,-3.3029,-3.2585,-3.1764,-3.1965,-3.1711,-3.0971,-3.0989,-3.0951,-3.0801,-3.0801,-3.0793,-3.0794,-3.0788,-3.1109,-3.1777,-3.1153,-3.1134,-3.178,-3.2185,-3.2321,-3.2132,-3.2494,-3.2528,-3.2101,-3.0471,0.0,0.0,0.0,0.0,0.0,0.0,0.0,0.0,0.0,-3.3315,-3.1878,0.0,-3.4498,0.0,-3.535,-3.6942,-3.9268,-3.9481,0.0,0.0,-4.228,-4.2202,-4.2647,-4.1912,-4.1551,-4.1951,-4.1467,-4.1164,-4.1377,-4.1235,-4.1168,-4.1424,-4.1761,-4.1873,-4.1486,-4.1255,-4.1111,-4.113,-4.1295,-4.142,-4.1435,-4.1556,-4.1659,-4.1415,-4.134,-4.1224,-4.1029,-4.099,-4.0987,-4.0977,-4.0995,-4.0992,-4.0921,-4.0464,-4.0014,-4.0029,-4.0461,-4.0679,-4.0073,-3.9892,-3.989,-3.4128,-3.378,-3.3309,-3.3364,-3.3772,-3.4169,-3.4254,-3.4146,-3.4572,-3.4701,-3.4588,-3.4711,-3.4771,-3.4762,-3.487,-3.4908,-3.4908,-3.4908,-3.4908,-3.4851,-3.4074,-3.3695,-3.3676,-3.2804,-3.2406,-3.2406,-3.2406,-3.2406,-3.2406,-3.2406,-3.2043,-3.132,-3.1375,-3.1083,-3.0437,-3.0505,-3.0607,-3.0764,-3.0759,-3.0762,-3.079,-3.0798,-3.1038,-3.1495,-3.1436,-3.1436,-3.1535,-3.2272,-3.2505,-3.2139,-3.248,-3.2496,-3.2108,-3.0812,-2.9864,0.0,0.0,0.0,0.0,0.0,0.0,0.0,0.0,0.0,0.0,0.0,-3.5589,-3.6046,-3.6168,-3.727,-3.9849,-4.0081,-4.0951,-4.3092,-4.286,-4.2609,-4.2725,-4.1893,-4.1371,-4.1448,-4.1087,-4.0797,-4.0797,-4.0797,-4.0802,-4.0801,-4.1272,-4.1485,-4.1126,-4.1031,-4.1055,-4.1052,-4.1074,-4.1109,-4.1103,-4.077,-4.0667,-4.1019,-4.1074,-4.1031,-4.1018,-4.0721,-4.0462,-4.0449,-4.0159,-3.9861,-3.9832,-3.9497,-3.9026,-3.8751,-3.9204,-3.9544,-3.9141,-3.901,-3.9034,-3.3585,-3.2844,-3.2721,-3.227,-3.1711,-3.2616,-3.2924,-3.2911,-3.384,-3.4121,-3.3905,-3.4143,-3.4288,-3.4411,-3.4611,-3.4756,-3.4851,-3.4785,-3.4737,-3.4699,-3.379,-3.3392,-3.3335,-3.2492,-3.2094,-3.2075,-3.2075,-3.2075,-3.2103,-3.2084,-3.1724,-3.1061,-3.1148,-3.0867,-3.0214,-3.0216,-3.0378,-3.0653,-3.0675,-3.0734,-3.0791,-3.0791,-3.086,-3.0993,-3.1572,-3.1611,-3.1051,-3.2319,-3.2767,-3.218,-3.2826,-3.2881,-3.2132,-3.1486,-3.1031,0.0,-3.0173,0.0,0.0,0.0,0.0,0.0,0.0,0.0,0.0,-3.6361,-3.7168,-3.7825,-3.727,-3.7928,-4.041,-4.0642,-4.1293,-4.2918,-4.3143,-4.2795,-4.1944,-4.1828,-4.1513,-4.0726,-4.061,-4.0591,-4.041,-4.0455,-4.0447,-4.0372,-4.0369,-4.0398,-4.0517,-4.0637,-4.0757,-4.0846,-4.0784,-4.0543,-4.0527,-4.0077,-3.9882,-4.0559,-4.0638,-4.0778,-4.0671,-4.0101,-3.9627,-3.9572,-3.9074,-3.8585,-3.8432,-3.8376,-3.7992,-3.7393,-3.7715,-3.8076,-3.8146,-3.8156,-3.8147,-3.215,-3.1417,-3.0708,-3.0336,-3.0239,-3.0636,-3.1269,-3.2046,-3.2247,-3.2311,-3.2266,-3.2303,-3.2695,-3.3302,-3.3569,-3.4028,-3.463,-3.415,-3.3941,-3.3866,-3.2387,-3.1659,-3.1629,-3.0768,-3.037,-3.037,-3.037,-3.0389,-3.037,-3.037,-3.0294,-3.0162,-3.0167,-3.0144,-3.0097,0.0,0.0,0.0,-3.0583,-3.0639,-3.071,-3.0713,-3.1076,-3.1789,-3.1249,0.0,-3.181,-3.1492,-3.1531,-3.2063,-3.2264,0.0,0.0,0.0,0.0,0.0,0.0,0.0,0.0,0.0,0.0,0.0,-3.3924,-3.4316,-3.4645,-3.6033,-3.6709,-3.6226,-3.6613,-3.7677,-3.9559,-3.9733,-4.0429,-4.2028,-4.2253,-4.1905,-4.1074,-4.088,-4.0557,-3.9766,-3.967,-3.9387,-3.8788,-3.8646,-3.8715,-3.8806,-3.8708,-3.8706,-3.8778,-3.9466,-3.9935,-3.9911,-3.9436,-3.8953,-3.89,-3.8848,-3.8792,-3.8978,-3.9001,-3.9042,-3.9062,-3.8945,-3.873,-3.8725,-3.8618,-3.8447,-3.8434,-3.7921,-3.7335,-3.7136,-3.6724,-3.6557,-3.7182,-3.7305,-3.7344,-3.1139,0.0,-2.9979,-2.9572,0.0,-2.9288,-2.9649,-3.0186,-3.1167,-3.1506,-3.1366,-3.1482,-3.1751,-3.2127,-3.2396,-3.2739,-3.3112,-3.2791,-3.2734,-3.2738,-3.1506,-3.097,-3.1043,-3.0185,-2.978,-2.9808,-2.9789,-2.9789,-2.9789,-2.9827,-2.9806,-2.9849,-2.9849,-2.9907,-3.0003,-2.9948,-3.003,-3.0281,-3.0418,-3.0476,-3.0552,-3.0552,-3.0797,-3.1281,-3.1285,0.0,0.0,0.0,0.0,0.0,0.0,0.0,0.0,0.0,0.0,-3.1442,-3.1777,-3.1983,-3.195,-3.2329,-3.2875,-3.3678,-3.4543,-3.5226,-3.5607,-3.6419,-3.6748,-3.6342,-3.6323,-3.682,-3.8046,-3.82,-3.8716,-3.9895,-4.0088,-3.9889,-3.9496,-3.9386,-3.9206,-3.8858,-3.8756,-3.8582,-3.8144,-3.8112,-3.8163,-3.8151,-3.8163,-3.8112,-3.8188,-3.8626,-3.8995,-3.9023,-3.8328,-3.7932,-3.8263,-3.8002,-3.8007,-3.8351,-3.8474,-3.8461,-3.8472,-3.8141,-3.7849,-3.7812,-3.7539,-3.7263,-3.7195,-3.6836,-3.6549,-3.6455,-3.5838,-3.5399,-3.5804,-3.6173,-3.6323,-3.027,-2.9582,-2.9546,-2.9127,-2.8484,-2.8479,-2.8445,-2.8527,0.0,0.0,0.0,-3.0696,-3.0828,-3.0943,-3.1194,-3.1387,-3.1517,-3.1416,-3.147,-3.1581,-3.0732,-3.0423,-3.0553,-2.9936,-2.9645,-2.9645,-2.9673,-2.9701,-2.9701,-2.9701,-2.9729,-2.9773,-2.9782,-2.9825,-2.9866,-2.9866,-2.9953,-3.0121,-3.0209,-3.0312,-3.035,-3.0355,-3.0389,-3.0487,-3.1129,-3.1182,-3.0443,-3.1777,-3.228,-3.1751,-3.1748,-3.1781,-3.1762,-3.134,-3.1348,-3.1903,-3.2093,-3.2407,-3.2949,-3.3091,-3.3548,-3.4331,-3.519,-3.5969,-3.6651,-3.6665,-3.6659,-3.6679,-3.606,-3.6029,-3.6798,-3.6869,-3.7211,-3.8009,-3.808,-3.8119,-3.8112,-3.8086,-3.8099,-3.7893,-3.7855,-3.7803,-3.7597,-3.7578,-3.7656,-3.7617,-3.7527,-3.7643,-3.7694,-3.7837,-3.8001,-3.7797,-3.7223,-3.7104,-3.7572,-3.7137,-3.7019,-3.7437,-3.761,-3.7737,-3.769,-3.7327,-3.6994,-3.6957,-3.6394,-3.6106,-3.5936,-3.5996,-3.5898,-3.588,-3.5231,-3.4539,-3.4462,-3.4902,-3.5092,-2.9328,-2.8594,-2.8581,-2.8527,-2.8406,-2.8406,-2.8411,-2.8442,-2.8706,-2.8801,-2.8761,-2.8783,-2.9188,-2.9846,-3.0104,-3.0595,-3.1199,-3.0708,-3.0509,-3.0476,-2.9676,-2.9325,-2.9368,-2.9419,-2.9443,-2.9471,-2.9617,-2.9701,-2.9701,-2.9701,-2.9701,-2.972,-2.971,-2.971,-2.9729,-2.9729,-2.9764,-2.9857,-3.0085,-3.0216,-3.0228,-3.0228,-3.0283,-3.0402,-3.041,-3.0423,-3.0407,-3.0664,-3.1055,-3.1658,-3.1708,-3.1713,-3.1732,-3.2225,-3.2363,-3.1911,-3.2459,-3.2638,-3.2126,-3.2725,-3.3455,-3.426,-3.5125,-3.5691,-3.5834,-3.5817,-3.5786,-3.578,-3.5674,-3.5938,-3.6684,-3.6768,-3.7077,-3.788,-3.806,-3.8085,-3.8001,-3.7954,-3.7644,-3.7009,-3.6934,-3.669,-3.6157,-3.6023,-3.608,-3.5952,-3.619,-3.6035,-3.6196,-3.6618,-3.6756,-3.6267,-3.5982,-3.5968,-3.6154,-3.5437,-3.5236,-3.5025,-3.5278,-3.5452,-3.5499,-3.5853,-3.6093,-3.6022,-3.599,-3.5914,-3.5896,-3.5949,-3.5915,-3.5801,-3.5097,-3.4332,-3.3667,-3.3608,-3.3619,-2.8748,-2.8411,-2.8411,-2.838,-2.8358,-2.8304,-2.8264,-2.8196,-2.8178,-2.8264,-2.8358,-2.834,-2.8524,-2.8833,-2.8981,-2.9214,-2.9552,-2.929,-2.9185,-2.9186,-2.8828,-2.8676,-2.8688,-2.8849,-2.8918,-2.8929,-2.9195,-2.9328,-2.9339,-2.9421,-2.951,-2.954,-2.9645,-2.9701,-2.9701,-2.9701,-2.9729,-2.9747,-2.9888,-3.0004,-3.0085,-3.0104,-3.0128,-3.0241,-3.0174,-3.0161,-3.0189,-3.0649,-3.1071,-3.1466,-3.152,-3.1527,-3.1546,-3.1513,-3.1338,-3.1025,-3.1336,-3.1399,-3.1053,-3.2159,-3.298,-3.3336,-3.4522,-3.5296,-3.5326,-3.539,-3.539,-3.5292,-3.527,-3.54,-3.5748,-3.5856,-3.6043,-3.6318,-3.6538,-3.6635,-3.6557,-3.6594,-3.6481,-3.6115,-3.6091,-3.5944,-3.5565,-3.5534,-3.5554,-3.5495,-3.5547,-3.5541,-3.5547,-3.5875,-3.6047,-3.573,-3.5639,-3.5645,-3.5623,-3.5375,-3.5141,-3.5137,-3.5145,-3.5167,-3.5189,-3.56,-3.5749,-3.5795,-3.5817,-3.5853,-3.5841,-3.5904,-3.5732,-3.5124,-3.447,-3.3623,-3.2851,-3.2279,-3.2266,-2.816,-2.8142,-2.8069,-2.8073,-2.8077,-2.8007,-2.7968,-2.7922,-2.794,-2.8025,-2.8146,-2.816,-2.8136,-2.8081,-2.8081,-2.7992,-2.7881,-2.801,-2.8034,-2.7942,-2.8088,-2.8183,-2.8183,-2.8311,-2.8389,-2.8415,-2.8688,-2.8845,-2.8868,-2.8984,-2.9138,-2.927,-2.9481,-2.9588,-2.9607,-2.9598,-2.9607,-2.9655,-2.9692,-2.9799,-2.9926,-2.9916,-2.9959,-3.001,-3.001,-3.0002,-2.9986,-3.0606,-3.0956,-3.0961,-3.1023,-3.1032,-3.0997,-3.0478,-3.0185,-3.0206,-3.0187,-3.02,-3.0297,-3.1496,-3.2256,-3.2257,-3.3735,-3.4668,-3.465,-3.4956,-3.5102,-3.4988,-3.5008,-3.4962,-3.4982,-3.507,-3.5069,-3.4945,-3.5176,-3.5377,-3.5185,-3.5239,-3.5327,-3.5346,-3.5376,-3.5403,-3.5354,-3.5424,-3.5486,-3.5453,-3.546,-3.5481,-3.5476,-3.5489,-3.5528,-3.5566,-3.5585,-3.5604,-3.5589,-3.5363,-3.527,-3.5373,-3.532,-3.5238,-3.5349,-3.5523,-3.576,-3.5745,-3.5584,-3.548,-3.5476,-3.5302,-3.4948,-3.4272,-3.3368,-3.2418,-3.1539,-3.0741,-3.0828,-2.7394,-2.738,-2.7159,-2.7192,-2.7396,-2.7396,-2.7487,-2.7669,-2.7716,-2.7745,-2.7745,-2.7742,-2.776,-2.7763,-2.7745,-2.7405,-2.6908,-2.7461,-2.7422,-2.6929,-2.7443,-2.7742,-2.7771,-2.7954,-2.8051,-2.8079,-2.8277,-2.8363,-2.8363,-2.842,-2.8511,-2.8772,-2.9086,-2.9254,-2.9304,-2.9272,-2.932,-2.9502,-2.9463,-2.954,-2.971,-2.9719,-2.9719,-2.9747,-2.9729,-2.9765,-2.9825,-2.9882,-2.9947,-2.9938,-2.9966,-2.9949,-2.9897,-2.9793,-2.978,-2.9842,-2.9851,-2.9899,-3.0057,-3.0841,-3.1342,-3.1418,-3.2831,-3.3687,-3.3558,-3.4225,-3.4752,-3.4841,-3.4889,-3.487,-3.4917,-3.4908,-3.4898,-3.4831,-3.4936,-3.4955,-3.4917,-3.4889,-3.4879,-3.4879,-3.5044,-3.5053,-3.4926,-3.5138,-3.533,-3.5285,-3.53,-3.5342,-3.5357,-3.54,-3.5441,-3.5488,-3.5541,-3.5585,-3.552,-3.4916,-3.4735,-3.4587,-3.4504,-3.4654,-3.4861,-3.5253,-3.5615,-3.5412,-3.5204,-3.4879,-3.4369,-3.4069,-3.3518,-3.29,-3.1903,-3.0719,-2.9883,-2.9178,-2.9374,-2.6805,-2.6723,-2.659,-2.6606,-2.6706,-2.6706,-2.6706,-2.6706,-2.6935,-2.7018,-2.6971,-2.7165,-2.7448,-2.7666,-2.7242,-2.7101,-2.7224,-2.7119,-2.7078,-2.7145,-2.74,-2.7478,-2.7369,-2.7459,-2.7535,-2.7565,-2.7794,-2.7954,-2.7982,-2.8057,-2.8188,-2.8283,-2.843,-2.8541,-2.8627,-2.8639,-2.8664,-2.8795,-2.8929,-2.902,-2.9148,-2.9502,-2.9701,-2.9701,-2.9701,-2.972,-2.9738,-2.9738,-2.9747,-2.9738,-2.9747,-2.9729,-2.9692,-2.9701,-2.971,-2.9746,-2.9736,-2.9708,-2.9672,-3.0387,-3.0818,-3.074,-3.2214,-3.3101,-3.3048,-3.3762,-3.4286,-3.4341,-3.4424,-3.4424,-3.4383,-3.4464,-3.4516,-3.4428,-3.462,-3.4733,-3.4561,-3.4663,-3.4743,-3.4753,-3.4812,-3.4841,-3.4744,-3.4879,-3.4981,-3.4963,-3.4981,-3.5008,-3.4999,-3.5113,-3.5207,-3.5231,-3.533,-3.5456,-3.547,-3.5297,-3.5046,-3.5045,-3.5071,-3.5083,-3.5031,-3.5268,-3.5467,-3.4944,-3.4726,-3.4095,-3.3011,-3.314,-3.2888,-3.1639,-3.0168,-2.9048,-2.8715,-2.8379,-2.8601,-2.6196,-2.6055,-2.5966,-2.5984,-2.6055,-2.6055,-2.6003,-2.5968,-2.6248,-2.6333,-2.6279,-2.6539,-2.6857,-2.7073,-2.6613,-2.6597,-2.6789,-2.6336,-2.6344,-2.6732,-2.6911,-2.7025,-2.7069,-2.7119,-2.7151,-2.7182,-2.7384,-2.7507,-2.7537,-2.7739,-2.783,-2.7837,-2.7921,-2.8039,-2.8143,-2.8139,-2.8148,-2.8241,-2.8422,-2.8511,-2.8567,-2.8972,-2.9334,-2.9549,-2.9569,-2.9578,-2.9617,-2.9607,-2.9589,-2.9617,-2.9608,-2.9607,-2.9597,-2.9597,-2.9578,-2.955,-2.9569,-2.9491,-2.9351,-2.9898,-3.0171,-3.0191,-3.1387,-3.2256,-3.2539,-3.3204,-3.3727,-3.3998,-3.3998,-3.4011,-3.4036,-3.4136,-3.4129,-3.403,-3.4325,-3.4409,-3.4272,-3.4405,-3.4461,-3.4453,-3.4475,-3.4561,-3.4601,-3.4601,-3.458,-3.4612,-3.4653,-3.4663,-3.4674,-3.4813,-3.4916,-3.4916,-3.506,-3.52,-3.5402,-3.5398,-3.5457,-3.5502,-3.5451,-3.5278,-3.5091,-3.4872,-3.4324,-3.3222,-3.3787,-3.3335,-3.1549,-3.1463,-3.1282,-2.9354,-2.8158,-2.7768,-2.7755,-2.7578,-2.7653,-2.5443,-2.5406,-2.515,-2.5208,-2.5424,-2.5424,-2.5577,-2.5693,-2.5803,-2.5819,-2.5801,-2.5872,-2.5892,-2.5933,-2.5845,-2.5533,-2.4985,-2.4981,-2.5013,-2.5137,-2.5721,-2.6356,-2.699,-2.7007,-2.6991,-2.6991,-2.7024,-2.7056,-2.7056,-2.7289,-2.7424,-2.7424,-2.7692,-2.7876,-2.7936,-2.7865,-2.7932,-2.7935,-2.798,-2.8025,-2.8027,-2.8063,-2.848,-2.9086,-2.9222,-2.9267,-2.9382,-2.9353,-2.9353,-2.9412,-2.9412,-2.9382,-2.9326,-2.9334,-2.9304,-2.9243,-2.9251,-2.924,-2.9222,-2.9285,-2.9329,-2.9392,-3.0249,-3.0895,-3.1709,-3.2558,-3.327,-3.3821,-3.3842,-3.3855,-3.3959,-3.3985,-3.3992,-3.3985,-3.3992,-3.4018,-3.4005,-3.3979,-3.3889,-3.3902,-3.4031,-3.4183,-3.4357,-3.4309,-3.4274,-3.4318,-3.4445,-3.4529,-3.4475,-3.4582,-3.4674,-3.4684,-3.4734,-3.486,-3.5173,-3.5232,-3.5281,-3.5074,-3.4805,-3.4747,-3.3814,-3.2933,-3.2097,-3.1303,-3.1039,-3.0479,-2.9539,-2.8777,-2.8154,-2.7242,-2.7024,-2.6779,-2.6812,-2.6121,-2.6259,-2.4599,-2.4513,-2.4405,-2.441,-2.4513,-2.4497,-2.4542,-2.4648,-2.4926,-2.5044,-2.5086,-2.5281,-2.5414,-2.5384,-2.4484,-2.4464,-2.5022,-2.4834,-2.4992,-2.5419,-2.5681,-2.6144,-2.6758,-2.6775,-2.6708,-2.6691,-2.6674,-2.6674,-2.6674,-2.6775,-2.6825,-2.6842,-2.694,-2.702,-2.7084,-2.7085,-2.7099,-2.7191,-2.7361,-2.7497,-2.751,-2.7654,-2.7907,-2.8236,-2.8615,-2.8844,-2.8883,-2.9119,-2.9246,-2.9275,-2.9257,-2.9254,-2.924,-2.924,-2.9211,-2.9218,-2.9207,-2.9197,-2.9134,-2.9152,-2.9112,-2.9159,-3.0264,-3.1035,-3.1549,-3.2538,-3.3433,-3.3639,-3.3684,-3.3698,-3.3707,-3.3753,-3.3739,-3.3753,-3.3753,-3.3753,-3.3739,-3.3726,-3.3698,-3.3684,-3.3748,-3.3823,-3.3871,-3.3837,-3.3829,-3.385,-3.391,-3.3961,-3.3974,-3.4111,-3.4255,-3.4279,-3.4345,-3.4312,-3.3854,-3.4548,-3.4745,-3.4116,-3.3667,-3.2961,-3.2134,-3.1338,-3.0535,-2.9766,-2.9066,-2.869,-2.8159,-2.721,-2.6386,-2.6207,-2.5965,-2.6051,-2.5893,-2.5642,-2.5759,-2.4009,-2.3882,-2.3861,-2.3882,-2.3925,-2.3882,-2.3903,-2.3946,-2.4188,-2.4169,-2.4081,-2.4295,-2.4288,-2.4001,-2.3193,-2.3184,-2.3898,-2.3648,-2.3919,-2.4657,-2.4811,-2.523,-2.5829,-2.6058,-2.6119,-2.6118,-2.6224,-2.6277,-2.6294,-2.6433,-2.6485,-2.6502,-2.6485,-2.652,-2.6571,-2.6571,-2.6589,-2.6674,-2.6858,-2.6989,-2.6988,-2.7145,-2.7269,-2.7389,-2.7855,-2.8241,-2.8384,-2.8633,-2.8791,-2.8796,-2.8815,-2.8815,-2.8796,-2.8885,-2.8904,-2.8803,-2.885,-2.8838,-2.8719,-2.8725,-2.8737,-2.8816,-2.9826,-3.0689,-3.123,-3.2384,-3.3106,-3.3472,-3.3577,-3.353,-3.3444,-3.3477,-3.352,-3.3577,-3.3605,-3.3605,-3.3605,-3.3605,-3.3573,-3.3577,-3.3577,-3.3559,-3.3549,-3.3573,-3.3573,-3.3534,-3.3545,-3.3605,-3.3605,-3.3726,-3.3887,-3.3881,-3.3974,-3.3518,-3.2871,-3.2929,-3.3019,-3.2467,-3.209,-3.1351,-3.0322,-2.9581,-2.8919,-2.821,-2.7733,-2.7425,-2.6781,-2.5817,-2.5457,-2.5356,-2.5457,-2.5611,-2.5519,-2.5459,-2.5601,-2.3595,-2.3595,-2.3595,-2.3674,-2.3754,-2.3638,-2.3674,-2.3775,-2.3629,-2.329,-2.2942,-2.2786,-2.2536,-2.1998,-2.2137,-2.1948,-2.1546,-2.1335,-2.1665,-2.2441,-2.3,-2.3676,-2.4404,-2.5011,-2.5278,-2.5278,-2.5612,-2.576,-2.5777,-2.61,-2.6311,-2.6381,-2.6329,-2.6276,-2.6416,-2.6346,-2.6433,-2.6434,-2.6468,-2.6486,-2.6502,-2.6571,-2.6555,-2.6556,-2.6969,-2.7417,-2.7879,-2.7946,-2.8034,-2.8057,-2.8057,-2.8016,-2.8125,-2.8303,-2.8259,-2.8106,-2.8179,-2.8183,-2.7978,-2.7996,-2.8143,-2.8376,-2.8845,-2.9855,-3.0939,-3.1708,-3.2475,-3.3194,-3.3386,-3.3298,-3.3037,-3.3104,-3.3271,-3.353,-3.3534,-3.3563,-3.3577,-3.3591,-3.3563,-3.3509,-3.3462,-3.3448,-3.3419,-3.3462,-3.3491,-3.3419,-3.3462,-3.352,-3.339,-3.333,-3.3427,-3.3478,-3.3072,-3.2279,-3.1691,-3.1148,-3.0916,-3.0669,-3.0374,-2.9823,-2.8366,-2.7409,-2.6902,-2.6279,-2.6096,-2.5815,-2.5965,-2.5162,-2.5244,-2.519,-2.5236,-2.5292,-2.5327,-2.5327,-2.537,-2.3392,-2.3392,-2.3392,-2.3414,-2.3451,-2.3407,-2.3414,-2.3376,-2.2933,-2.26,-2.2384,-2.2004,-2.1698,-2.1431,-2.1166,-2.0861,-2.0602,-2.0201,-2.0615,-2.1777,-2.256,-2.319,-2.385,-2.4523,-2.4812,-2.4808,-2.4906,-2.4981,-2.5005,-2.5141,-2.5195,-2.5195,-2.5256,-2.5256,-2.5313,-2.5365,-2.5516,-2.5779,-2.5813,-2.5974,-2.6257,-2.6274,-2.6095,-2.5731,-2.6236,-2.6504,-2.6285,-2.7297,-2.788,-2.7926,-2.7922,-2.7922,-2.7936,-2.8006,-2.801,-2.794,-2.7982,-2.8006,-2.7926,-2.7883,-2.7911,-2.8195,-2.9054,-2.9865,-3.0493,-3.1464,-3.218,-3.2564,-3.255,-3.2468,-3.2351,-3.2351,-3.2603,-3.2941,-3.3208,-3.3349,-3.3349,-3.3364,-3.3396,-3.3367,-3.3271,-3.3226,-3.3193,-3.3202,-3.3148,-3.31,-3.3145,-3.3145,-3.3076,-3.2358,-3.1982,-3.2322,-3.1594,-3.0903,-3.0059,-2.9377,-2.8966,-2.8499,-2.8141,-2.8076,-2.6684,-2.577,-2.5198,-2.4893,-2.4679,-2.4636,-2.4759,-2.485,-2.4942,-2.5019,-2.505,-2.5134,-2.5212,-2.5238,-2.5243,-2.2443,-2.2443,-2.2443,-2.2475,-2.246,-2.2452,-2.2369,-2.2171,-2.1733,-2.1269,-2.0855,-2.0649,-2.0379,-2.0174,-1.9948,-1.9769,-1.958,-1.9147,-1.9523,-2.057,-2.1535,-2.2216,-2.2917,-2.3784,-2.4142,-2.4173,-2.4277,-2.4338,-2.4359,-2.4502,-2.4603,-2.4608,-2.4628,-2.4688,-2.4652,-2.4748,-2.4926,-2.5141,-2.5163,-2.531,-2.5532,-2.5605,-2.5489,-2.5293,-2.5711,-2.5818,-2.5696,-2.6714,-2.7332,-2.7365,-2.7398,-2.7398,-2.738,-2.7487,-2.7532,-2.7426,-2.7502,-2.7532,-2.7411,-2.7336,-2.7441,-2.7711,-2.8543,-2.927,-2.9643,-3.0641,-3.1168,-3.1603,-3.1672,-3.169,-3.1773,-3.1896,-3.2039,-3.2144,-3.2537,-3.2784,-3.28,-3.28,-3.28,-3.2752,-3.2736,-3.2626,-3.2507,-3.2467,-3.2402,-3.2316,-3.2254,-3.2236,-3.2056,-3.1438,-3.1337,-3.1279,-3.103,-2.9958,-2.8407,-2.7644,-2.7049,-2.6377,-2.5743,-2.5743,-2.5147,-2.4799,-2.4349,-2.445,-2.4346,-2.4424,-2.4551,-2.4617,-2.47,-2.4785,-2.4849,-2.4877,-2.4943,-2.5024,-2.5055,-2.1017,-2.0979,-2.1004,-2.1137,-2.1197,-2.1161,-2.0992,-2.0566,-2.028,-1.9687,-1.8922,-1.9024,-1.8775,-1.8377,-1.8724,-1.8724,-1.8324,-1.8313,-1.8324,-1.8781,-1.9648,-2.0641,-2.1617,-2.2613,-2.3088,-2.3229,-2.3561,-2.377,-2.3794,-2.4131,-2.4502,-2.4338,-2.4302,-2.4446,-2.4323,-2.4446,-2.4446,-2.4527,-2.4547,-2.4603,-2.4684,-2.4699,-2.4745,-2.5032,-2.523,-2.5419,-2.5566,-2.6022,-2.6365,-2.6502,-2.6606,-2.6623,-2.6606,-2.6875,-2.6941,-2.6657,-2.6892,-2.6875,-2.6623,-2.6657,-2.6708,-2.6991,-2.7504,-2.7842,-2.859,-2.9162,-2.9848,-3.0663,-3.0785,-3.092,-3.1228,-3.1456,-3.1473,-3.1355,-3.1787,-3.2056,-3.2021,-3.2022,-3.1952,-3.1935,-3.1899,-3.1708,-3.1306,-3.1285,-3.1127,-3.0936,-3.0835,-3.0859,-3.0716,-3.0511,-3.0553,-3.0338,-2.9966,-2.8933,-2.7335,-2.707,-2.6435,-2.5428,-2.4694,-2.4476,-2.4353,-2.4119,-2.3955,-2.4027,-2.4135,-2.4229,-2.4284,-2.4327,-2.4439,-2.454,-2.4578,-2.4598,-2.4674,-2.4769,-2.4877,-2.0979,-2.0979,-2.0979,-2.1004,-2.1028,-2.0979,-2.0924,-2.0705,-1.9794,-1.926,-1.8857,-1.821,-1.7909,-1.77,-1.7834,-1.7821,-1.774,-1.772,-1.772,-1.7767,-1.8037,-1.9387,-2.0755,-2.1399,-2.185,-2.2185,-2.2476,-2.271,-2.3061,-2.326,-2.3334,-2.3268,-2.3319,-2.3245,-2.3216,-2.345,-2.3666,-2.3906,-2.4032,-2.4241,-2.4502,-2.4542,-2.4342,-2.4014,-2.4516,-2.4579,-2.4347,-2.5018,-2.583,-2.6434,-2.6485,-2.6485,-2.6485,-2.6606,-2.6606,-2.6554,-2.6589,-2.6623,-2.6537,-2.6485,-2.6537,-2.6657,-2.7124,-2.7665,-2.7842,-2.8359,-2.9007,-2.965,-2.9758,-2.9948,-3.0397,-3.0621,-3.058,-3.0621,-3.1162,-3.1719,-3.174,-3.1463,-3.1133,-3.1081,-3.056,-3.0179,-3.0038,-2.9984,-2.993,-2.9817,-2.976,-2.9742,-2.9542,-2.8985,-2.8732,-2.8627,-2.823,-2.7403,-2.6641,-2.6412,-2.5816,-2.4771,-2.4182,-2.3934,-2.3902,-2.3883,-2.3789,-2.381,-2.3907,-2.3998,-2.3988,-2.3991,-2.4126,-2.4265,-2.4338,-2.4363,-2.447,-2.4582,-2.4674,-2.0156,-2.0169,-2.0169,-2.0169,-2.0144,-2.0169,-2.0041,-1.9721,-1.9121,-1.8625,-1.8364,-1.8006,-1.7627,-1.744,-1.766,-1.7502,-1.7206,-1.718,-1.718,-1.7188,-1.7387,-1.8481,-1.9879,-2.056,-2.1046,-2.1334,-2.165,-2.2017,-2.231,-2.2554,-2.2698,-2.2743,-2.2669,-2.2678,-2.2723,-2.2791,-2.2994,-2.3224,-2.3334,-2.3493,-2.3752,-2.3773,-2.3755,-2.3483,-2.3912,-2.3928,-2.3984,-2.4544,-2.5214,-2.583,-2.6134,-2.6293,-2.6311,-2.6381,-2.6381,-2.6397,-2.6398,-2.6416,-2.6363,-2.6328,-2.6293,-2.6343,-2.6724,-2.6839,-2.6906,-2.7249,-2.767,-2.8262,-2.8576,-2.9075,-2.9636,-2.9992,-2.9899,-2.951,-3.0135,-3.0694,-3.0751,-3.0049,-2.9729,-2.9559,-2.9251,-2.8829,-2.8697,-2.8664,-2.8562,-2.844,-2.8316,-2.8334,-2.8247,-2.7495,-2.7103,-2.7287,-2.7349,-2.6826,-2.6202,-2.5887,-2.5306,-2.4274,-2.3566,-2.3336,-2.3531,-2.3616,-2.3671,-2.3671,-2.3736,-2.3779,-2.3771,-2.3782,-2.3855,-2.3988,-2.4056,-2.4135,-2.4229,-2.4317,-2.4437,-1.896,-1.896,-1.896,-1.8972,-1.9013,-1.8948,-1.8837,-1.8362,-1.8269,-1.7955,-1.7678,-1.7834,-1.754,-1.7225,-1.7537,-1.7436,-1.6599,-1.6644,-1.659,-1.6659,-1.6942,-1.7754,-1.8616,-1.9593,-2.0084,-2.0337,-2.0996,-2.1227,-2.1428,-2.1971,-2.2285,-2.2249,-2.2347,-2.244,-2.2379,-2.2509,-2.2592,-2.2646,-2.2723,-2.2783,-2.2836,-2.2859,-2.2965,-2.3223,-2.3288,-2.3586,-2.3878,-2.423,-2.4527,-2.4981,-2.5551,-2.5775,-2.583,-2.6012,-2.6028,-2.5972,-2.5937,-2.5974,-2.6007,-2.5828,-2.5811,-2.5807,-2.5752,-2.577,-2.5831,-2.5872,-2.6178,-2.6886,-2.7394,-2.7891,-2.8589,-2.9301,-2.8999,-2.8244,-2.8502,-2.8632,-2.8641,-2.8261,-2.7981,-2.7964,-2.7955,-2.7682,-2.7474,-2.7304,-2.7242,-2.7265,-2.7148,-2.7165,-2.7182,-2.686,-2.6641,-2.6742,-2.669,-2.6602,-2.5954,-2.5354,-2.4636,-2.3821,-2.3081,-2.2789,-2.3182,-2.333,-2.3486,-2.3542,-2.3531,-2.3594,-2.3689,-2.37,-2.3693,-2.3747,-2.3863,-2.3907,-2.3931,-2.402,-2.4118,-1.8667,-1.8694,-1.8667,-1.8667,-1.8694,-1.8694,-1.8623,-1.8481,-1.8064,-1.7877,-1.7688,-1.7407,-1.7003,-1.6526,-1.705,-1.6691,-1.5979,-1.6114,-1.612,-1.5824,-1.617,-1.642,-1.697,-1.7826,-1.8403,-1.8754,-1.8973,-1.952,-2.0215,-2.0586,-2.0792,-2.1218,-2.1575,-2.1664,-2.1722,-2.21,-2.2454,-2.2463,-2.2509,-2.2486,-2.2463,-2.2463,-2.254,-2.2746,-2.2806,-2.2873,-2.3024,-2.3391,-2.3651,-2.3927,-2.4446,-2.4883,-2.4981,-2.5024,-2.5063,-2.5079,-2.504,-2.5005,-2.4962,-2.5017,-2.4922,-2.4981,-2.4981,-2.4863,-2.4879,-2.4827,-2.5114,-2.5623,-2.589,-2.6382,-2.7007,-2.714,-2.7148,-2.6871,-2.6513,-2.6298,-2.6267,-2.6784,-2.7127,-2.7087,-2.6746,-2.6344,-2.6307,-2.6323,-2.6264,-2.6118,-2.6119,-2.6119,-2.6137,-2.6173,-2.6226,-2.6279,-2.6282,-2.6217,-2.5848,-2.5079,-2.4099,-2.3319,-2.2569,-2.2206,-2.2582,-2.2815,-2.289,-2.3086,-2.3289,-2.3348,-2.3371,-2.3578,-2.3571,-2.3645,-2.3678,-2.3736,-2.3771,-2.3792,-2.3855,-1.817,-1.8197,-1.8467,-1.8587,-1.8587,-1.8587,-1.8587,-1.854,-1.8316,-1.8186,-1.8128,-1.7843,-1.7326,-1.6643,-1.7042,-1.6727,-1.5773,-1.5727,-1.5762,-1.5582,-1.5744,-1.581,-1.5876,-1.6333,-1.6884,-1.7476,-1.8013,-1.8548,-1.9012,-1.958,-2.0133,-2.034,-2.0786,-2.1031,-2.1031,-2.1396,-2.1492,-2.1516,-2.1636,-2.166,-2.166,-2.1647,-2.1874,-2.217,-2.2431,-2.2615,-2.2669,-2.2844,-2.3001,-2.3157,-2.3508,-2.4006,-2.4461,-2.4547,-2.4583,-2.4603,-2.4603,-2.4603,-2.4603,-2.4542,-2.4542,-2.4486,-2.4461,-2.4456,-2.4451,-2.4395,-2.4513,-2.49,-2.5188,-2.5521,-2.5861,-2.6306,-2.6161,-2.5537,-2.5355,-2.517,-2.505,-2.5548,-2.6002,-2.6008,-2.5878,-2.5826,-2.5784,-2.564,-2.5696,-2.5754,-2.5772,-2.5772,-2.5826,-2.5844,-2.5826,-2.5881,-2.5954,-2.5873,-2.5639,-2.4854,-2.3637,-2.2777,-2.1951,-2.1751,-2.1863,-2.2048,-2.2189,-2.2502,-2.2862,-2.2832,-2.2895,-2.3134,-2.3336,-2.3336,-2.3389,-2.3533,-2.3634,-2.3682,-2.3736,-1.749,-1.7518,-1.8023,-1.8251,-1.8251,-1.8197,-1.8159,-1.8197,-1.8332,-1.8137,-1.8336,-1.8409,-1.7664,-1.7206,-1.7375,-1.6765,-1.5858,-1.5435,-1.5402,-1.5435,-1.5446,-1.5457,-1.5501,-1.5635,-1.5901,-1.6573,-1.7082,-1.7479,-1.7945,-1.8727,-1.9124,-1.9511,-2.0137,-2.0358,-2.0396,-2.0535,-2.066,-2.0696,-2.0721,-2.0696,-2.0671,-2.0696,-2.0993,-2.142,-2.1841,-2.21,-2.21,-2.2194,-2.2287,-2.2347,-2.2514,-2.3105,-2.3758,-2.4241,-2.4359,-2.4282,-2.4178,-2.4152,-2.411,-2.4116,-2.4095,-2.4163,-2.4084,-2.403,-2.4009,-2.3909,-2.3919,-2.4113,-2.4349,-2.4674,-2.4948,-2.5128,-2.4945,-2.445,-2.4563,-2.456,-2.4304,-2.4415,-2.4666,-2.4942,-2.5112,-2.5197,-2.522,-2.5166,-2.5278,-2.5371,-2.5371,-2.5391,-2.541,-2.5391,-2.5262,-2.5304,-2.5365,-2.5371,-2.5159,-2.4572,-2.3373,-2.241,-2.1517,-2.1403,-2.1371,-2.1569,-2.182,-2.2136,-2.2385,-2.2395,-2.2502,-2.2712,-2.2887,-2.2943,-2.3084,-2.323,-2.34,-2.3567,-2.3611,-1.6539,-1.6528,-1.6641,-1.6669,-1.6708,-1.6698,-1.6782,-1.6744,-1.7126,-1.7201,-1.7273,-1.7522,-1.7381,-1.6995,-1.6964,-1.6496,-1.5802,-1.5397,-1.5177,-1.5165,-1.5143,-1.512,-1.5211,-1.5142,-1.5311,-1.5401,-1.5857,-1.6265,-1.6641,-1.7159,-1.7897,-1.8296,-1.9115,-1.9555,-1.9697,-2.0004,-2.0105,-2.0029,-2.0105,-2.0131,-2.0156,-2.0308,-2.0434,-2.0746,-2.0993,-2.108,-2.108,-2.1066,-2.1091,-2.1153,-2.1674,-2.2016,-2.2383,-2.2875,-2.3157,-2.329,-2.3326,-2.3355,-2.3326,-2.3238,-2.3172,-2.3142,-2.3179,-2.3142,-2.3082,-2.3023,-2.312,-2.3068,-2.3118,-2.3175,-2.3041,-2.353,-2.3277,-2.2999,-2.3118,-2.3191,-2.3127,-2.3341,-2.3764,-2.4168,-2.4369,-2.4553,-2.4614,-2.4634,-2.4634,-2.4655,-2.4599,-2.4578,-2.4558,-2.4517,-2.442,-2.4547,-2.4732,-2.4722,-2.4654,-2.3974,-2.3121,-2.2197,-2.1456,-2.1199,-2.1198,-2.1293,-2.1525,-2.1822,-2.2008,-2.2108,-2.2234,-2.2341,-2.2453,-2.2537,-2.2738,-2.2947,-2.3067,-2.32,-2.3389,-1.5796,-1.5767,-1.614,-1.6301,-1.6301,-1.6301,-1.6301,-1.6332,-1.651,-1.6738,-1.6925,-1.7111,-1.7051,-1.6908,-1.7113,-1.6753,-1.5959,-1.5228,-1.4969,-1.4928,-1.4757,-1.4829,-1.4974,-1.4865,-1.4914,-1.5062,-1.5267,-1.5428,-1.5811,-1.6385,-1.689,-1.746,-1.8199,-1.8554,-1.869,-1.908,-1.9188,-1.9127,-1.9237,-1.9397,-1.9449,-1.9696,-1.9901,-2.0004,-2.0245,-2.0421,-2.0522,-2.0534,-2.0646,-2.0784,-2.1093,-2.1251,-2.142,-2.1684,-2.218,-2.2563,-2.2706,-2.2729,-2.2729,-2.2737,-2.2775,-2.2752,-2.2698,-2.2712,-2.2698,-2.2684,-2.2546,-2.2569,-2.2615,-2.2615,-2.2675,-2.2569,-2.2615,-2.2615,-2.2569,-2.2569,-2.2623,-2.2768,-2.3091,-2.3486,-2.3831,-2.4042,-2.4105,-2.4084,-2.4,-2.3937,-2.3858,-2.3815,-2.3773,-2.3773,-2.3758,-2.3941,-2.4092,-2.3884,-2.3778,-2.3251,-2.2605,-2.1778,-2.1191,-2.0939,-2.0877,-2.091,-2.1166,-2.1494,-2.1645,-2.1703,-2.1794,-2.1868,-2.1982,-2.2136,-2.2347,-2.2537,-2.2695,-2.2849,-2.303,-1.5059,-1.503,-1.5594,-1.5853,-1.5825,-1.5843,-1.5825,-1.5864,-1.5877,-1.6078,-1.6427,-1.6587,-1.6625,-1.6686,-1.6818,-1.6668,-1.5891,-1.5067,-1.4886,-1.4723,-1.4562,-1.4618,-1.4761,-1.4717,-1.4655,-1.4778,-1.5017,-1.5107,-1.5406,-1.5928,-1.6407,-1.6804,-1.7309,-1.7555,-1.7688,-1.813,-1.7967,-1.8049,-1.8236,-1.8494,-1.8667,-1.8948,-1.9214,-1.9253,-1.9657,-1.9888,-1.9901,-1.9927,-1.9991,-2.0156,-2.0384,-2.0572,-2.0622,-2.0795,-2.131,-2.2016,-2.2217,-2.2263,-2.224,-2.2217,-2.2147,-2.2123,-2.2194,-2.2217,-2.217,-2.203,-2.2077,-2.2194,-2.2147,-2.2077,-2.1983,-2.2123,-2.2123,-2.21,-2.21,-2.2194,-2.2231,-2.231,-2.2379,-2.2785,-2.3253,-2.3406,-2.3384,-2.3384,-2.3253,-2.3187,-2.312,-2.3165,-2.3143,-2.3231,-2.3252,-2.3422,-2.3407,-2.3107,-2.283,-2.2459,-2.1818,-2.1095,-2.0649,-2.0344,-2.0396,-2.0464,-2.0747,-2.1007,-2.1087,-2.1135,-2.1246,-2.1434,-2.1616,-2.1809,-2.1967,-2.2139,-2.2306,-2.248,-2.2682,-1.416,-1.416,-1.427,-1.427,-1.4359,-1.438,-1.433,-1.4396,-1.4739,-1.4825,-1.5111,-1.5624,-1.598,-1.6056,-1.6075,-1.5647,-1.5164,-1.5039,-1.4927,-1.4708,-1.466,-1.4702,-1.4846,-1.479,-1.4577,-1.4654,-1.4813,-1.4939,-1.5146,-1.5609,-1.5888,-1.6093,-1.6388,-1.6715,-1.666,-1.7094,-1.7505,-1.7502,-1.7855,-1.8151,-1.8301,-1.8386,-1.8519,-1.8661,-1.8756,-1.8886,-1.8977,-1.9042,-1.9054,-1.9172,-1.9526,-1.9773,-1.9952,-2.0371,-2.0635,-2.087,-2.1017,-2.1175,-2.1261,-2.1334,-2.1348,-2.1348,-2.1213,-2.1066,-2.1177,-2.1115,-2.1042,-2.082,-2.0919,-2.1017,-2.1091,-2.0944,-2.0883,-2.0981,-2.114,-2.1299,-2.1458,-2.1674,-2.1756,-2.1898,-2.23,-2.242,-2.2457,-2.2495,-2.2495,-2.2449,-2.2411,-2.2495,-2.2586,-2.2709,-2.2749,-2.2886,-2.2966,-2.2689,-2.2138,-2.1734,-2.1166,-2.0471,-2.0047,-1.9788,-1.9914,-2.0019,-2.0191,-2.0396,-2.0479,-2.068,-2.0893,-2.1103,-2.1293,-2.1495,-2.1675,-2.1809,-2.1926,-2.211,-2.2303,-1.31,-1.389,-1.3989,-1.401,-1.401,-1.401,-1.401,-1.4045,-1.4178,-1.4373,-1.468,-1.5195,-1.5693,-1.5967,-1.5893,-1.5631,-1.5296,-1.5142,-1.5051,-1.4821,-1.477,-1.4801,-1.4984,-1.4847,-1.4627,-1.4737,-1.4972,-1.5034,-1.5059,-1.4887,-1.4972,-1.5124,-1.5266,-1.5314,-1.5559,-1.5869,-1.5858,-1.5953,-1.6365,-1.6853,-1.7017,-1.7271,-1.7581,-1.7914,-1.7923,-1.81,-1.8352,-1.8491,-1.8533,-1.8694,-1.8948,-1.9028,-1.9133,-1.9331,-1.9488,-1.9604,-1.9669,-2.008,-2.066,-2.0721,-2.0734,-2.0759,-2.0709,-2.0721,-2.0684,-2.061,-2.056,-2.0635,-2.061,-2.0585,-2.056,-2.061,-2.061,-2.0585,-2.0434,-2.0635,-2.0833,-2.0883,-2.1055,-2.1202,-2.1348,-2.1516,-2.1732,-2.1983,-2.2077,-2.2109,-2.2156,-2.2287,-2.231,-2.2379,-2.2363,-2.2341,-2.2396,-2.2363,-2.1729,-2.1181,-2.0682,-2.0004,-1.9358,-1.9216,-1.9409,-1.9561,-1.9719,-1.9914,-2.0089,-2.0313,-2.0549,-2.0845,-2.1087,-2.1246,-2.1402,-2.1494,-2.1616,-2.1781,-2.1998,-1.202,-1.3208,-1.3359,-1.339,-1.3381,-1.339,-1.3351,-1.3351,-1.3519,-1.3765,-1.4226,-1.4751,-1.5465,-1.5974,-1.5851,-1.5657,-1.5534,-1.5305,-1.5138,-1.4995,-1.4914,-1.5024,-1.5158,-1.5058,-1.4959,-1.4916,-1.5381,-1.5234,-1.471,-1.4493,-1.4493,-1.4505,-1.4729,-1.4564,-1.4581,-1.5065,-1.5363,-1.5379,-1.5742,-1.6039,-1.6179,-1.6442,-1.6788,-1.7008,-1.7174,-1.7351,-1.7786,-1.7826,-1.7859,-1.8224,-1.8251,-1.8387,-1.8694,-1.8854,-1.8934,-1.9013,-1.9105,-1.9344,-1.9875,-2.0105,-2.0182,-2.0207,-2.022,-2.008,-2.0131,-2.0207,-2.0182,-2.008,-2.008,-2.0105,-2.0182,-2.0131,-2.0055,-2.0029,-2.0055,-2.0232,-2.0346,-2.0346,-2.0535,-2.0858,-2.0932,-2.0833,-2.108,-2.1444,-2.165,-2.1756,-2.1874,-2.203,-2.2077,-2.2077,-2.1988,-2.1944,-2.2103,-2.2073,-2.1549,-2.0881,-2.0274,-1.9719,-1.9075,-1.8849,-1.9195,-1.9192,-1.9184,-1.9394,-1.9651,-1.9829,-2.0019,-2.0464,-2.0876,-2.0958,-2.1055,-2.1183,-2.1324,-2.148,-2.1678,-1.1,-1.1664,-1.1671,-1.1734,-1.1764,-1.1671,-1.1734,-1.195,-1.2412,-1.2683,-1.304,-1.402,-1.4985,-1.5547,-1.5527,-1.5375,-1.5198,-1.541,-1.516,-1.5035,-1.5154,-1.5198,-1.526,-1.5276,-1.5246,-1.4996,-1.5345,-1.516,-1.4766,-1.4728,-1.4693,-1.4728,-1.4522,-1.444,-1.4476,-1.4712,-1.5222,-1.5297,-1.5525,-1.57,-1.5908,-1.6144,-1.6283,-1.6339,-1.6377,-1.6422,-1.6472,-1.6624,-1.6905,-1.7451,-1.749,-1.7749,-1.817,-1.8306,-1.8387,-1.8467,-1.8521,-1.8697,-1.8951,-1.9226,-1.9225,-1.9146,-1.9212,-1.9344,-1.937,-1.9198,-1.9146,-1.9251,-1.9344,-1.9265,-1.9212,-1.9119,-1.9291,-1.9344,-1.9474,-1.954,-1.9669,-1.9747,-1.9965,-2.0421,-2.0421,-2.0169,-2.0156,-2.0472,-2.1006,-2.114,-2.1372,-2.1492,-2.1746,-2.1775,-2.163,-2.1616,-2.1885,-2.1806,-2.1408,-2.0849,-2.0343,-1.9917,-1.9398,-1.9196,-1.923,-1.9089,-1.8817,-1.8898,-1.9132,-1.9317,-1.9467,-1.9737,-2.007,-2.0464,-2.068,-2.0779,-2.0974,-2.1182,-2.1402,-1.0009,-1.0256,-1.025,-1.0742,-1.1516,-1.1516,-1.1516,-1.154,-1.1764,-1.2138,-1.254,-1.3109,-1.3718,-1.4253,-1.4374,-1.4311,-1.4171,-1.4206,-1.4439,-1.4686,-1.4844,-1.4905,-1.4931,-1.4839,-1.4619,-1.4253,-1.4739,-1.4974,-1.429,-1.4861,-1.533,-1.5238,-1.441,-1.3882,-1.388,-1.4131,-1.4373,-1.4562,-1.4649,-1.4792,-1.4877,-1.5267,-1.5526,-1.587,-1.588,-1.6045,-1.6267,-1.6291,-1.6472,-1.6662,-1.6729,-1.7088,-1.7379,-1.7451,-1.7534,-1.7645,-1.7673,-1.7728,-1.7941,-1.8414,-1.8987,-1.9013,-1.9013,-1.8907,-1.8801,-1.8839,-1.8813,-1.8813,-1.8783,-1.8872,-1.8759,-1.8774,-1.8801,-1.8774,-1.8851,-1.9008,-1.9054,-1.92,-1.9253,-1.9657,-1.9488,-1.92,-1.9291,-1.9396,-2.0003,-2.051,-2.0759,-2.1019,-2.1251,-2.1396,-2.1251,-2.1165,-2.1394,-2.139,-2.1023,-2.069,-2.0386,-2.0007,-1.9606,-1.9265,-1.899,-1.8821,-1.862,-1.8639,-1.8639,-1.8803,-1.8921,-1.8978,-1.9336,-1.9932,-2.0193,-2.0313,-2.0564,-2.0893,-2.1103,-0.9478,-0.9478,-0.9478,-1.004,-1.0874,-1.0899,-1.0899,-1.093,-1.1118,-1.1729,-1.2482,-1.2545,-1.2875,-1.3345,-1.3528,-1.3564,-1.3614,-1.365,-1.3875,-1.4096,-1.426,-1.4314,-1.435,-1.4331,-1.4147,-1.3598,-1.4049,-1.4461,-1.4216,-1.5104,-1.5123,-1.4667,-1.4083,-1.3608,-1.3682,-1.3406,-1.3406,-1.37,-1.3801,-1.4173,-1.4352,-1.4739,-1.5051,-1.5435,-1.5485,-1.5465,-1.5663,-1.5732,-1.5988,-1.6153,-1.6289,-1.6384,-1.649,-1.6566,-1.6623,-1.6681,-1.6767,-1.6795,-1.7162,-1.759,-1.8333,-1.812,-1.8147,-1.824,-1.8414,-1.8464,-1.8391,-1.8568,-1.8655,-1.8717,-1.862,-1.8857,-1.8846,-1.8915,-1.8955,-1.9064,-1.8804,-1.8815,-1.8762,-1.8842,-1.8682,-1.8747,-1.8801,-1.8987,-1.9384,-1.9927,-2.0232,-2.0535,-2.0833,-2.0908,-2.0818,-2.0752,-2.0781,-2.0746,-2.0607,-2.0481,-2.0322,-1.9884,-1.9459,-1.8865,-1.8581,-1.8412,-1.8309,-1.8254,-1.8254,-1.8361,-1.8523,-1.8702,-1.9091,-1.9558,-1.9776,-2.0004,-2.0345,-2.0663,-2.0795,-0.9478,-0.9478,-0.9478,-0.9542,-0.967,-0.9574,-0.9638,-0.9824,-1.0308,-1.1173,-1.2133,-1.2265,-1.2645,-1.3136,-1.3055,-1.3091,-1.3127,-1.32,-1.339,-1.3462,-1.3564,-1.3673,-1.3738,-1.3715,-1.3548,-1.3888,-1.396,-1.4001,-1.4075,-1.4233,-1.4159,-1.4134,-1.3802,-1.3663,-1.4273,-1.3652,-1.3698,-1.4255,-1.4006,-1.4375,-1.4744,-1.5016,-1.5224,-1.5273,-1.5322,-1.5277,-1.5242,-1.5383,-1.5661,-1.5934,-1.5995,-1.6227,-1.6647,-1.6726,-1.6845,-1.7023,-1.7111,-1.7189,-1.7305,-1.6959,-1.6913,-1.709,-1.7274,-1.7302,-1.76,-1.7728,-1.7762,-1.7879,-1.8453,-1.8617,-1.8851,-1.9034,-1.8884,-1.8797,-1.8788,-1.8748,-1.8452,-1.8194,-1.8118,-1.8017,-1.8309,-1.8533,-1.8533,-1.864,-1.8936,-1.9331,-1.9695,-2.0003,-2.0245,-2.0295,-2.0169,-2.0156,-2.0131,-2.0118,-2.0093,-2.0346,-2.0224,-1.9786,-1.9307,-1.8771,-1.8257,-1.8009,-1.7894,-1.7842,-1.7875,-1.7935,-1.8208,-1.8517,-1.886,-1.9188,-1.9543,-1.9829,-2.0156,-2.0359,-2.041,-0.9478,-0.9478,-0.9478,-0.9478,-0.9478,-0.9478,-0.9484,-0.9542,-0.9791,-1.0224,-1.0715,-1.0936,-1.1226,-1.1598,-1.1918,-1.2033,-1.1996,-1.1959,-1.2033,-1.2703,-1.2769,-1.2769,-1.2799,-1.2792,-1.2638,-1.2418,-1.2602,-1.307,-1.3121,-1.3387,-1.3808,-1.3901,-1.3527,-1.3672,-1.368,-1.343,-1.3562,-1.3813,-1.4104,-1.453,-1.4795,-1.5159,-1.5423,-1.5392,-1.5392,-1.5269,-1.5074,-1.5237,-1.5532,-1.5754,-1.5817,-1.6037,-1.6287,-1.6309,-1.6278,-1.634,-1.6299,-1.6123,-1.5959,-1.573,-1.6018,-1.636,-1.6606,-1.6655,-1.6905,-1.6905,-1.6938,-1.7112,-1.7683,-1.769,-1.7597,-1.7922,-1.7929,-1.792,-1.7913,-1.7933,-1.7743,-1.7501,-1.7312,-1.7176,-1.7298,-1.7345,-1.7352,-1.7694,-1.8054,-1.8271,-1.8566,-1.8989,-1.9305,-1.941,-1.9384,-1.9396,-1.9396,-1.9462,-1.9566,-1.9798,-1.9725,-1.9267,-1.9008,-1.8708,-1.8238,-1.7661,-1.753,-1.747,-1.7487,-1.7529,-1.7875,-1.8208,-1.8484,-1.8803,-1.9132,-1.9321,-1.95,-1.9675,-1.9797,-0.8765,-0.8759,-0.8759,-0.8809,-0.8941,-0.9421,-0.9697,-0.9769,-0.9793,-0.9931,-1.0224,-1.0405,-1.0658,-1.0894,-1.1021,-1.1117,-1.1117,-1.1155,-1.1223,-1.1855,-1.1892,-1.1892,-1.1892,-1.1892,-1.1737,-1.1403,-1.1657,-1.2094,-1.2204,-1.2785,-1.2983,-1.2991,-1.3093,-1.2827,-1.2878,-1.3048,-1.3416,-1.3597,-1.3852,-1.4139,-1.4421,-1.4721,-1.5028,-1.5028,-1.5011,-1.4959,-1.5029,-1.5227,-1.554,-1.5573,-1.5704,-1.5844,-1.5876,-1.5876,-1.5909,-1.5909,-1.5881,-1.573,-1.5518,-1.5438,-1.5827,-1.6188,-1.6215,-1.622,-1.6228,-1.6224,-1.6217,-1.6361,-1.6735,-1.6869,-1.6941,-1.7285,-1.7696,-1.7716,-1.7635,-1.7656,-1.7451,-1.7224,-1.6955,-1.6773,-1.6554,-1.6436,-1.634,-1.6652,-1.7062,-1.723,-1.7407,-1.7859,-1.8344,-1.8575,-1.8762,-1.8854,-1.8934,-1.9066,-1.9146,-1.9225,-1.9062,-1.8721,-1.8623,-1.8559,-1.7773,-1.7122,-1.7124,-1.7106,-1.708,-1.7162,-1.7529,-1.7855,-1.8184,-1.8408,-1.8611,-1.8765,-1.8841,-1.9064,-1.9302,-0.7438,-0.7405,-0.7433,-0.7593,-0.7952,-0.9153,-0.9866,-1.0164,-1.0129,-1.0248,-1.0563,-1.0468,-1.0677,-1.0984,-1.1099,-1.1117,-1.1117,-1.1117,-1.1149,-1.1186,-1.1335,-1.126,-1.1223,-1.1223,-1.1223,-1.1149,-1.126,-1.1515,-1.144,-1.1731,-1.1842,-1.1848,-1.1981,-1.1945,-1.222,-1.2606,-1.3029,-1.3138,-1.3434,-1.3721,-1.4019,-1.4212,-1.4419,-1.4453,-1.4445,-1.4281,-1.436,-1.4672,-1.5044,-1.5368,-1.5707,-1.6019,-1.6163,-1.623,-1.623,-1.6187,-1.6087,-1.568,-1.5432,-1.5287,-1.5366,-1.546,-1.5268,-1.5464,-1.5657,-1.5654,-1.5595,-1.6008,-1.6494,-1.6617,-1.6768,-1.7471,-1.8102,-1.7991,-1.7819,-1.7658,-1.7405,-1.7153,-1.685,-1.6607,-1.6319,-1.6144,-1.596,-1.6112,-1.6255,-1.6169,-1.6368,-1.6782,-1.7296,-1.7957,-1.8186,-1.8533,-1.8625,-1.8786,-1.8839,-1.8854,-1.8852,-1.8661,-1.8514,-1.8347,-1.746,-1.6926,-1.7032,-1.7025,-1.6726,-1.6837,-1.7328,-1.7665,-1.7922,-1.8119,-1.8279,-1.854,-1.8729,-1.8774,-1.8969,-0.7757,-0.7748,-0.7753,-0.779,-0.7925,-0.8487,-0.873,-0.8604,-0.8599,-0.8932,-0.9591,-0.9769,-1.0174,-1.0809,-1.1021,-1.1056,-1.108,-1.1117,-1.1117,-1.1117,-1.1117,-1.1117,-1.1117,-1.1117,-1.1117,-1.1117,-1.1111,-1.1149,-1.1186,-1.1186,-1.1186,-1.1292,-1.1446,-1.1484,-1.168,-1.1959,-1.2233,-1.2571,-1.2941,-1.3262,-1.3663,-1.395,-1.41,-1.4163,-1.4163,-1.4011,-1.4202,-1.4393,-1.4744,-1.4866,-1.4979,-1.5093,-1.5093,-1.5093,-1.5085,-1.5025,-1.4825,-1.4551,-1.4511,-1.452,-1.4588,-1.4681,-1.4472,-1.4757,-1.5015,-1.5055,-1.4953,-1.5389,-1.5829,-1.5895,-1.6272,-1.6954,-1.7499,-1.7538,-1.7431,-1.7334,-1.7102,-1.686,-1.6583,-1.6132,-1.5851,-1.5576,-1.542,-1.5526,-1.5604,-1.5362,-1.5391,-1.5806,-1.633,-1.7006,-1.7534,-1.7886,-1.8034,-1.8088,-1.8452,-1.8548,-1.8635,-1.866,-1.8453,-1.8289,-1.7965,-1.7521,-1.7255,-1.7034,-1.6909,-1.6965,-1.7235,-1.76,-1.8026,-1.7887,-1.8002,-1.8329,-1.8599,-1.8674,-1.8758,-0.7074,-0.7038,-0.7074,-0.708,-0.7179,-0.7422,-0.743,-0.7384,-0.7915,-0.8539,-0.8953,-0.9117,-0.9432,-0.9807,-1.0002,-1.0244,-1.0588,-1.0594,-1.0706,-1.1117,-1.0999,-1.1117,-1.1117,-1.1037,-1.1117,-1.108,-1.108,-1.1111,-1.1037,-1.108,-1.1111,-1.1143,-1.1298,-1.1372,-1.1502,-1.1705,-1.1866,-1.2148,-1.2448,-1.2725,-1.3127,-1.3455,-1.36,-1.3774,-1.3745,-1.3781,-1.381,-1.3918,-1.4171,-1.4286,-1.4322,-1.4601,-1.4629,-1.4629,-1.4629,-1.466,-1.4556,-1.4436,-1.4396,-1.4361,-1.4264,-1.419,-1.4033,-1.4251,-1.4253,-1.421,-1.4193,-1.4386,-1.4716,-1.5075,-1.567,-1.6204,-1.6555,-1.689,-1.6925,-1.6925,-1.6722,-1.6511,-1.6075,-1.5568,-1.5235,-1.4934,-1.4852,-1.499,-1.502,-1.4882,-1.4852,-1.502,-1.5546,-1.6226,-1.6726,-1.7129,-1.724,-1.7324,-1.771,-1.8023,-1.8015,-1.8101,-1.8224,-1.8122,-1.8116,-1.7998,-1.764,-1.7364,-1.7179,-1.7294,-1.741,-1.7871,-1.8231,-1.8028,-1.7974,-1.8414,-1.8637,-1.8599,-1.8713,-0.588,-0.5883,-0.5837,-0.6042,-0.6061,-0.6308,-0.636,-0.6451,-0.7753,-0.8537,-0.8523,-0.8575,-0.8675,-0.9002,-0.9074,-0.9344,-0.9647,-0.9803,-1.0067,-1.0887,-1.055,-1.0513,-1.0582,-1.085,-1.0475,-1.0738,-1.0775,-1.0438,-1.0732,-1.0619,-1.0513,-1.0919,-1.0919,-1.0881,-1.0838,-1.1031,-1.1143,-1.1292,-1.1663,-1.1996,-1.2181,-1.2298,-1.2305,-1.2415,-1.2452,-1.2452,-1.2592,-1.2915,-1.3426,-1.3637,-1.389,-1.4207,-1.4207,-1.4171,-1.4207,-1.4199,-1.4009,-1.3966,-1.3907,-1.3899,-1.4037,-1.4032,-1.4077,-1.3762,-1.3537,-1.3639,-1.368,-1.3909,-1.4288,-1.4655,-1.5162,-1.5504,-1.5781,-1.6009,-1.6079,-1.6079,-1.5992,-1.5919,-1.5915,-1.5478,-1.5219,-1.493,-1.4791,-1.4932,-1.4793,-1.4565,-1.4536,-1.4595,-1.4813,-1.5459,-1.5882,-1.6301,-1.6454,-1.6557,-1.6866,-1.7118,-1.7213,-1.7379,-1.7639,-1.7741,-1.7581,-1.7722,-1.7948,-1.7808,-1.7701,-1.7557,-1.7666,-1.8166,-1.8371,-1.803,-1.8126,-1.8583,-1.8692,-1.859,-1.8831,-0.619,-0.619,-0.6187,-0.6214,-0.6245,-0.6282,-0.63,-0.63,-0.6683,-0.7253,-0.771,-0.7825,-0.8093,-0.8475,-0.8475,-0.8703,-0.8894,-0.897,-0.9122,-0.9382,-0.9458,-0.9647,-0.9377,-0.9571,-0.942,-0.9268,-0.9268,-0.9458,-0.9533,-0.9458,-0.9344,-0.9377,-0.9636,-0.9825,-0.9825,-1.0013,-1.0201,-1.0389,-1.0844,-1.1403,-1.1885,-1.215,-1.2305,-1.2305,-1.2305,-1.2305,-1.2378,-1.2452,-1.2629,-1.2696,-1.2739,-1.2842,-1.2835,-1.2879,-1.2879,-1.2835,-1.3018,-1.3098,-1.3098,-1.3127,-1.3135,-1.2989,-1.2875,-1.2751,-1.2785,-1.3093,-1.3377,-1.3661,-1.391,-1.4223,-1.4547,-1.4798,-1.5002,-1.5144,-1.5278,-1.5278,-1.5278,-1.5411,-1.5585,-1.5408,-1.5165,-1.4932,-1.4778,-1.4635,-1.4549,-1.4485,-1.4485,-1.4476,-1.4378,-1.4706,-1.4991,-1.5362,-1.5633,-1.5806,-1.6083,-1.6273,-1.6368,-1.6567,-1.6821,-1.692,-1.7033,-1.7256,-1.754,-1.8161,-1.8295,-1.8042,-1.8032,-1.8523,-1.8567,-1.8228,-1.8277,-1.873,-1.8708,-1.8594,-1.899,-0.63,-0.63,-0.63,-0.63,-0.63,-0.63,-0.63,-0.63,-0.63,-0.6528,-0.6911,-0.6988,-0.7253,-0.7633,-0.7633,-0.7978,-0.8093,-0.8169,-0.8513,-0.8627,-0.8589,-0.878,-0.8703,-0.8589,-0.8818,-0.8703,-0.8703,-0.878,-0.8589,-0.8742,-0.878,-0.8661,-0.8813,-0.8922,-0.896,-0.915,-0.9258,-0.9485,-1.0019,-1.0614,-1.1397,-1.1774,-1.2231,-1.2305,-1.2268,-1.2268,-1.2305,-1.2305,-1.2305,-1.2305,-1.2415,-1.2415,-1.2445,-1.2452,-1.2378,-1.2378,-1.2378,-1.2305,-1.2268,-1.2194,-1.2194,-1.2157,-1.2231,-1.2368,-1.2435,-1.272,-1.2741,-1.2949,-1.279,-1.3039,-1.3752,-1.4127,-1.4502,-1.4708,-1.4816,-1.4887,-1.479,-1.477,-1.4813,-1.4689,-1.4351,-1.391,-1.3709,-1.3529,-1.3463,-1.342,-1.358,-1.3735,-1.3726,-1.3881,-1.4163,-1.443,-1.4697,-1.4951,-1.5216,-1.5381,-1.5555,-1.5777,-1.6054,-1.6373,-1.6665,-1.6841,-1.7173,-1.7721,-1.8154,-1.8295,-1.8407,-1.8682,-1.8828,-1.8611,-1.8664,-1.8866,-1.8759,-1.8671,-1.906,-0.63,-0.63,-0.63,-0.63,-0.63,-0.63,-0.63,-0.63,-0.63,-0.63,-0.6374,-0.6374,-0.63,-0.63,-0.6338,-0.6837,-0.718,-0.7334,-0.7791,-0.8055,-0.8165,-0.7978,-0.8016,-0.8208,-0.8093,-0.8093,-0.8093,-0.8131,-0.8093,-0.8093,-0.8093,-0.8399,-0.8585,-0.8656,-0.877,-0.8841,-0.8841,-0.8955,-0.9258,-0.9523,-1.0308,-1.1136,-1.1589,-1.1885,-1.2003,-1.2003,-1.1966,-1.1966,-1.1966,-1.1892,-1.1744,-1.17,-1.1663,-1.1626,-1.17,-1.1663,-1.1626,-1.1657,-1.1774,-1.1663,-1.1737,-1.1855,-1.2003,-1.2033,-1.2027,-1.2131,-1.2154,-1.2221,-1.2047,-1.2291,-1.2998,-1.3462,-1.3818,-1.4063,-1.4171,-1.435,-1.4218,-1.4136,-1.4085,-1.4052,-1.3751,-1.3259,-1.306,-1.2838,-1.2663,-1.2577,-1.2553,-1.2553,-1.2707,-1.3003,-1.3312,-1.3524,-1.3765,-1.4022,-1.4467,-1.4734,-1.4961,-1.5108,-1.5439,-1.5882,-1.6242,-1.6336,-1.665,-1.7247,-1.7627,-1.7804,-1.8216,-1.8513,-1.8638,-1.8749,-1.8897,-1.8929,-1.8943,-1.8913,-1.9136,-0.63,-0.63,-0.63,-0.63,-0.63,-0.63,-0.63,-0.63,-0.63,-0.63,-0.63,-0.63,-0.63,-0.63,-0.63,-0.649,-0.6644,-0.6683,-0.6567,-0.6718,-0.7061,-0.6911,-0.6911,-0.7215,-0.6876,-0.6911,-0.7022,-0.6834,-0.7215,-0.7026,-0.6834,-0.6949,-0.7061,-0.7134,-0.7173,-0.7365,-0.7668,-0.7974,-0.8385,-0.8689,-0.9074,-0.975,-1.0196,-1.0346,-1.0346,-1.0346,-1.0346,-1.0346,-1.0346,-1.0346,-1.0496,-1.0533,-1.0608,-1.064,-1.0683,-1.0757,-1.0714,-1.0677,-1.0752,-1.0757,-1.0795,-1.072,-1.0795,-1.0944,-1.1056,-1.1285,-1.1502,-1.199,-1.1952,-1.2062,-1.2586,-1.2666,-1.2915,-1.2915,-1.2989,-1.3353,-1.3469,-1.3591,-1.3697,-1.3775,-1.3805,-1.3541,-1.3432,-1.3165,-1.286,-1.2767,-1.2638,-1.2622,-1.2504,-1.2531,-1.2514,-1.2737,-1.2946,-1.3601,-1.4258,-1.4348,-1.4556,-1.4645,-1.4823,-1.5245,-1.5546,-1.5699,-1.6073,-1.6595,-1.6961,-1.7169,-1.7589,-1.8116,-1.8467,-1.862,-1.8871,-1.9004,-1.9013,-1.904,-1.9172]},{"header":{"parameterUnit":"m.s-1","parameterCategory":1,"la1":31.0,"la2":29.5877,"lo1":-88.7671,"lo2":-86.6584,"dy":0.0162,"dx":0.0185,"nx":115,"ny":88,"refTime":"2024-06-14T00:00:00:Z","depth":0,"parameterNumber":3,"parameterNumberName":"V-component_of_WINDS"},"data":[0.0,0.0,0.0,0.0,0.0,0.0,0.0,0.0,0.0,0.0,0.0,0.0,0.0,0.0,0.0,0.0,0.0,0.0,0.0,0.0,0.0,0.0,0.0,0.0,0.0,0.0,0.0,0.0,0.0,0.0,0.0,0.0,0.0,0.0,0.0,0.0,0.0,0.0,0.0,0.0,0.0,0.0,0.0,0.0,0.0,0.0,0.0,0.0,0.0,0.0,0.0,0.0,0.0,0.0,0.0,0.0,0.0,0.0,0.0,0.0,0.0,0.0,0.0,0.0,0.0,0.0,0.0,0.0,0.0,0.0,0.0,0.0,0.0,0.0,0.0,0.0,0.0,0.0,0.0,0.0,0.0,0.0,0.0,0.0,0.0,0.0,0.0,0.0,0.0,0.0,0.0,0.0,0.0,0.0,0.0,0.0,0.0,0.0,0.0,0.0,0.0,0.0,0.0,0.0,0.0,0.0,0.0,0.0,0.0,0.0,0.0,0.0,0.0,0.0,0.0,0.0,0.0,0.0,0.0,0.0,0.0,0.0,0.0,0.0,0.0,0.0,0.0,0.0,0.0,0.0,0.0,0.0,0.0,0.0,0.0,0.0,0.0,0.0,0.0,0.0,0.0,0.0,0.0,0.0,0.0,0.0,0.0,0.0,0.0,0.0,0.0,0.0,0.0,0.0,0.0,0.0,0.0,0.0,0.0,0.0,0.0,0.0,0.0,0.0,0.0,0.0,0.0,0.0,0.0,0.0,0.0,0.0,0.0,0.0,0.0,0.0,0.0,0.0,0.0,0.0,0.0,0.0,0.0,0.0,0.0,0.0,0.0,0.0,0.0,0.0,0.0,0.0,0.0,0.0,0.0,0.0,0.0,0.0,0.0,0.0,0.0,0.0,0.0,0.0,0.0,0.0,0.0,0.0,0.0,0.0,0.0,0.0,0.0,0.0,0.0,0.0,0.0,0.0,0.0,0.0,0.0,0.0,0.0,0.0,0.0,0.0,0.0,0.0,0.0,0.0,0.0,0.0,0.0,0.0,0.0,0.0,0.0,0.0,0.0,0.0,0.0,0.0,0.0,0.0,0.0,0.0,0.0,0.0,0.0,0.0,0.0,0.0,0.0,0.0,0.0,0.0,0.0,0.0,0.0,0.0,0.0,0.0,0.0,0.0,0.0,0.0,0.0,0.0,0.0,0.0,0.0,0.0,0.0,0.0,0.0,0.0,0.0,0.0,0.0,0.0,0.0,0.0,0.0,0.0,0.0,0.0,0.0,0.0,0.0,0.0,0.0,0.0,0.0,0.0,0.0,0.0,0.0,0.0,0.0,0.0,0.0,0.0,0.0,0.0,0.0,0.0,0.0,0.0,0.0,0.0,0.0,0.0,0.0,0.0,0.0,0.0,0.0,0.0,0.0,0.0,0.0,0.0,0.0,0.0,0.0,0.0,0.0,0.0,0.0,0.0,0.0,0.0,0.0,0.0,0.0,0.0,0.0,0.0,0.0,0.0,0.0,0.0,0.0,0.0,0.0,0.0,0.0,0.0,0.0,0.0,0.0,0.0,0.0,0.0,0.0,0.0,0.0,0.0,0.0,0.0,0.0,0.0,0.0,0.0,0.0,0.0,0.0,0.0,0.0,0.0,0.0,0.0,0.0,0.0,0.0,0.0,0.0,0.0,0.0,0.0,0.0,0.0,0.0,0.0,0.0,0.0,0.0,0.0,0.0,0.0,0.0,0.0,0.0,0.0,0.0,0.0,0.0,0.0,0.0,0.0,0.0,0.0,0.0,0.0,0.0,0.0,0.0,0.0,0.0,0.0,0.0,0.0,0.0,0.0,0.0,0.0,0.0,0.0,0.0,0.0,0.0,0.0,0.0,0.0,0.0,0.0,0.0,0.0,0.0,0.0,0.0,0.0,0.0,0.0,0.0,0.0,0.0,0.0,0.0,0.0,0.0,0.0,0.0,0.0,0.0,0.0,0.0,0.0,0.0,0.0,0.0,0.0,0.0,0.0,0.0,0.0,0.0,0.0,0.0,0.0,0.0,0.0,0.0,0.0,0.0,0.0,0.0,0.0,0.0,0.0,0.0,0.0,0.0,0.0,0.0,0.0,0.0,0.0,0.0,0.0,0.0,0.0,0.0,0.0,0.0,0.0,0.0,0.0,0.0,0.0,0.0,0.0,0.0,0.0,0.0,0.0,0.0,0.0,0.0,0.0,0.0,0.0,0.0,0.0,0.0,0.0,0.0,0.0,0.0,0.0,0.0,0.0,0.0,0.0,0.0,0.0,0.0,0.0,0.0,0.0,0.0,0.0,0.0,0.0,0.0,0.0,0.0,0.0,0.0,0.0,0.0,0.0,0.0,0.0,0.0,0.0,0.0,0.0,0.0,0.0,0.0,0.0,0.0,0.0,0.0,0.0,0.0,0.0,0.0,0.0,0.0,0.0,0.0,0.0,0.0,0.0,0.0,0.0,0.0,0.0,0.0,0.0,0.0,0.0,0.0,0.0,0.0,0.0,0.0,0.0,0.0,0.0,0.0,0.0,0.0,0.0,0.0,0.0,0.0,0.0,0.0,0.0,0.0,0.0,0.0,0.0,0.0,0.0,0.0,0.0,0.0,0.0,0.0,0.0,0.0,0.0,0.0,0.0,0.0,0.0,0.0,0.0,0.0,0.0,0.0,0.0,0.0,0.0,0.0,0.0,0.0,0.0,0.0,0.0,0.0,0.0,0.0,0.0,0.0,0.0,0.0,0.0,0.0,0.0,0.0,0.0,0.0,0.0,0.0,0.0,0.0,0.0,0.0,0.0,0.0,0.0,0.0,0.0,0.0,0.0,0.0,0.0,0.0,0.0,0.0,0.0,0.0,0.0,0.0,0.0,0.0,0.0,0.0,0.0,0.0,0.0,0.0,0.0,0.0,0.0,0.0,0.0,0.0,0.0,0.0,0.0,0.0,0.0,0.0,0.0,0.0,0.0,0.0,0.0,0.0,0.0,0.0,0.0,0.0,0.0,0.0,0.0,0.0,0.0,0.0,0.0,0.0,0.0,0.0,0.0,0.0,0.0,0.0,0.0,0.0,0.0,0.0,0.0,0.0,0.0,0.0,0.0,0.0,0.0,0.0,0.0,0.0,0.0,0.0,0.0,0.0,0.0,0.0,0.0,0.0,0.0,0.0,0.0,0.0,0.0,0.0,0.0,0.0,0.0,0.0,0.0,0.0,0.0,0.0,0.0,0.0,0.0,0.0,0.0,0.0,0.0,0.0,0.0,0.0,0.0,0.0,0.0,0.0,0.0,0.0,0.0,0.0,0.0,0.0,0.0,0.0,0.0,0.0,0.0,0.0,0.0,0.0,0.0,0.0,0.0,0.0,0.0,0.0,0.0,0.0,0.0,0.0,0.0,0.0,0.0,0.0,0.0,0.0,0.0,0.0,0.0,0.0,0.0,0.0,0.0,0.0,0.0,0.0,0.0,0.0,0.0,0.0,0.0,0.0,0.0,0.0,0.0,0.0,0.0,0.0,0.0,0.0,0.0,0.0,0.0,0.0,0.0,0.0,0.0,0.0,0.0,0.0,0.0,0.0,0.0,0.0,0.0,0.0,0.0,0.0,0.0,0.0,0.0,0.0,0.0,0.0,0.0,0.0,0.0,0.0,0.0,0.0,0.0,0.0,0.0,0.0,0.0,0.0,0.0,0.0,0.0,0.0,0.0,0.0,0.0,0.0,0.0,0.0,0.0,0.0,0.0,0.0,0.0,0.0,0.0,0.0,0.0,0.0,0.0,0.0,0.0,0.0,0.0,0.0,0.0,0.0,0.0,0.0,0.0,0.0,0.0,0.0,0.0,0.0,0.0,0.0,0.0,0.0,0.0,0.0,0.0,0.0,0.0,0.0,0.0,0.0,0.0,0.0,0.0,0.0,0.0,0.0,0.0,0.0,0.0,0.0,0.0,0.0,0.0,0.0,0.0,0.0,0.0,0.0,0.0,0.0,0.0,0.0,0.0,0.0,0.0,0.0,0.0,0.0,0.0,0.0,0.0,0.0,0.0,0.0,0.0,0.0,0.0,0.0,0.0,0.0,0.0,0.0,0.0,0.0,0.0,0.0,0.0,0.0,0.0,0.0,0.0,0.0,0.0,0.0,0.0,0.0,0.0,0.0,0.0,0.0,0.0,0.0,0.0,0.0,0.0,0.0,0.0,0.0,0.0,0.0,0.0,0.0,0.0,0.0,0.0,0.0,0.0,0.0,0.0,0.0,0.0,0.0,0.0,0.0,0.0,1.4806,0.0,0.0,0.0,0.0,0.0,0.0,0.0,0.0,0.0,0.0,0.0,0.0,0.0,0.0,0.0,0.0,0.0,0.0,0.0,0.0,0.0,0.0,0.0,0.0,0.0,0.0,0.0,0.0,0.0,0.0,0.0,0.0,0.0,0.0,0.0,0.0,0.0,0.0,0.0,0.0,0.0,0.0,0.0,0.0,0.0,0.0,0.0,0.0,0.0,0.0,0.0,0.0,0.0,0.0,0.0,0.0,0.0,0.0,0.0,0.0,0.0,0.0,0.0,0.0,0.0,0.0,0.0,0.0,0.0,0.0,0.0,0.0,0.0,0.0,0.0,0.0,0.0,0.0,0.0,0.0,0.0,0.0,0.0,0.0,0.0,0.0,0.0,0.0,0.0,0.0,0.0,0.0,0.0,0.0,0.0,0.0,0.0,0.0,0.0,0.0,0.0,0.0,0.0,0.0,0.0,0.0,0.0,0.0,0.0,0.0,1.6853,1.6462,1.52,1.4191,1.3432,0.0,0.0,0.0,0.0,0.0,0.0,0.0,0.0,0.0,0.0,0.0,0.0,0.0,0.0,0.0,0.0,0.0,0.0,0.0,0.0,0.0,0.0,0.0,0.0,0.0,0.0,0.0,0.0,0.0,0.0,0.0,0.0,0.0,0.0,0.0,0.0,0.0,0.0,0.0,0.0,0.0,0.0,0.0,0.0,0.0,0.0,0.0,0.0,0.0,0.0,0.0,0.0,0.0,0.0,0.0,0.0,0.0,0.0,0.0,0.0,0.0,0.0,0.0,0.0,0.0,0.0,0.0,0.0,0.0,0.0,0.0,0.0,0.0,0.0,0.0,0.0,0.0,0.0,0.0,0.0,0.0,0.0,0.0,0.0,0.0,0.0,0.0,0.0,0.0,0.0,0.0,0.0,0.0,0.0,0.0,0.0,0.0,0.0,0.0,0.0,0.0,0.0,0.0,0.0,0.0,0.0,0.0,0.0,0.0,0.0,0.0,0.0,1.4025,1.3062,1.2073,0.0,0.0,0.0,0.0,0.0,0.0,0.0,0.0,0.0,0.0,0.0,0.0,0.0,0.0,0.0,0.0,0.0,0.0,0.0,0.0,0.0,0.0,0.0,0.0,0.0,0.0,0.0,0.0,0.0,0.0,0.0,0.0,0.0,0.0,0.0,0.0,0.0,0.0,0.0,0.0,0.0,0.0,0.0,0.0,0.0,0.0,0.0,0.0,0.0,0.0,0.0,0.0,0.0,0.0,0.0,0.0,0.0,0.0,0.0,0.0,0.0,0.0,0.0,0.0,0.0,0.0,0.0,0.0,0.0,0.0,0.0,0.0,0.0,0.0,0.0,0.0,0.0,0.0,0.0,0.0,0.0,0.0,0.0,0.0,0.0,0.0,0.0,0.0,0.0,0.0,0.0,0.0,0.0,0.0,0.0,0.0,0.0,0.0,0.0,0.0,0.0,0.0,0.0,0.0,0.0,0.0,0.0,0.0,0.0,0.0,1.3429,1.3212,1.2047,0.0,1.0966,0.0,0.0,0.0,0.0,0.0,0.0,0.0,0.0,0.0,0.0,0.0,0.0,0.0,0.0,0.0,0.0,0.0,0.0,0.0,0.0,0.0,0.0,0.0,0.0,0.0,0.0,0.0,0.0,0.0,0.0,0.0,0.0,0.0,0.0,0.0,0.0,0.0,0.0,0.0,0.0,0.0,0.0,0.0,0.0,0.0,0.0,0.0,0.0,0.0,0.0,0.0,0.0,0.0,0.0,0.0,0.0,0.0,0.0,0.0,0.0,0.0,0.0,0.0,0.0,0.0,0.0,0.0,0.0,0.0,0.0,0.0,0.0,0.0,0.0,0.0,0.0,0.0,0.0,0.0,0.0,0.0,0.0,0.0,0.0,0.0,0.0,0.0,0.0,0.0,0.0,0.0,0.0,0.0,0.0,0.0,0.0,0.0,0.0,0.0,0.0,0.0,0.0,0.0,0.0,0.0,0.0,0.0,0.0,0.0,0.0,1.2186,1.1824,1.0202,0.9526,0.0,0.0,0.0,0.0,0.0,0.0,0.0,0.0,0.0,0.0,0.0,0.0,0.0,0.0,0.0,0.0,0.0,0.0,0.0,0.0,0.0,0.0,0.0,0.0,0.0,0.0,0.0,0.0,0.0,0.0,0.0,0.0,0.0,0.0,0.0,0.0,0.0,0.0,0.0,0.0,0.0,0.0,0.0,0.0,0.0,0.0,0.0,0.0,0.0,0.0,0.0,0.0,0.0,0.0,0.0,0.0,0.0,0.0,0.0,0.0,0.0,0.0,0.0,0.0,0.0,0.0,0.0,0.0,0.0,0.0,0.0,0.0,0.0,0.0,0.0,0.0,0.0,0.0,0.0,0.0,0.0,0.0,0.0,0.0,0.0,0.0,0.0,0.0,0.0,0.0,0.0,0.0,0.0,0.0,0.0,0.0,0.0,0.0,0.0,0.0,0.0,0.0,0.0,0.0,0.0,0.0,0.0,0.0,0.0,0.0,1.2266,0.0,1.0036,0.8776,0.8287,0.8684,0.0,0.0,0.0,0.0,0.0,0.0,0.0,0.0,0.0,0.0,0.0,0.0,0.0,0.0,0.0,0.0,0.0,0.0,0.0,0.0,0.0,0.0,0.0,0.0,0.0,0.0,0.0,0.0,0.0,0.0,0.0,0.0,0.0,0.0,0.0,0.0,0.0,0.0,0.0,0.0,0.0,0.0,0.0,0.0,0.0,0.0,0.0,0.0,0.0,0.0,0.0,0.0,0.0,0.0,0.0,0.0,0.0,0.0,0.0,0.0,0.0,0.0,0.0,0.0,0.0,0.0,0.0,0.0,0.0,0.0,0.0,0.0,0.0,0.0,0.0,0.0,0.0,0.0,0.0,0.0,0.0,0.0,0.0,0.0,0.0,0.0,0.0,0.0,0.0,0.0,0.0,0.0,0.0,0.0,0.0,0.0,0.0,0.0,0.0,0.0,0.0,0.0,0.0,0.0,0.0,0.0,0.0,0.0,0.0,1.0926,0.9101,0.777,0.7943,0.7827,0.0,0.0,0.0,0.0,0.0,0.0,0.0,0.0,0.0,0.0,0.0,0.0,0.0,0.0,0.0,0.0,0.0,0.0,0.0,0.0,0.0,0.0,0.0,0.0,0.0,0.0,0.0,0.0,0.0,0.0,0.0,0.0,0.0,0.0,0.0,0.0,0.0,0.0,0.0,0.0,0.0,0.0,0.0,0.0,0.0,0.0,0.0,0.0,0.0,0.0,0.0,0.0,0.0,0.0,0.0,0.0,0.0,0.0,0.0,0.0,0.0,0.0,0.0,0.0,0.0,0.0,0.0,0.0,0.0,0.0,0.0,0.0,0.0,0.0,0.0,0.0,0.0,0.0,0.0,0.0,0.0,0.0,0.0,0.0,0.0,0.0,0.0,0.0,0.0,0.0,0.0,0.0,0.0,0.0,0.0,0.0,0.0,0.0,0.0,0.0,0.0,0.0,0.0,0.0,0.0,0.0,0.0,0.0,0.0,1.1898,0.9872,0.8325,0.7276,0.6604,0.6279,0.0,0.0,0.0,0.0,0.0,0.0,0.0,0.0,0.0,0.0,0.0,0.0,0.0,0.0,0.0,0.0,0.0,0.0,0.0,0.0,0.0,0.0,0.0,0.0,0.0,0.0,0.0,0.0,0.0,0.0,0.0,0.0,0.0,0.0,0.0,0.0,0.0,0.0,0.0,0.0,0.0,0.0,0.0,0.0,0.0,0.0,0.0,0.0,0.0,0.0,0.0,0.0,0.0,0.0,0.0,0.0,0.0,0.0,0.0,0.0,0.0,0.0,0.0,0.0,0.0,0.0,0.0,0.0,0.0,0.0,0.0,0.0,0.0,0.0,0.0,0.0,0.0,0.0,0.0,0.0,0.0,0.0,0.0,0.0,0.0,0.0,0.0,0.0,0.0,0.0,0.0,0.0,0.0,0.0,0.0,0.0,0.0,0.0,0.0,0.0,0.0,0.0,0.0,0.0,0.0,0.0,0.0,0.0,0.0,1.0192,0.0,0.726,0.0,0.5513,0.5056,0.0,0.0,0.0,0.0,0.0,0.0,0.0,0.0,0.0,0.0,0.0,0.0,0.0,0.0,0.0,0.0,0.0,0.0,0.0,0.0,0.0,0.0,0.0,0.0,0.0,0.0,0.0,0.0,0.0,0.0,0.0,0.0,0.0,0.0,0.0,0.0,0.0,0.0,0.0,0.0,0.0,0.0,0.0,0.0,0.0,0.0,0.0,0.0,0.0,0.0,0.0,0.0,0.0,0.0,0.0,0.0,0.0,0.0,0.0,0.0,0.0,0.0,0.0,0.0,0.0,0.0,0.0,0.0,0.0,0.0,0.0,0.0,0.0,0.0,0.0,0.0,0.0,0.0,0.0,0.0,0.0,0.0,0.0,0.0,0.0,0.0,0.0,0.0,0.0,0.0,0.0,0.0,0.0,0.0,0.0,0.0,0.0,0.0,0.0,0.0,0.0,0.0,0.0,0.0,0.0,0.0,0.0,0.0,0.9818,0.7778,0.6569,0.5882,0.5761,0.4702,0.4214,0.0,0.0,0.0,0.0,0.0,0.0,0.0,0.0,0.0,0.0,0.0,0.0,0.0,0.0,0.0,0.0,0.0,0.0,0.0,0.0,0.0,0.0,0.0,0.0,0.0,0.0,0.0,0.0,0.0,0.0,0.0,0.0,0.0,0.0,0.0,0.0,0.0,0.0,0.0,0.0,0.0,0.0,0.0,0.0,0.0,0.0,0.0,0.0,0.0,0.0,0.0,0.0,0.0,0.0,0.0,0.0,0.0,0.0,0.0,0.0,0.0,0.0,0.0,0.0,0.0,0.0,0.0,0.0,0.0,0.0,0.0,0.0,0.0,0.0,0.0,0.0,0.0,0.0,0.0,0.0,0.0,0.0,0.0,0.0,0.0,0.0,0.0,0.0,0.0,0.0,0.0,0.0,0.0,0.0,0.0,0.0,0.0,0.0,0.0,0.0,0.0,0.0,0.0,0.0,0.0,0.0,0.0,0.0,0.0,0.6691,0.5577,0.4749,0.4147,0.2974,0.2407,0.0,0.0,0.0,0.0,0.0,0.0,0.0,0.0,0.0,0.0,0.0,0.0,0.0,0.0,0.0,0.0,0.0,0.0,0.0,0.0,0.0,0.0,0.0,0.0,0.0,0.0,0.0,0.0,0.0,0.0,0.0,0.0,0.0,0.0,0.0,0.0,0.0,0.0,0.0,0.0,0.0,0.0,0.0,0.0,0.0,0.0,0.0,0.0,0.0,0.0,0.0,0.0,0.0,0.0,0.0,0.0,0.0,0.0,0.0,0.0,0.0,0.0,0.0,0.0,0.0,0.0,0.0,0.0,0.0,0.0,0.0,0.0,0.0,0.0,0.0,0.0,0.0,0.0,0.0,0.0,0.0,0.0,0.0,0.0,0.0,0.0,0.0,0.0,0.0,0.0,0.0,0.0,0.0,0.0,0.0,0.0,0.0,0.0,0.0,0.0,0.0,0.0,0.0,0.0,0.0,0.0,0.0,0.0,0.0,0.5687,0.4639,0.3707,0.2987,0.1655,0.1043,0.1071,0.0,0.0,0.0,0.0,0.0,0.0,0.0,0.0,0.0,0.0,0.0,0.0,0.0,0.0,0.0,0.0,0.0,0.0,0.0,0.0,0.0,0.0,0.0,0.0,0.0,0.0,0.0,0.0,0.0,0.0,0.0,0.0,0.0,0.0,0.0,0.0,0.0,0.0,0.0,0.0,0.0,0.0,0.0,0.0,0.0,0.0,0.0,0.0,0.0,0.0,0.0,0.0,0.0,0.0,0.0,0.0,0.0,0.0,0.0,0.0,0.0,0.0,0.0,0.0,0.0,0.0,0.0,0.0,0.0,0.0,0.0,0.0,0.0,0.0,0.0,0.0,0.0,0.0,0.0,0.0,0.0,0.0,0.0,0.0,0.0,0.0,0.0,0.0,0.0,0.0,0.0,0.0,0.0,0.0,0.0,0.0,0.0,0.0,0.0,0.0,0.0,0.0,0.0,0.0,0.0,0.0,0.0,0.0,0.4813,0.3723,0.2837,0.2168,0.079,0.004,0.0,0.0,0.0,0.0,0.0,0.0,0.0,0.0,0.0,0.0,0.0,0.0,0.0,0.0,0.0,0.0,0.0,0.0,0.0,0.0,0.0,0.0,0.0,0.0,0.0,0.0,0.0,0.0,0.0,0.0,0.0,0.0,0.0,0.0,0.0,0.0,0.0,0.0,0.0,0.0,0.0,0.0,0.0,0.0,0.0,0.0,0.0,0.0,0.0,0.0,0.0,0.0,0.0,0.0,0.0,0.0,0.0,0.0,0.0,0.0,0.0,0.0,0.0,0.0,0.0,0.0,0.0,0.0,0.0,0.0,0.0,0.0,0.0,0.0,0.0,0.0,0.0,0.0,0.0,0.0,0.0,0.0,0.0,0.0,0.0,0.0,0.0,0.0,0.0,0.0,0.0,0.0,0.0,0.0,0.0,0.0,0.0,0.0,0.0,0.0,0.0,0.0,0.0,0.0,0.0,0.0,0.0,0.0,0.0,0.4431,0.3129,0.1877,0.0665,0.0,-0.0782,0.0,0.0,0.0,0.0,0.0,0.0,0.0,0.0,0.0,0.0,0.0,0.0,0.0,0.0,0.0,0.0,0.0,0.0,0.0,0.0,0.0,0.0,0.0,0.0,0.0,0.0,0.0,0.0,0.0,0.0,0.0,0.0,0.0,0.0,0.0,0.0,0.0,0.0,0.0,0.0,0.0,0.0,0.0,0.0,0.0,0.0,0.0,0.0,0.0,0.0,0.0,0.0,0.0,0.0,0.0,0.0,0.0,0.0,0.0,0.0,0.0,0.0,0.0,0.0,0.0,0.0,0.0,0.0,0.0,0.0,0.0,0.0,0.0,0.0,0.0,0.0,0.0,0.0,0.0,0.0,0.0,0.0,0.0,0.0,0.0,0.0,0.0,0.0,0.0,0.0,0.0,0.0,0.0,0.0,0.0,0.0,0.0,0.0,0.0,0.0,0.0,0.0,0.0,0.0,0.0,0.0,0.0,0.0,0.476,0.4295,0.2686,0.1075,-0.0537,-0.0866,-0.1642,0.0,0.0,0.0,0.0,0.0,0.0,0.0,0.0,0.0,0.0,0.0,0.0,0.0,0.0,0.0,0.0,0.0,0.0,0.0,0.0,0.0,0.0,0.0,0.0,0.0,0.0,0.0,0.0,0.0,0.0,0.0,0.0,0.0,0.0,0.0,0.0,0.0,0.0,0.0,0.0,0.0,0.0,0.0,0.0,0.0,0.0,0.0,0.0,0.0,0.0,0.0,0.0,0.0,0.0,0.0,0.0,0.0,0.0,0.0,0.0,0.0,0.0,0.0,0.0,0.0,0.0,0.0,0.0,0.0,0.0,0.0,0.0,0.0,0.0,0.0,0.0,0.0,0.0,0.0,0.0,0.0,0.0,0.0,0.0,0.0,0.0,0.0,0.0,0.0,0.0,0.0,0.0,0.0,0.0,0.0,0.0,0.0,0.0,0.0,0.0,0.0,0.0,0.0,0.0,0.0,0.0,0.0,0.0,0.5039,0.4251,0.2326,0.0447,-0.1385,-0.1709,-0.257,0.0,0.0,0.0,0.0,0.0,0.0,0.0,0.0,0.0,0.0,0.0,0.0,0.0,0.0,0.0,0.0,0.0,0.0,0.0,0.0,0.0,0.0,0.0,0.0,0.0,0.0,0.0,0.0,0.0,0.0,0.0,0.0,0.0,0.0,0.0,0.0,0.0,0.0,0.0,0.0,0.0,0.0,0.0,0.0,0.0,0.0,0.0,0.0,0.0,0.0,0.0,0.0,0.0,0.0,0.0,0.0,0.0,0.0,0.0,0.0,0.0,0.0,0.0,0.0,0.0,0.0,0.0,0.0,0.0,0.0,0.0,0.0,0.0,0.0,0.0,0.0,0.0,0.0,0.0,0.0,0.0,0.0,0.0,0.0,0.0,0.0,0.0,0.0,0.0,0.0,0.0,0.0,0.0,0.0,0.0,0.0,0.0,0.0,0.0,0.0,0.0,0.0,0.0,0.0,0.0,0.0,0.0,0.0,0.4552,0.3755,0.1834,-0.0045,-0.1921,-0.2499,-0.3321,0.0,0.0,0.0,0.0,0.0,0.0,0.0,0.0,0.0,0.0,0.0,0.0,0.0,0.0,0.0,0.0,0.0,0.0,0.0,0.0,0.0,0.0,0.0,0.0,0.0,0.0,0.0,0.0,0.0,0.0,0.0,0.0,0.0,0.0,0.0,0.0,0.0,0.0,0.0,0.0,0.0,0.0,0.0,0.0,0.0,0.0,0.0,0.0,0.4288,0.0,0.0,0.0,0.0,0.0,0.0,0.0,0.0,0.0,0.0,0.0,0.0,0.0,0.0,0.0,0.0,0.0,0.0,0.0,0.0,0.0,0.0,0.0,0.0,0.0,0.0,0.0,0.0,0.0,0.0,0.0,0.0,0.0,0.0,0.0,0.0,0.0,0.0,0.0,0.0,0.0,0.0,0.0,0.0,0.0,0.0,0.0,0.0,0.0,0.0,0.0,0.0,0.0,0.0,0.0,0.0,0.0,0.0,0.0,0.4377,0.3576,0.1252,-0.0626,-0.2053,-0.3317,-0.4248,0.0,0.0,0.0,0.0,0.0,0.0,0.0,0.0,0.0,0.0,0.0,0.0,0.0,0.0,0.0,0.0,0.0,0.0,0.0,0.0,0.0,0.0,0.0,0.0,0.0,0.0,0.0,0.0,0.0,0.0,0.0,0.0,0.0,0.0,0.0,0.0,0.0,0.0,0.0,0.0,0.0,0.0,0.0,0.0,0.0,0.0,0.0,0.0,0.0,0.0,0.0,0.0,0.0,0.0,0.0,0.0,0.0,0.0,0.0,0.0,0.0,0.0,0.0,0.0,0.0,0.0,0.0,0.0,0.0,0.0,0.0,0.0,0.0,0.0,0.0,0.0,0.0,0.0,0.0,0.0,0.0,0.0,0.0,0.0,0.0,0.0,0.0,0.0,0.0,0.0,0.0,0.0,0.0,0.0,0.0,0.0,0.0,0.0,0.0,0.0,0.0,0.0,0.0,0.0,0.0,0.0,0.0,0.5068,0.4235,0.34,0.0715,-0.1207,-0.2099,-0.3978,-0.5079,-0.5249,0.0,0.0,0.0,0.0,0.0,0.0,0.0,0.0,0.0,0.0,0.0,0.0,0.0,0.0,0.0,0.0,0.0,0.0,0.0,0.0,0.0,0.0,0.0,0.0,0.0,0.0,0.0,0.0,0.0,0.0,0.0,0.0,0.0,0.0,0.0,0.0,0.0,0.0,1.0594,0.8733,0.0,0.0,0.0,0.0,0.0,0.0,0.0,0.0,0.1394,0.0,0.0,0.0,0.0,0.0,0.0,0.0,0.0,0.0,0.0,0.0,0.0,0.0,0.0,0.0,0.0,0.0,0.0,0.0,0.0,0.0,0.0,0.0,0.0,0.0,0.0,0.0,0.0,0.0,0.0,0.0,0.0,0.0,0.0,0.0,0.0,0.0,0.0,0.0,0.0,0.0,0.0,0.0,0.0,0.0,0.0,0.0,0.0,0.0,0.0,0.0,0.0,0.0,0.0,0.0,0.0,0.5604,0.4688,0.3824,0.2998,0.0358,-0.1385,-0.2099,-0.3978,-0.5122,-0.5424,0.0,0.0,0.0,0.0,0.0,0.0,0.0,0.0,0.0,0.0,0.0,0.0,0.0,0.0,0.0,0.0,0.0,0.0,0.0,0.0,0.0,0.0,0.0,0.0,0.0,0.0,0.0,0.0,0.0,0.0,0.0,0.0,0.0,0.0,0.0,0.0,0.0,0.0,0.0,0.8071,0.7017,0.0,0.0,0.0,0.0,0.0,0.0,0.0,0.0,-0.0944,0.0,0.0,0.0,0.0,0.0,0.0,0.0,0.0,0.0,0.0,0.0,0.0,0.0,0.0,0.0,0.0,0.0,0.0,0.0,0.0,0.0,0.0,0.0,0.0,0.0,0.0,0.0,0.0,0.0,0.0,0.0,0.0,0.0,0.0,0.0,0.0,0.0,0.0,0.0,0.0,0.0,0.0,0.0,0.0,0.0,0.0,0.0,0.0,0.0,0.0,0.0,0.0,0.0,0.0,0.0,0.5368,0.4489,0.3634,0.2865,0.0268,-0.1431,-0.2098,-0.3896,-0.5051,0.0,0.0,0.0,0.0,0.0,0.0,0.0,0.0,0.0,0.0,0.0,0.0,0.0,0.0,0.0,0.0,0.0,0.0,0.0,0.0,0.0,0.0,0.0,0.0,0.0,0.0,0.0,0.0,0.0,0.0,0.0,0.0,0.0,0.0,0.0,0.0,0.0,0.0,0.0,0.0,0.7676,0.6297,0.505,0.0,0.0,0.0,0.0,0.0,0.0,-0.005,-0.1405,0.0,0.0,0.0,0.0,0.0,0.0,0.0,0.0,0.0,0.0,0.0,0.0,0.0,0.0,0.0,0.0,0.0,0.0,0.0,0.0,0.0,0.0,0.0,0.0,0.0,0.0,0.0,0.0,0.0,0.0,0.0,0.0,0.0,0.0,0.0,0.0,0.0,0.0,0.0,0.0,0.0,0.0,0.0,0.0,0.0,0.0,0.0,0.0,0.0,0.0,0.0,0.0,0.0,0.0,0.0,0.5165,0.4274,0.3433,0.2688,0.0179,-0.1475,-0.2098,-0.3808,-0.4998,0.0,0.0,0.0,0.0,0.0,0.0,0.0,0.0,0.0,0.0,0.0,0.0,0.0,0.0,0.0,0.0,0.0,0.0,0.0,0.0,0.0,0.0,0.0,0.0,0.0,0.0,0.0,0.0,0.0,0.0,0.0,0.0,0.0,0.0,0.0,0.0,0.0,0.0,0.0,0.0,0.0,0.5616,0.486,0.3901,0.0,0.0,0.0,0.0,0.0889,-0.055,0.0,0.0,0.0,0.0,0.0,0.0,0.0,0.0,0.0,0.0,0.0,0.0,0.0,0.0,0.0,0.0,0.0,0.0,0.0,0.0,0.0,0.0,0.0,0.0,0.0,0.0,0.0,0.0,0.0,0.0,0.0,0.0,0.0,0.0,0.0,0.0,0.0,0.0,0.0,0.0,0.0,0.0,0.0,0.0,0.0,0.0,0.0,0.0,0.0,0.0,0.0,0.0,0.0,0.0,0.0,0.0,0.4701,0.3871,0.3078,0.224,-0.0089,-0.1609,-0.2099,-0.3959,-0.5185,0.0,0.0,0.0,0.0,0.0,0.0,0.0,0.0,0.0,0.0,0.0,0.0,0.0,0.0,0.0,0.0,0.0,0.0,0.0,0.0,0.0,0.0,0.0,0.0,0.0,0.0,0.0,0.0,0.0,0.0,0.0,0.0,0.0,0.0,0.0,0.0,0.0,0.0,0.0,0.0,0.0,0.5673,0.4361,0.3734,0.338,0.0,0.0,0.0871,-0.0402,-0.1834,0.0,0.0,0.0,0.0,0.0,0.0,0.0,0.0,0.0,0.0,0.0,0.0,0.0,0.0,0.0,0.0,0.0,0.0,0.0,0.0,0.0,0.0,0.0,0.0,0.0,0.0,0.0,0.0,0.0,0.0,0.0,0.0,0.0,0.0,0.0,0.0,0.0,0.0,0.0,0.0,0.0,0.0,0.0,0.0,0.0,0.0,0.0,0.0,0.0,0.0,0.0,0.0,0.0,0.0,0.0,0.5479,0.4622,0.3907,0.3108,0.2198,0.0358,-0.0805,-0.1296,-0.2978,-0.4181,0.0,0.0,0.0,0.0,0.0,0.0,0.0,0.0,0.0,0.0,0.0,0.0,0.0,0.0,0.0,0.0,0.0,0.0,0.0,0.0,0.0,0.0,0.0,0.0,0.0,0.0,0.0,0.0,0.0,0.0,0.0,0.0,0.0,0.0,0.0,0.0,0.0,0.0,0.0,0.0,0.0,0.0,0.4267,0.3713,0.0,0.0,0.0,0.0301,-0.166,0.0,0.0,0.0,0.0,0.0,0.0,0.0,0.0,0.0,0.0,0.0,0.0,0.0,0.0,0.0,0.0,0.0,0.0,0.0,0.0,0.0,0.0,0.0,0.0,0.0,0.0,0.0,0.0,0.0,0.0,0.0,0.0,0.0,0.0,0.0,0.0,0.0,0.0,0.0,0.0,0.0,0.0,0.0,0.0,0.0,0.0,0.0,0.0,0.0,0.0,0.0,0.0,0.0,0.0,0.0,0.0,0.0,0.4534,0.3877,0.3118,0.2199,0.0762,-0.0223,-0.071,-0.2075,0.0,0.0,0.0,0.0,0.0,0.0,0.0,0.0,0.0,0.0,0.0,0.0,0.0,0.0,0.0,0.0,0.0,0.0,0.0,0.0,0.0,0.0,0.0,0.0,0.0,0.0,0.0,0.6624,0.0,0.0,0.0,0.0,0.0,0.0,0.0,0.0,0.0,0.0,0.0,0.0,0.0,0.0,0.4777,0.4255,0.368,0.2856,0.0,0.0,-0.0297,-0.2446,-0.3224,-0.3792,0.0,0.0,0.0,0.0,0.0,0.0,0.0,0.0,0.0,0.0,0.0,0.0,0.0,0.0,0.0,0.0,0.0,0.0,0.0,0.0,0.0,0.0,0.0,0.0,0.0,0.0,0.0,0.0,0.0,0.0,0.0,0.0,0.0,0.0,0.0,0.0,0.0,0.0,0.0,0.0,0.0,0.0,0.0,0.0,0.0,0.0,0.0,0.0,0.0,0.0,0.0,0.0,0.0,0.0,0.0,0.4316,0.3739,0.3031,0.2196,0.0762,-0.0222,-0.0696,-0.1645,-0.2681,0.0,0.0,0.0,0.0,0.0,0.0,0.0,0.0,0.0,0.0,0.0,0.0,0.0,0.0,0.0,0.0,0.0,0.0,0.0,0.0,0.0,0.0,0.0,0.0,0.0,0.0,0.0,0.0,0.0,0.0,0.0,0.0,0.0,0.0,0.0,0.0,0.0,0.0,0.0,0.0,0.0,0.4603,0.4098,0.3545,0.2753,0.0,0.0,-0.1148,-0.2507,-0.3829,-0.4698,-0.4722,0.0,0.0,0.0,0.0,0.0,0.0,0.0,0.0,0.0,0.0,0.0,0.0,0.0,0.0,0.0,0.0,0.0,0.0,0.0,0.0,0.0,0.0,0.0,0.0,0.0,0.0,0.0,0.0,0.0,0.0,0.0,0.0,0.0,0.0,0.0,0.0,0.0,0.0,0.0,0.0,0.0,0.0,0.0,0.0,0.0,0.0,0.0,0.0,0.0,0.0,0.0,0.0,0.0,0.4891,0.4231,0.3404,0.269,0.2069,0.1252,0.0645,0.0341,-0.0662,-0.1458,0.0,0.0,0.0,0.0,0.0,0.0,0.0,0.0,0.0,0.0,0.0,0.0,0.0,0.0,0.0,0.0,0.0,0.0,0.0,0.0,0.0,0.0,0.0,0.0,0.0,0.0,0.0,0.0,0.6134,0.628,0.6352,0.0,0.0,0.0,0.0,0.0,0.0,0.0,0.0,0.0,0.0,0.4466,0.3574,0.2926,0.0,0.0,-0.06,-0.1907,-0.3282,-0.4173,-0.4745,-0.4714,-0.4779,0.0,0.0,0.0,0.0,0.0,0.0,0.0,0.0,0.0,0.0,0.0,0.0,0.0,0.0,0.0,0.0,0.0,0.0,0.0,0.0,0.0,0.0,0.0,0.0,0.0,0.0,0.0,0.0,0.0,0.0,0.0,0.0,0.0,0.0,0.0,0.0,0.0,0.0,0.0,0.0,0.0,0.0,0.0,0.0,0.0,0.0,0.0,0.0,0.0,0.0,0.0,0.0,0.4487,0.3889,0.309,0.2462,0.2017,0.1516,0.1218,0.1,0.024,-0.0392,0.0,0.0,0.0,0.0,0.0,0.0,0.0,0.0,0.0,0.0,0.0,0.0,0.0,0.0,0.0,0.0,0.0,0.0,0.0,0.0,0.0,0.0,0.0,0.0,0.0,0.0,0.0,0.0,0.5758,0.5691,0.5685,0.0,0.0,0.0,0.0,0.0,0.0,0.0,0.0,0.0,0.0,0.4206,0.2947,0.2362,0.1465,-0.0203,-0.1226,-0.2311,-0.373,-0.44,-0.4708,-0.4708,0.0,0.0,0.0,0.0,0.0,0.0,0.0,0.0,0.0,0.0,0.0,0.0,0.0,0.0,0.0,0.0,0.0,0.0,0.0,0.0,0.0,0.0,0.0,0.0,0.0,0.0,0.0,0.0,0.0,0.0,0.8629,0.0,0.0,0.0,0.0,0.0,0.0,0.0,0.0,0.0,0.0,0.0,0.0,0.0,0.0,0.0,0.0,0.0,0.0,0.0,0.0,0.0,0.0,0.3964,0.3241,0.2801,0.2382,0.2014,0.1556,0.1207,0.1017,0.0914,0.0346,-0.0768,0.0,0.0,0.0,0.0,0.0,0.0,0.0,0.0,0.0,0.0,0.0,0.0,0.0,0.0,0.0,0.0,0.0,0.0,0.0,0.0,0.0,0.0,0.0,0.0,0.0,0.0,0.5628,0.5595,0.5571,0.0,0.0,0.0,0.0,0.0,0.0,0.0,0.0,0.0,0.0,0.4593,0.3889,0.2178,0.19,0.1175,-0.083,-0.1543,-0.23,-0.3669,-0.4317,-0.4708,0.0,0.0,0.0,0.0,0.0,0.0,0.0,0.0,0.0,0.0,0.0,0.0,0.0,0.0,0.0,0.0,0.0,0.0,0.0,0.0,0.0,0.0,0.0,0.0,0.0,0.0,0.0,0.8765,0.8234,0.0,0.0,0.0,0.0,0.0,0.0,0.0,0.0,0.0,0.0,0.0,0.8872,0.8987,0.0,0.0,0.0,0.0,0.0,0.0,0.0,0.0,0.0,0.0,0.0,0.0,0.3607,0.3122,0.2425,0.2043,0.1929,0.1528,0.1273,0.1126,0.0985,0.0365,-0.0762,0.0,0.0,0.0,0.0,0.0,0.0,0.0,0.0,0.0,0.0,0.0,0.0,0.0,0.0,0.0,0.0,0.0,0.0,0.0,0.0,0.0,0.0,0.0,0.0,0.0,0.5401,0.0,0.0,0.0,0.0,0.0,0.0,0.0,0.0,0.0,0.0,0.0,0.5309,0.4671,0.4272,0.3497,0.2044,0.1405,0.069,0.0,0.0,0.0,0.0,0.0,0.0,0.0,0.0,0.0,0.0,0.0,0.0,0.0,0.0,-0.4337,-0.3964,-0.3759,-0.3515,-0.3163,0.0,0.0,0.0,0.0,0.0,0.0,0.0,0.0,0.0,0.0,0.0,0.0,0.0,0.0,0.851,0.0,0.8229,0.0,0.0,0.0,0.0,0.0,0.0,0.0,0.0,0.8826,0.8877,0.8926,0.9063,0.9084,0.0,0.9089,0.8832,0.0,0.0,0.0,0.0,0.0,0.0,0.0,0.0,0.3165,0.2787,0.2187,0.1847,0.18,0.1533,0.1293,0.1196,0.0984,0.0493,-0.0337,-0.0759,-0.1135,0.0,0.0,0.0,0.0,0.0,0.0,0.0,0.0,0.0,0.0,0.0,0.0,0.0,0.0,0.0,0.0,0.0,0.0,0.0,0.0,0.0,0.0,0.0,0.5207,0.0,0.0,0.0,0.0,0.0,0.0,0.0,0.0,0.0,0.6024,0.5649,0.5134,0.462,0.4079,0.315,0.1633,0.0,0.0,0.0,0.0,0.0,0.0,0.0,-0.4123,-0.4724,-0.4765,-0.4716,-0.4741,-0.4743,-0.4745,-0.4743,0.0,0.0,-0.4236,-0.4161,-0.4047,-0.3667,-0.3572,-0.3654,-0.3937,-0.4018,-0.4139,0.0,0.0,0.0,0.0,0.0,0.0,0.0,0.0,0.8627,0.8585,0.0,0.8396,0.0,0.0,0.0,0.0,0.0,0.8699,0.0,0.0,0.9136,0.9294,0.9249,0.9249,0.9304,0.9268,0.9268,0.8886,0.8198,0.8537,0.0,0.0,0.0,0.0,0.0,0.0,0.2691,0.2338,0.2115,0.1896,0.1716,0.1496,0.1348,0.1201,0.1029,0.0761,0.0507,-0.0311,-0.0855,-0.1037,-0.1157,0.0,0.0,0.0,0.0,0.0,0.0,0.0,0.0,0.0,0.0,0.0,0.0,0.0,0.0,0.0,0.0,0.0,0.0,0.0,0.0,0.5023,0.0,0.0,0.0,0.0,0.0,0.0,0.0,0.0,0.0,0.0,0.6236,0.5633,0.506,0.476,0.0,0.0,0.0,0.0,0.0181,-0.1246,-0.1927,-0.249,-0.3078,-0.3578,-0.4117,-0.4672,0.0,0.0,-0.4587,-0.4621,-0.4625,-0.4621,-0.4575,-0.4643,-0.4677,-0.4624,-0.4573,-0.4571,-0.452,-0.4614,-0.4612,-0.4678,-0.4866,0.7518,0.0,0.0,0.0,0.0,0.8068,0.8289,0.8403,0.8627,0.8585,0.8401,0.8401,0.0,0.0,0.0,0.0,0.0,0.0,0.8581,0.8581,0.8642,0.8741,0.8874,0.8878,0.8959,0.9065,0.911,0.9037,0.8945,0.8489,0.7409,0.5708,0.0,0.0,0.0,0.0,0.2595,0.2291,0.2041,0.1861,0.1713,0.1494,0.13,0.1135,0.107,0.095,0.0708,0.0518,0.0243,-0.0068,0.0,0.0,0.0,0.0,0.0,0.0,0.0,0.0,0.0,0.0,0.0,0.0,0.0,0.0,0.0,0.0,0.0,0.0,0.0,0.0,0.5161,0.5137,0.5208,0.0,0.0,0.0,0.0,0.0,0.0,0.0,0.0,0.0,0.6119,0.537,0.4716,0.0,0.0,0.2559,0.0951,0.072,0.0181,-0.1291,-0.1627,0.0,-0.249,-0.2624,-0.3052,-0.4005,-0.4434,-0.4602,-0.4623,-0.4619,-0.4619,-0.4616,-0.4518,-0.4437,-0.451,-0.4549,-0.4614,-0.4616,-0.4663,-0.476,-0.4754,-0.4883,-0.4967,0.7518,0.7518,0.7518,0.7561,0.7718,0.7987,0.8178,0.8289,0.8589,0.8633,0.8519,0.8519,0.8401,0.8207,0.8207,0.0,0.0,0.0,0.8519,0.8519,0.8519,0.8585,0.8699,0.8703,0.877,0.8892,0.8858,0.8915,0.9037,0.8326,0.7213,0.5738,0.0,0.0,0.3048,0.2857,0.259,0.2259,0.2122,0.1948,0.1802,0.1485,0.1297,0.1104,0.1085,0.101,0.0809,0.0838,0.0744,0.0421,0.0536,0.0608,0.0,0.0,0.0,0.0,0.0,0.0,0.0,0.0,0.0,0.0,0.0,0.512,0.5153,0.0,0.0,0.0,0.5455,0.5502,0.5347,0.533,0.0,0.0,0.0,0.0,0.0,0.0,0.0,0.61,0.5994,0.5947,0.607,0.5341,0.4744,0.4538,0.3783,0.2645,0.0954,0.0,0.018,-0.1277,-0.1473,-0.1673,-0.2209,-0.2253,-0.2532,-0.3384,-0.3764,-0.3941,-0.391,-0.3951,-0.3999,-0.4135,-0.4145,-0.4154,-0.4336,-0.4428,-0.4509,-0.4463,-0.456,-0.4613,-0.4749,-0.4878,-0.501,0.771,0.7706,0.7693,0.7617,0.7561,0.7949,0.8102,0.814,0.8518,0.8703,0.8703,0.8703,0.8595,0.8429,0.8425,0.0,0.8434,0.8614,0.8699,0.8703,0.8685,0.8675,0.8675,0.8661,0.8652,0.8647,0.8652,0.8652,0.8614,0.8083,0.7484,0.6793,0.5772,0.4647,0.3467,0.3,0.2586,0.2189,0.2188,0.2087,0.1884,0.1479,0.1211,0.1114,0.111,0.101,0.0847,0.0886,0.0826,0.0667,0.066,0.081,0.1088,0.0,0.0,0.0,0.0,0.0,0.0,0.0,0.0,0.0,0.0,0.0,0.0,0.0,0.0,0.0,0.5347,0.0,0.5486,0.5505,0.0,0.0,0.0,0.5866,0.5729,0.5937,0.6015,0.5912,0.0,0.0,0.6043,0.5542,0.5009,0.4682,0.4045,0.294,0.1151,0.0771,0.0224,-0.1078,-0.1413,-0.1661,-0.2078,-0.2243,-0.2438,-0.2867,-0.2951,-0.3023,-0.2977,-0.2963,-0.3094,-0.3461,-0.3587,-0.3723,-0.4168,-0.4259,-0.4289,-0.4293,-0.4344,-0.4433,-0.465,-0.4863,-0.5033,0.9701,0.9535,0.9474,0.8772,0.7757,0.7987,0.8217,0.8365,0.8589,0.8703,0.8703,0.8703,0.8675,0.8628,0.8633,0.8628,0.8633,0.8675,0.8703,0.8694,0.8543,0.8477,0.8467,0.8302,0.8231,0.8226,0.8226,0.8262,0.8262,0.8082,0.7673,0.6969,0.6685,0.552,0.3529,0.2984,0.2538,0.2188,0.2188,0.2018,0.1681,0.1412,0.1222,0.111,0.1088,0.1053,0.104,0.1194,0.1199,0.1017,0.1277,0.142,0.1331,0.1497,0.0,0.0,0.0,0.0,0.0,0.0,0.0,0.0,0.0,0.5277,0.4729,0.0,0.5425,0.0,0.5007,0.5192,0.5475,0.5505,0.0,0.0,0.5942,0.5931,0.5994,0.589,0.5793,0.5896,0.5828,0.5739,0.5769,0.5658,0.542,0.4949,0.4205,0.3158,0.1766,0.108,0.0404,-0.0449,-0.1036,-0.1446,-0.1583,-0.1951,-0.2229,-0.2397,-0.2664,-0.2928,-0.2914,-0.2911,-0.2956,-0.309,-0.3361,-0.3631,-0.376,-0.403,-0.4206,-0.4251,-0.4431,-0.459,-0.4566,-0.4766,-0.4942,1.0353,1.0086,1.0025,0.9488,0.8655,0.8599,0.8819,0.9229,0.9223,0.942,0.9755,0.9382,0.9236,0.9193,0.8856,0.8703,0.8703,0.8703,0.8703,0.8689,0.8496,0.8401,0.8396,0.8179,0.808,0.808,0.808,0.808,0.808,0.808,0.7841,0.7339,0.7099,0.6218,0.4719,0.4118,0.3453,0.2658,0.2488,0.2185,0.1748,0.1614,0.1491,0.1341,0.1338,0.1338,0.1308,0.1444,0.149,0.1368,0.1596,0.1668,0.1612,0.1716,0.1859,0.0,0.0,0.0,0.0,0.0,0.0,0.0,0.0,0.0,0.0,0.0,0.5398,0.5106,0.5083,0.5238,0.5556,0.5588,0.571,0.6056,0.6024,0.5988,0.6005,0.5888,0.5814,0.5825,0.5729,0.5688,0.5688,0.5688,0.5508,0.5055,0.4566,0.3812,0.265,0.1881,0.1254,0.0493,-0.009,-0.0583,-0.0897,-0.0934,-0.1154,-0.1701,-0.1793,-0.1881,-0.215,-0.2223,-0.2298,-0.2518,-0.2764,-0.3093,-0.3441,-0.3673,-0.3887,-0.4073,-0.425,-0.4374,-0.446,-0.4574,-0.4706,1.0589,1.0277,1.0278,1.0213,1.0037,0.9545,0.9675,1.0258,1.0024,1.031,1.0935,1.0235,0.9953,0.9948,0.9153,0.8827,0.8851,0.8713,0.8661,0.8652,0.8425,0.8325,0.8311,0.8139,0.8039,0.8034,0.8034,0.8034,0.8004,0.7999,0.791,0.7744,0.7299,0.6772,0.6181,0.5771,0.4845,0.3391,0.2987,0.2554,0.2052,0.2052,0.1887,0.1624,0.1758,0.176,0.1627,0.1694,0.1717,0.1722,0.172,0.1795,0.1895,0.1891,0.1966,0.0,0.2209,0.0,0.0,0.0,0.0,0.0,0.0,0.0,0.0,0.511,0.5265,0.5358,0.5238,0.533,0.5634,0.5667,0.5803,0.6032,0.6111,0.6062,0.5942,0.5925,0.5927,0.5769,0.5753,0.575,0.5769,0.5731,0.5505,0.5181,0.5046,0.4647,0.3678,0.2931,0.227,0.1649,0.1157,0.0575,0.0133,0.035,0.0218,-0.0752,-0.0709,-0.0489,-0.1021,-0.1138,-0.1297,-0.1728,-0.192,-0.2275,-0.3067,-0.3273,-0.3407,-0.3724,-0.3839,-0.396,-0.422,-0.4305,-0.4388,1.2221,1.1785,1.1672,1.1607,1.1532,1.0849,1.0387,1.0143,1.009,1.0149,1.029,1.0108,1.023,1.0381,0.9626,0.9437,0.9604,0.8832,0.8463,0.8444,0.8075,0.793,0.7886,0.7707,0.7607,0.7607,0.7607,0.7612,0.7607,0.7607,0.7588,0.7555,0.7452,0.7133,0.6638,0.0,0.0,0.0,0.3654,0.3153,0.2822,0.2788,0.2446,0.1736,0.2219,0.0,0.1702,0.1788,0.179,0.1715,0.1973,0.0,0.0,0.0,0.0,0.0,0.0,0.0,0.0,0.0,0.0,0.0,0.4768,0.4785,0.4831,0.5064,0.5159,0.5091,0.5146,0.5295,0.5516,0.554,0.5637,0.5907,0.6126,0.6216,0.6093,0.6201,0.6242,0.6121,0.5973,0.5886,0.5927,0.5689,0.5484,0.554,0.5397,0.5268,0.5019,0.38,0.288,0.266,0.211,0.1573,0.1401,0.1229,0.1143,0.0723,0.0468,0.0298,0.0128,0.0085,-0.0084,-0.0634,-0.1053,-0.1511,-0.2182,-0.2569,-0.2815,-0.3331,-0.3334,-0.344,-0.3867,-0.4003,-0.4007,1.2502,0.0,1.2036,1.1948,0.0,1.15,1.127,1.1061,1.0808,1.0964,1.1416,1.1033,1.0972,1.1141,1.0331,1.0087,1.0202,0.9713,0.9348,0.9118,0.8811,0.8552,0.8282,0.8088,0.8014,0.7987,0.7982,0.7982,0.7982,0.7992,0.7917,0.7754,0.7754,0.7526,0.7134,0.7363,0.6761,0.5305,0.4716,0.4181,0.3751,0.3751,0.3509,0.3012,0.3357,0.0,0.0,0.0,0.0,0.0,0.0,0.0,0.0,0.0,0.0,0.2751,0.2955,0.3256,0.357,0.3862,0.4219,0.4696,0.4855,0.4911,0.5004,0.5118,0.5165,0.5108,0.5105,0.5216,0.5474,0.5496,0.5614,0.5918,0.6081,0.6095,0.6079,0.615,0.6166,0.6111,0.6008,0.5981,0.5999,0.5823,0.5746,0.5829,0.5746,0.5696,0.558,0.4657,0.3798,0.35,0.3143,0.2694,0.2424,0.2532,0.2117,0.1465,0.1302,0.1091,0.0588,0.0541,0.0413,0.0124,-0.0123,-0.0447,-0.0933,-0.1206,-0.1556,-0.223,-0.2388,-0.2514,-0.3093,-0.3563,-0.3818,1.2307,1.2027,1.2012,1.1953,1.1872,1.1833,1.1965,1.2072,0.0,0.0,0.0,1.1976,1.1795,1.1878,1.1085,1.0769,1.0814,1.0626,1.0339,0.9995,0.9764,0.9446,0.9014,0.8761,0.8641,0.8641,0.8544,0.8517,0.8517,0.8517,0.8349,0.8117,0.8084,0.7922,0.7689,0.7689,0.726,0.6437,0.5804,0.5243,0.4773,0.474,0.4643,0.4386,0.4583,0.4625,0.455,0.4607,0.468,0.4781,0.4391,0.4149,0.4146,0.3744,0.3502,0.3459,0.3515,0.3692,0.3936,0.4063,0.4342,0.4825,0.5024,0.5095,0.5151,0.5194,0.5234,0.5236,0.5148,0.5224,0.55,0.5551,0.5644,0.5978,0.6031,0.6037,0.6079,0.6117,0.6162,0.6086,0.608,0.603,0.6081,0.5952,0.5964,0.5958,0.5902,0.592,0.5844,0.5276,0.4624,0.4181,0.4036,0.3859,0.3494,0.3535,0.332,0.2167,0.2218,0.206,0.1357,0.11,0.113,0.1089,0.0953,0.0709,0.0353,0.0079,-0.0235,-0.1135,-0.1269,-0.147,-0.2183,-0.2862,-0.3379,1.2336,1.2064,1.2095,1.2072,1.2058,1.2058,1.2096,1.2073,1.2001,1.2077,1.2171,1.207,1.2165,1.2362,1.1556,1.1363,1.1587,1.0761,1.0319,1.0234,1.0038,0.9919,0.9791,0.9382,0.9177,0.9151,0.8738,0.8517,0.8517,0.8517,0.8447,0.8452,0.8414,0.8414,0.8349,0.8349,0.8149,0.7722,0.6601,0.5873,0.5705,0.5705,0.5408,0.4815,0.5362,0.5399,0.4782,0.4788,0.4814,0.4873,0.4809,0.4775,0.4778,0.478,0.4512,0.406,0.4381,0.4369,0.3909,0.4308,0.4739,0.5044,0.5328,0.5374,0.5076,0.5193,0.5268,0.5308,0.5491,0.5571,0.5728,0.5824,0.5872,0.6042,0.6156,0.6245,0.6274,0.6436,0.6511,0.6401,0.6263,0.6181,0.6172,0.5907,0.5795,0.5855,0.5853,0.5707,0.5692,0.5514,0.5248,0.4936,0.4857,0.4815,0.4599,0.4351,0.4054,0.3836,0.3475,0.3297,0.2989,0.2979,0.292,0.2558,0.2162,0.1764,0.1254,0.0745,0.0431,-0.0039,-0.0191,-0.0524,-0.1286,-0.1725,-0.2204,1.2203,1.2096,1.2096,1.212,1.222,1.2344,1.2436,1.259,1.2582,1.2436,1.222,1.2212,1.2329,1.25,1.2153,1.2101,1.2203,1.176,1.1496,1.1386,1.1283,1.1188,1.1048,1.0679,1.049,1.0458,0.9875,0.96,0.9568,0.9312,0.9092,0.8926,0.8641,0.8517,0.8517,0.8517,0.842,0.8284,0.7521,0.6961,0.6601,0.6605,0.6404,0.5947,0.6276,0.6342,0.6108,0.6097,0.618,0.6295,0.602,0.5879,0.5882,0.5628,0.5385,0.5122,0.5279,0.5254,0.4953,0.5562,0.6075,0.6404,0.675,0.6861,0.6707,0.636,0.636,0.678,0.6896,0.7042,0.7192,0.6848,0.6802,0.743,0.6813,0.6501,0.6817,0.6617,0.6474,0.6409,0.6323,0.6257,0.6271,0.6106,0.599,0.6099,0.6028,0.5948,0.5789,0.5722,0.5629,0.538,0.5326,0.5287,0.5165,0.4972,0.4665,0.4392,0.416,0.3968,0.3776,0.3781,0.3679,0.3407,0.3173,0.2979,0.2624,0.2275,0.1873,0.1495,0.1241,0.0807,0.0108,-0.0634,-0.1585,1.2574,1.2566,1.2681,1.272,1.2758,1.2911,1.3042,1.3094,1.3103,1.292,1.2605,1.2574,1.2674,1.2797,1.2797,1.2757,1.267,1.2765,1.2665,1.244,1.2543,1.2474,1.2328,1.1981,1.1795,1.1734,1.1156,1.0856,1.0793,1.0478,1.0104,0.9652,0.9119,0.8835,0.877,0.8802,0.877,0.8608,0.8409,0.8019,0.7531,0.7493,0.74,0.7274,0.7274,0.7307,0.7372,0.7383,0.7432,0.7576,0.7234,0.7022,0.7085,0.6722,0.6416,0.6317,0.6313,0.6247,0.6164,0.6731,0.7188,0.7447,0.7905,0.8203,0.8359,0.791,0.7702,0.8118,0.8122,0.8232,0.8318,0.7936,0.7855,0.8551,0.7638,0.7157,0.7599,0.7249,0.6907,0.6911,0.6756,0.6721,0.6872,0.6606,0.6377,0.6451,0.6412,0.6296,0.6096,0.6018,0.5906,0.5792,0.5676,0.5559,0.5398,0.5324,0.5153,0.4696,0.465,0.4522,0.4262,0.4126,0.4114,0.4073,0.3936,0.3807,0.3846,0.3438,0.3019,0.266,0.2443,0.2018,0.1205,0.0302,-0.0841,1.3995,1.4064,1.4403,1.4382,1.4034,1.4034,1.3855,1.3532,1.348,1.342,1.342,1.3381,1.339,1.3428,1.342,1.3182,1.2907,1.3245,1.319,1.2953,1.3237,1.3381,1.3321,1.2887,1.2673,1.2612,1.2112,1.1857,1.1857,1.1772,1.1447,1.0829,1.0193,0.9824,0.9734,0.983,0.9562,0.8985,0.9113,0.8926,0.8414,0.8382,0.8382,0.8355,0.8349,0.822,0.7922,0.7937,0.7919,0.7952,0.7924,0.799,0.8256,0.8262,0.8014,0.7544,0.7512,0.7316,0.6905,0.7156,0.7416,0.7434,0.8072,0.8673,0.9306,0.9532,0.9231,0.8727,0.8618,0.8775,0.8665,0.8623,0.8661,0.8927,0.8589,0.8513,0.8585,0.8699,0.8737,0.8737,0.805,0.8012,0.8466,0.7629,0.6788,0.7019,0.6942,0.683,0.6753,0.6521,0.6409,0.6257,0.5948,0.5676,0.5586,0.553,0.5424,0.5362,0.5388,0.5179,0.4977,0.4994,0.5085,0.4701,0.4479,0.4244,0.4068,0.3769,0.3412,0.3313,0.3072,0.2721,0.186,0.1115,0.0224,1.4973,1.5158,1.5352,1.5323,1.5148,1.5148,1.5148,1.5148,1.4777,1.4708,1.4874,1.4558,1.4061,1.3494,1.325,1.3181,1.3241,1.319,1.3317,1.3534,1.3811,1.4001,1.4172,1.3953,1.3803,1.3743,1.3183,1.2887,1.2826,1.2565,1.222,1.1897,1.1595,1.1423,1.1313,1.1281,1.1111,1.0766,1.0458,1.0205,0.9894,0.8985,0.8517,0.8517,0.8517,0.8452,0.8317,0.8317,0.8284,0.8317,0.8284,0.8349,0.8479,0.8517,0.8414,0.8214,0.8177,0.8204,0.8333,0.8606,0.8873,0.9142,0.9734,1.0239,1.0539,1.0807,1.0769,1.0458,1.0319,1.0319,1.0389,1.0045,0.9938,1.0239,0.9642,0.9226,0.9707,0.941,0.9188,0.915,0.8922,0.8808,0.9107,0.8656,0.8237,0.8313,0.8237,0.8122,0.8161,0.7744,0.7403,0.7288,0.6788,0.6212,0.5896,0.5748,0.5708,0.559,0.5555,0.5478,0.5431,0.5428,0.5419,0.5222,0.4958,0.4678,0.4529,0.4143,0.3784,0.371,0.3504,0.3149,0.2765,0.2109,0.1343,1.6014,1.6242,1.6384,1.6355,1.6242,1.6242,1.6288,1.6345,1.5967,1.5901,1.6065,1.5671,1.5079,1.4357,1.3633,1.3406,1.3503,1.3274,1.3387,1.3916,1.4121,1.4407,1.4736,1.4686,1.4627,1.4567,1.4142,1.3902,1.3842,1.3342,1.3014,1.2907,1.2724,1.2557,1.242,1.2381,1.2312,1.2097,1.1664,1.1447,1.1253,1.0224,0.939,0.8964,0.8899,0.8867,0.8738,0.877,0.8765,0.8738,0.87,0.877,0.8873,0.8873,0.8867,0.8894,0.8899,0.9087,0.9466,0.9678,0.9912,1.0285,1.0769,1.1067,1.1204,1.1433,1.1654,1.1706,1.1706,1.1669,1.1595,1.1174,1.113,1.1552,1.0576,1.0233,1.0683,1.0314,1.0126,1.0083,1.0008,0.9707,0.9636,0.9636,0.9712,0.9599,0.9448,0.941,0.9372,0.8841,0.8423,0.8423,0.7893,0.7242,0.6402,0.6202,0.6093,0.5941,0.5893,0.5864,0.5676,0.5562,0.5398,0.5113,0.5163,0.5019,0.468,0.4317,0.4049,0.4027,0.3832,0.3502,0.3285,0.2747,0.2359,1.7324,1.7379,1.7815,1.7733,1.7352,1.7352,1.709,1.6845,1.6676,1.6687,1.6715,1.6641,1.6574,1.6363,1.4922,1.4044,1.3743,1.367,1.3652,1.3791,1.4148,1.4534,1.4961,1.497,1.5,1.5,1.4941,1.4882,1.4882,1.4282,1.3936,1.3936,1.3394,1.2962,1.2879,1.3031,1.284,1.2694,1.2641,1.2588,1.2442,1.2311,1.1471,1.0193,0.9919,0.9722,0.937,0.9396,0.9396,0.9274,0.9274,0.937,0.967,0.9708,0.9734,0.9856,0.9894,0.9926,0.9919,0.9976,1.0027,1.0085,1.0416,1.0638,1.1034,1.133,1.1659,1.1977,1.215,1.2114,1.1818,1.1744,1.1663,1.1744,1.1663,1.1589,1.1626,1.17,1.1959,1.1922,1.1428,1.0901,1.034,1.0694,1.0807,1.0533,1.004,0.982,1.0008,0.9631,0.9372,0.9334,0.9145,0.8651,0.7276,0.7088,0.6938,0.6778,0.6726,0.6401,0.5848,0.5437,0.5227,0.4993,0.4916,0.4827,0.4646,0.4461,0.4271,0.4163,0.4039,0.3823,0.3589,0.3294,0.2963,1.8536,1.8682,1.8854,1.8815,1.8682,1.867,1.8578,1.8405,1.8027,1.7863,1.777,1.7457,1.7263,1.7203,1.6053,1.5213,1.4629,1.4015,1.3853,1.409,1.4382,1.4754,1.5255,1.5381,1.5498,1.5566,1.5595,1.5556,1.5556,1.5342,1.5216,1.5186,1.4971,1.4785,1.4667,1.4706,1.4599,1.4344,1.4016,1.3747,1.3678,1.3339,1.2755,1.2058,1.1236,1.0748,1.0584,1.0098,0.9786,0.976,0.9754,0.9824,0.9926,0.9926,0.9951,0.9989,1.0021,1.0053,1.0174,1.018,1.0238,1.0397,1.0903,1.1296,1.1483,1.1964,1.2417,1.2535,1.2636,1.2599,1.2519,1.2452,1.2489,1.2452,1.2452,1.2452,1.2489,1.2526,1.2599,1.2636,1.2409,1.2144,1.1953,1.2107,1.2187,1.207,1.1842,1.1694,1.1657,1.1248,1.0801,1.0726,1.0378,0.9798,0.9111,0.8614,0.8382,0.8073,0.785,0.7345,0.683,0.634,0.6074,0.5517,0.5223,0.4994,0.4965,0.4492,0.4327,0.4209,0.4113,0.4068,0.3812,0.3632,0.3506,1.9356,1.9512,1.9539,1.9512,1.946,1.9512,1.9486,1.9434,1.9069,1.884,1.8603,1.8225,1.7972,1.7638,1.689,1.6196,1.5557,1.4527,1.423,1.4633,1.4945,1.5385,1.5828,1.6164,1.6361,1.64,1.6267,1.6181,1.6153,1.6,1.5914,1.5885,1.5914,1.5856,1.5769,1.5769,1.5701,1.5478,1.5118,1.4883,1.4844,1.4471,1.4195,1.3918,1.2915,1.2097,1.1757,1.1243,1.0944,1.0874,1.0881,1.0881,1.0874,1.0692,1.0699,1.0912,1.0787,1.0818,1.1132,1.117,1.1139,1.1097,1.1786,1.2205,1.1949,1.2593,1.2999,1.2974,1.2973,1.3039,1.3258,1.3229,1.3119,1.2973,1.29,1.29,1.29,1.29,1.2929,1.2973,1.2973,1.2966,1.3046,1.2929,1.2929,1.3083,1.3003,1.29,1.29,1.2526,1.2083,1.204,1.1657,1.1174,1.0641,1.0264,0.9274,0.8852,0.8524,0.8108,0.756,0.7136,0.671,0.6125,0.5737,0.5486,0.5115,0.4639,0.4432,0.4328,0.4317,0.4343,0.4185,0.4061,0.3912,1.9798,1.9798,1.9798,1.9734,1.9668,1.9747,1.9734,1.9642,1.9696,1.937,1.8996,1.8909,1.8536,1.8053,1.7412,1.6955,1.6421,1.5359,1.496,1.5279,1.5845,1.631,1.6733,1.723,1.7495,1.7495,1.7073,1.6849,1.686,1.6428,1.6163,1.6048,1.6134,1.622,1.599,1.6105,1.6,1.5961,1.5904,1.5875,1.5885,1.5769,1.5681,1.5604,1.4757,1.3819,1.2816,1.281,1.2665,1.2565,1.2565,1.2657,1.2412,1.205,1.2104,1.2551,1.2289,1.2328,1.2787,1.2795,1.242,1.2228,1.2956,1.3136,1.2579,1.3174,1.3618,1.3411,1.3404,1.3622,1.4194,1.4137,1.3739,1.3039,1.3083,1.301,1.2973,1.2936,1.301,1.32,1.3266,1.3302,1.3375,1.3266,1.3193,1.3375,1.3266,1.3119,1.3237,1.2961,1.2873,1.2851,1.2489,1.1988,1.1888,1.1723,1.0457,0.9376,0.9069,0.8657,0.8,0.7505,0.7208,0.6735,0.6506,0.6257,0.5875,0.5434,0.5136,0.5011,0.4877,0.4688,0.4494,0.438,0.4245,2.0067,2.0067,2.0067,2.0042,2.0029,2.008,2.0042,1.9965,1.9673,1.9431,1.9202,1.8835,1.8532,1.8304,1.78,1.7466,1.7287,1.6578,1.5998,1.5749,1.6166,1.6694,1.7249,1.7817,1.8151,1.819,1.8054,1.7984,1.7918,1.7727,1.7683,1.7683,1.7562,1.7562,1.7479,1.7473,1.7251,1.6821,1.6803,1.6627,1.6288,1.6259,1.603,1.5614,1.5531,1.5187,1.442,1.3536,1.3,1.2948,1.2909,1.2909,1.2879,1.2726,1.2765,1.2917,1.2826,1.2726,1.2948,1.3039,1.2978,1.2923,1.3625,1.3966,1.3816,1.4463,1.4963,1.4969,1.5092,1.5313,1.5561,1.5604,1.5117,1.4366,1.384,1.3601,1.3601,1.3564,1.3535,1.3608,1.3739,1.3848,1.3876,1.3753,1.373,1.3795,1.3687,1.3687,1.37,1.3238,1.3125,1.3223,1.2885,1.2407,1.1992,1.1646,1.0866,0.9918,0.9518,0.9156,0.8509,0.8094,0.7764,0.7492,0.7252,0.6977,0.6605,0.6253,0.5959,0.5719,0.5582,0.5285,0.4901,0.4763,0.4736,2.1066,2.1066,2.1066,2.1004,2.0991,2.1028,2.086,2.0585,2.031,1.992,1.9448,1.8922,1.8552,1.8284,1.7804,1.7683,1.7746,1.7468,1.7046,1.662,1.6787,1.7279,1.7905,1.8666,1.9032,1.9056,1.8924,1.8845,1.8818,1.8632,1.8498,1.8459,1.8432,1.8352,1.8367,1.8271,1.8027,1.7727,1.766,1.7518,1.7262,1.719,1.6871,1.6386,1.6458,1.629,1.5708,1.4694,1.4115,1.4094,1.4073,1.4073,1.4064,1.3855,1.3765,1.3974,1.3825,1.3765,1.4004,1.4192,1.3944,1.393,1.4622,1.4873,1.4739,1.5277,1.5881,1.5843,1.5791,1.6103,1.654,1.6472,1.6237,1.6026,1.5259,1.4768,1.4732,1.4732,1.4732,1.484,1.4875,1.474,1.4431,1.4328,1.4089,1.3842,1.3691,1.3683,1.3607,1.3264,1.3302,1.3237,1.2972,1.2447,1.1803,1.1451,1.1101,1.0523,0.9946,0.9561,0.9029,0.8843,0.8592,0.83,0.8057,0.7818,0.7477,0.7117,0.6821,0.6583,0.634,0.6145,0.5873,0.5605,0.5469,2.2489,2.2498,2.2475,2.2323,2.2239,2.23,2.1976,2.1437,2.1278,2.0656,1.9766,1.9149,1.8652,1.8138,1.7807,1.7807,1.7968,1.8036,1.7968,1.7861,1.7847,1.8023,1.8627,1.9356,1.9762,1.9927,1.9595,1.9464,1.9527,1.9109,1.8632,1.8845,1.8859,1.8673,1.8833,1.8673,1.8673,1.8566,1.854,1.8498,1.839,1.8402,1.8143,1.7609,1.7462,1.7186,1.6682,1.6221,1.5999,1.5885,1.5633,1.5604,1.5672,1.5167,1.5049,1.5585,1.5137,1.5167,1.5643,1.5585,1.542,1.5,1.5641,1.5994,1.5082,1.5669,1.629,1.6133,1.6068,1.6441,1.7266,1.7257,1.7267,1.756,1.6724,1.6158,1.6228,1.614,1.5931,1.6009,1.6166,1.5895,1.4848,1.4755,1.4308,1.3733,1.3528,1.3618,1.3555,1.3584,1.3245,1.3152,1.3224,1.2806,1.2314,1.1456,1.1153,1.0925,1.0355,0.9858,0.9532,0.9379,0.9316,0.9073,0.8784,0.858,0.8362,0.8051,0.7706,0.7444,0.7251,0.7111,0.6843,0.6492,0.6145,2.2498,2.2498,2.2498,2.2475,2.2452,2.2498,2.2389,2.2059,2.1226,2.079,2.0177,1.9231,1.8789,1.853,1.8428,1.8414,1.8491,1.8511,1.8511,1.8519,1.8475,1.864,1.8894,1.9141,1.9545,1.9932,1.9841,1.996,2.0447,2.022,2.0195,2.0271,2.0093,2.0118,2.0181,1.994,1.9683,1.9359,1.9202,1.8939,1.8632,1.8578,1.826,1.7851,1.8058,1.794,1.7527,1.7356,1.6814,1.5961,1.5914,1.5914,1.5914,1.5672,1.5672,1.5798,1.574,1.5643,1.5827,1.5914,1.5788,1.5702,1.6177,1.6337,1.6034,1.6621,1.7214,1.7509,1.7748,1.8039,1.8765,1.8811,1.8877,1.8811,1.7586,1.66,1.6435,1.6118,1.5992,1.5965,1.5909,1.571,1.5429,1.5278,1.5127,1.4785,1.4636,1.4627,1.4369,1.4176,1.3936,1.3885,1.3807,1.3365,1.2743,1.1794,1.1259,1.1158,1.0704,1.0098,0.987,0.971,0.9732,0.9681,0.9387,0.9152,0.9178,0.9059,0.8692,0.8296,0.8143,0.8004,0.754,0.7165,0.6843,2.3238,2.3253,2.3253,2.3253,2.3275,2.3253,2.3105,2.2736,2.2093,2.1567,2.1173,2.0396,1.9793,1.954,1.9315,1.9142,1.9068,1.9039,1.9039,1.9006,1.885,1.8889,1.903,1.9047,1.9327,1.9678,1.9882,2.0175,2.0578,2.0803,2.0936,2.0886,2.0909,2.0871,2.0822,2.0747,2.0523,2.0232,2.0105,1.9888,1.9579,1.9553,1.9236,1.8889,1.8978,1.8863,1.828,1.812,1.7655,1.6814,1.641,1.6192,1.6163,1.6048,1.6048,1.6097,1.6058,1.599,1.6116,1.6173,1.6192,1.6222,1.6497,1.6609,1.665,1.6986,1.7416,1.7832,1.8249,1.8702,1.92,1.9477,1.937,1.8891,1.8107,1.7499,1.7398,1.7131,1.6905,1.6809,1.6718,1.6394,1.603,1.593,1.567,1.5321,1.5056,1.5065,1.5019,1.4851,1.4715,1.4662,1.4504,1.4114,1.3749,1.2907,1.2138,1.1938,1.143,1.0727,1.0293,1.0146,1.0017,1.0017,0.9862,0.9758,0.9725,0.9699,0.9517,0.9178,0.9054,0.8784,0.8343,0.8019,0.7646,2.4323,2.4323,2.4323,2.4338,2.4281,2.4307,2.3948,2.3502,2.3227,2.2878,2.2374,2.1974,2.1231,2.0756,2.0442,2.0013,1.965,1.9791,1.9683,1.9548,1.9277,1.9122,1.9193,1.9129,1.9268,1.9511,1.9925,2.0276,2.0603,2.0941,2.1148,2.1299,2.1253,2.1155,2.1191,2.1082,2.1021,2.0934,2.0822,2.0785,2.0698,2.0673,2.0408,2.0054,1.9978,1.9747,1.9207,1.8888,1.8566,1.7984,1.7234,1.6899,1.6814,1.6531,1.6542,1.6666,1.6684,1.6627,1.6648,1.6853,1.6842,1.692,1.7004,1.6976,1.7097,1.7247,1.7492,1.805,1.8132,1.8725,1.9193,1.9532,1.9422,1.9006,1.8865,1.8951,1.8867,1.8485,1.8128,1.8117,1.8024,1.7508,1.6919,1.6447,1.6208,1.5861,1.5674,1.5684,1.5693,1.5586,1.5459,1.5362,1.5177,1.4936,1.4572,1.4126,1.3446,1.29,1.2337,1.1674,1.0964,1.0694,1.0395,1.0267,1.0293,1.0198,1.0025,0.9999,0.9966,0.9836,0.955,0.9387,0.9216,0.8981,0.8659,2.4549,2.4528,2.4549,2.4549,2.4528,2.4528,2.4435,2.4249,2.3756,2.3456,2.3208,2.2685,2.2059,2.144,2.1676,2.1411,2.0406,2.0672,2.0866,2.0254,1.9879,1.9699,1.9564,1.9242,1.9182,1.9548,1.969,2.0302,2.107,2.1364,2.1815,2.2165,2.1955,2.1949,2.1864,2.1482,2.1169,2.1131,2.1082,2.1106,2.1131,2.1131,2.1019,2.0797,2.0761,2.0686,2.0459,1.9978,1.967,1.9333,1.8673,1.812,1.7984,1.7891,1.7836,1.7847,1.7902,1.7918,1.8011,1.7968,1.8066,1.7984,1.7984,1.8147,1.8159,1.8163,1.8499,1.896,1.9289,1.9477,1.9848,2.0128,1.9952,1.9703,1.9529,1.9459,1.9304,1.8408,1.7828,1.7675,1.7411,1.7026,1.6759,1.677,1.6571,1.64,1.6361,1.6361,1.6332,1.6275,1.6189,1.6104,1.5948,1.5753,1.5608,1.5069,1.4195,1.3633,1.3096,1.2788,1.207,1.1625,1.1475,1.1166,1.0829,1.0702,1.0651,1.0283,1.0249,1.0128,1.0051,0.9862,0.9725,0.9673,0.9517,2.4895,2.4875,2.4675,2.4609,2.4609,2.4609,2.4609,2.4547,2.4251,2.408,2.4002,2.3678,2.2992,2.2137,2.2667,2.2147,2.0885,2.0871,2.0869,2.0491,2.0243,2.0191,2.0139,1.977,1.9638,1.9666,1.9787,2.033,2.0885,2.1556,2.1924,2.2343,2.2437,2.2503,2.2503,2.2156,2.2063,2.2039,2.1921,2.1898,2.1898,2.1884,2.1684,2.141,2.1193,2.0997,2.0909,2.066,2.0485,2.0308,1.9901,1.9267,1.8685,1.854,1.8525,1.8498,1.8498,1.8498,1.8498,1.8578,1.8578,1.862,1.8685,1.8724,1.8762,1.8804,1.8938,1.9236,1.9502,1.9805,2.0069,2.0323,2.0256,1.9817,1.9765,1.9621,1.9265,1.8434,1.7787,1.7709,1.7414,1.7175,1.7026,1.7172,1.7088,1.6965,1.6937,1.6937,1.6892,1.6864,1.6892,1.6807,1.6694,1.6602,1.657,1.5949,1.4842,1.4302,1.3817,1.3658,1.3365,1.302,1.2779,1.2218,1.1617,1.1633,1.1509,1.1065,1.0727,1.0727,1.0659,1.0385,1.0154,0.9991,0.9862,2.5329,2.531,2.4977,2.4835,2.4835,2.4875,2.4879,2.4875,2.4945,2.5136,2.5064,2.5107,2.4706,2.3736,2.4024,2.297,2.1431,2.0577,2.0626,2.0577,2.0544,2.0512,2.0478,2.0376,2.017,1.9621,1.9957,2.0286,2.0735,2.1401,2.2194,2.2297,2.2761,2.3061,2.3054,2.2957,2.2844,2.2785,2.2762,2.2785,2.2807,2.2785,2.2512,2.2133,2.1746,2.1482,2.1482,2.1385,2.1288,2.1253,2.1133,2.0397,1.9541,1.8939,1.8818,1.8886,1.9018,1.9083,1.9135,1.9097,1.9123,1.9006,1.92,1.933,1.9356,1.9448,1.9499,1.957,1.9805,2.0025,1.9934,2.0303,2.0155,1.9711,1.9758,1.9668,1.9332,1.8777,1.8545,1.8205,1.8036,1.7849,1.7783,1.7826,1.77,1.7601,1.7601,1.7573,1.7545,1.7573,1.7689,1.7595,1.7473,1.6872,1.6732,1.638,1.5324,1.4798,1.4378,1.4267,1.4246,1.3907,1.3437,1.2909,1.2472,1.2414,1.2218,1.1823,1.1568,1.1501,1.1259,1.0956,1.0633,1.0308,1.0205,2.5961,2.5944,2.5872,2.5854,2.5852,2.5835,2.5781,2.5968,2.6372,2.6742,2.6789,2.7372,2.7022,2.655,2.65,2.5221,2.31,2.1836,2.0985,2.097,2.0938,2.0906,2.0888,2.0794,2.0645,2.0578,2.0526,2.0678,2.1252,2.2111,2.25,2.3156,2.35,2.367,2.3526,2.337,2.3231,2.3193,2.3231,2.326,2.3238,2.3106,2.2995,2.274,2.2512,2.2457,2.2457,2.2443,2.242,2.2388,2.1912,2.1541,2.1102,2.0597,2.0308,2.0156,2.0144,2.008,2.0144,2.0245,2.0321,2.0385,2.0372,2.0474,2.0511,2.0549,2.041,2.0498,2.0588,2.073,2.0792,2.0772,2.0821,2.0663,2.0588,2.0653,2.0461,2.0067,1.9503,1.9095,1.8869,1.8629,1.8548,1.8521,1.8521,1.8494,1.8536,1.8563,1.859,1.8643,1.8738,1.854,1.8259,1.7472,1.6747,1.6324,1.5669,1.522,1.4815,1.4569,1.4501,1.4396,1.4012,1.3471,1.3126,1.2957,1.274,1.2511,1.235,1.2236,1.19,1.1535,1.125,1.0973,1.0659,2.6419,2.6436,2.621,2.6087,2.6087,2.6087,2.6087,2.6137,2.6486,2.6851,2.7218,2.7585,2.7622,2.7457,2.7722,2.668,2.4871,2.3226,2.2508,2.2394,2.2086,2.1779,2.1584,2.1279,2.0957,2.0827,2.0726,2.085,2.1174,2.1744,2.2464,2.3013,2.3504,2.3748,2.3815,2.388,2.3643,2.3567,2.3703,2.39,2.3858,2.3629,2.3457,2.337,2.3187,2.3031,2.2942,2.2905,2.283,2.2731,2.2472,2.2296,2.2133,2.1874,2.1372,2.0995,2.0898,2.0873,2.0873,2.0835,2.0823,2.0848,2.0936,2.0949,2.0936,2.0923,2.1071,2.1046,2.0997,2.0997,2.0961,2.1046,2.0997,2.0997,2.1046,2.1046,2.0959,2.0772,2.0384,1.9927,1.9514,1.9253,1.9174,1.92,1.9305,1.9384,1.9449,1.9501,1.9553,1.9553,1.9541,1.9129,1.878,1.8121,1.7315,1.6777,1.6236,1.5714,1.5326,1.5074,1.4926,1.488,1.4547,1.4059,1.3789,1.3661,1.3552,1.3433,1.3208,1.2909,1.2579,1.2236,1.194,1.1642,1.1326,2.6891,2.6907,2.6539,2.6385,2.6402,2.6368,2.6402,2.6401,2.6621,2.7024,2.7475,2.788,2.8153,2.8117,2.8198,2.7741,2.6317,2.4829,2.4115,2.3734,2.3305,2.2946,2.2622,2.2183,2.1778,2.1553,2.1697,2.118,2.0963,2.1476,2.1972,2.2504,2.3127,2.3455,2.3526,2.3951,2.3951,2.4061,2.4311,2.4655,2.4549,2.4307,2.4048,2.4042,2.3687,2.3493,2.3457,2.3435,2.3406,2.329,2.3091,2.2897,2.2852,2.2694,2.2212,2.1541,2.1361,2.1313,2.1337,2.1361,2.1434,2.1458,2.1385,2.1361,2.141,2.1554,2.1506,2.1385,2.1434,2.1506,2.1602,2.1458,2.1458,2.1482,2.1482,2.1385,2.1375,2.1264,2.1191,2.0696,2.0169,1.9991,2.0016,2.0016,2.0169,2.0245,2.0321,2.027,2.0295,2.0194,2.008,1.961,1.9167,1.867,1.8079,1.7507,1.6931,1.6334,1.5952,1.5645,1.5545,1.5456,1.5073,1.4743,1.4663,1.4559,1.4466,1.4221,1.3871,1.3529,1.3232,1.2943,1.2652,1.2301,1.1965,2.7419,2.7419,2.734,2.734,2.7293,2.726,2.7308,2.7362,2.7866,2.8328,2.842,2.9695,3.0214,3.0196,2.9453,2.8374,2.7078,2.6048,2.5277,2.4907,2.4459,2.4228,2.3933,2.3784,2.3272,2.2947,2.3308,2.2411,2.1631,2.1782,2.1918,2.2251,2.2712,2.3006,2.3142,2.3745,2.3929,2.398,2.452,2.4812,2.4677,2.4565,2.4465,2.443,2.4333,2.4282,2.4235,2.4209,2.4224,2.4156,2.3846,2.3616,2.3465,2.3076,2.2867,2.2626,2.2489,2.2314,2.2258,2.2189,2.2203,2.2203,2.2305,2.2443,2.2365,2.2397,2.2466,2.2672,2.2581,2.2489,2.242,2.2558,2.264,2.2549,2.2374,2.2249,2.2123,2.1912,2.1803,2.166,2.1161,2.1091,2.108,2.1068,2.1068,2.1118,2.1129,2.1068,2.097,2.0809,2.0619,2.0203,1.9964,1.9507,1.8949,1.8399,1.78,1.714,1.6673,1.6312,1.6126,1.5996,1.581,1.5545,1.5467,1.5198,1.4903,1.464,1.4396,1.4093,1.3742,1.3529,1.3338,1.2991,1.2618,2.7855,2.7557,2.7529,2.7496,2.7496,2.7496,2.7496,2.7565,2.7826,2.8209,2.8733,2.9742,3.0716,3.1168,3.0612,2.9868,2.9073,2.8182,2.772,2.7156,2.6783,2.6498,2.635,2.5911,2.5271,2.4709,2.4795,2.4414,2.3244,2.2492,2.2459,2.2475,2.2686,2.2865,2.2959,2.3527,2.3511,2.3541,2.3756,2.4012,2.3968,2.3882,2.3922,2.421,2.4277,2.4461,2.4688,2.4706,2.465,2.4528,2.4307,2.4245,2.4162,2.3979,2.3852,2.3782,2.3702,2.3355,2.2844,2.2762,2.2777,2.2754,2.2799,2.2762,2.2822,2.2889,2.2934,2.2867,2.2889,2.2912,2.2934,2.2889,2.2889,2.2912,2.3046,2.2867,2.2686,2.264,2.248,2.2342,2.2203,2.2039,2.1827,2.1602,2.1506,2.1444,2.1396,2.1288,2.1264,2.1191,2.1037,2.0833,2.0658,2.0492,1.9911,1.9324,1.8828,1.821,1.7584,1.7188,1.6761,1.6523,1.6364,1.6126,1.5908,1.5622,1.531,1.4971,1.4697,1.4466,1.4233,1.4059,1.3871,1.361,1.3218,2.8316,2.7847,2.7774,2.776,2.7742,2.776,2.7757,2.7757,2.7719,2.799,2.8611,2.9506,3.0765,3.1777,3.1533,3.1062,3.0818,3.0365,3.0033,2.9668,2.9271,2.8708,2.8284,2.7806,2.7125,2.6164,2.6911,2.6319,2.5223,2.4422,2.3943,2.3156,2.3176,2.3027,2.3109,2.3704,2.4116,2.4082,2.4011,2.4118,2.4213,2.4035,2.42,2.4404,2.4527,2.4665,2.5051,2.5166,2.5095,2.4855,2.4835,2.4735,2.4528,2.4405,2.4343,2.4281,2.4234,2.3994,2.353,2.3334,2.3268,2.3246,2.326,2.3355,2.3312,2.3246,2.3268,2.3355,2.3355,2.3334,2.3268,2.3312,2.3377,2.3399,2.3377,2.3224,2.3098,2.3098,2.2957,2.2663,2.2595,2.2686,2.2457,2.2109,2.1935,2.1803,2.1684,2.1554,2.1506,2.1506,2.1233,2.1053,2.1113,2.0946,2.0449,1.9989,1.9578,1.9168,1.8541,1.8044,1.7589,1.7243,1.7047,1.6748,1.6416,1.6201,1.5996,1.5456,1.4994,1.4846,1.4709,1.4558,1.435,1.4116,1.381,2.8749,2.8422,2.844,2.8415,2.8402,2.844,2.8415,2.8324,2.8125,2.8154,2.8614,2.9559,3.098,3.2053,3.228,3.1876,3.1246,3.1077,3.0742,3.0238,2.9741,2.9828,2.9708,2.9502,2.9055,2.8503,2.8937,2.8438,2.7408,2.6985,2.5707,2.4212,2.4109,2.3564,2.3565,2.4245,2.4963,2.4963,2.4845,2.4943,2.5274,2.5402,2.5498,2.5648,2.5832,2.5965,2.598,2.5906,2.5723,2.5332,2.5329,2.5173,2.4895,2.4795,2.4735,2.4675,2.4634,2.4477,2.4256,2.4063,2.4114,2.4177,2.4099,2.3994,2.3973,2.4135,2.4177,2.4094,2.3994,2.4057,2.4099,2.4198,2.4036,2.3994,2.3888,2.3809,2.3702,2.3638,2.3428,2.3031,2.3031,2.3253,2.329,2.2987,2.2526,2.2374,2.218,2.2063,2.1841,2.1728,2.1348,2.1195,2.1366,2.1196,2.0764,2.0443,2.0343,1.983,1.9188,1.8781,1.8409,1.8075,1.7509,1.7393,1.7076,1.6866,1.6663,1.6343,1.5964,1.5456,1.5198,1.5062,1.4823,1.4524,1.4233,2.9171,2.9064,2.9045,2.8825,2.8504,2.8504,2.8504,2.8473,2.8402,2.8945,2.9814,3.0421,3.1455,3.2585,3.2959,3.2816,3.2494,3.2478,3.2054,3.1856,3.1653,3.1603,3.1569,3.1375,3.1262,3.0829,3.1076,3.0616,2.9299,2.9166,2.868,2.735,2.5732,2.4662,2.4596,2.4723,2.5147,2.5286,2.5055,2.4925,2.4943,2.4913,2.5029,2.5459,2.5475,2.574,2.597,2.6071,2.598,2.5905,2.5885,2.5696,2.5524,2.5451,2.5394,2.5317,2.5298,2.5259,2.5036,2.4715,2.4302,2.4281,2.4281,2.4364,2.4446,2.4441,2.4462,2.4462,2.4534,2.4539,2.4503,2.4467,2.4446,2.4467,2.4457,2.4384,2.4224,2.4084,2.4042,2.3687,2.3852,2.4084,2.4036,2.3952,2.3421,2.2979,2.2754,2.254,2.2296,2.2156,2.1862,2.1727,2.1913,2.2053,2.1675,2.1426,2.1203,2.0538,1.9864,1.9349,1.8907,1.8215,1.7747,1.7727,1.7727,1.7496,1.7338,1.7276,1.6845,1.6105,1.5776,1.5622,1.5321,1.4937,1.464,2.9388,2.9388,2.9388,2.916,2.8796,2.8766,2.8766,2.8754,2.8682,2.9492,3.0894,3.0953,3.1767,3.2926,3.3273,3.3258,3.3174,3.316,3.3087,3.2909,3.2796,3.2921,3.2905,3.2764,3.244,3.2526,3.2504,3.1916,3.1104,3.1053,3.0499,2.9417,2.794,2.678,2.5596,2.5212,2.5212,2.5498,2.5221,2.5372,2.5563,2.5658,2.568,2.627,2.6354,2.632,2.6657,2.6775,2.6873,2.6751,2.6646,2.6542,2.6453,2.6383,2.6346,2.631,2.6255,2.6237,2.5929,2.5355,2.4775,2.4883,2.4863,2.4819,2.4715,2.4726,2.4854,2.5208,2.5096,2.4951,2.5049,2.531,2.4952,2.4875,2.5041,2.4958,2.4616,2.441,2.4451,2.439,2.4513,2.4487,2.4446,2.4302,2.3937,2.3486,2.3224,2.2957,2.2686,2.2618,2.262,2.2548,2.2628,2.274,2.2786,2.24,2.1936,2.1276,2.055,1.9793,1.92,1.8573,1.815,1.8095,1.8095,1.8043,1.7848,1.7632,1.7152,1.6557,1.6265,1.5983,1.5611,1.5255,1.5074,2.9388,2.9388,2.9388,2.9368,2.9326,2.9357,2.9336,2.9254,2.9108,2.9686,3.0802,3.0939,3.1796,3.3031,3.3356,3.3447,3.3433,3.3404,3.335,3.3321,3.3258,3.3214,3.3166,3.3112,3.3117,3.3018,3.2988,3.2886,3.2663,3.2061,3.1709,3.1377,3.0198,2.8971,2.7272,2.5811,2.5897,2.6951,2.6552,2.7108,2.773,2.7873,2.7893,2.7911,2.7928,2.7775,2.7638,2.7895,2.7964,2.7809,2.7774,2.7617,2.7366,2.7294,2.7221,2.711,2.7054,2.6982,2.6838,2.6178,2.5858,2.5577,2.543,2.5411,2.5253,2.5259,2.5426,2.5773,2.587,2.5921,2.6186,2.6439,2.5873,2.5694,2.5918,2.5923,2.5631,2.5215,2.5342,2.5318,2.4914,2.465,2.465,2.4569,2.4292,2.3979,2.3681,2.3421,2.3187,2.3143,2.3253,2.329,2.3312,2.3297,2.3319,2.3098,2.2659,2.1975,2.1302,2.0575,1.9881,1.9312,1.8938,1.8638,1.847,1.8411,1.8169,1.7882,1.7434,1.7013,1.6544,1.6201,1.5854,1.5657,1.5591,2.9388,2.9388,2.9388,2.9388,2.9388,2.9388,2.9407,2.9368,2.9368,2.9799,3.0683,3.1206,3.2035,3.2981,3.3655,3.3863,3.3876,3.3889,3.3863,3.3638,3.3592,3.3592,3.356,3.3542,3.3579,3.3661,3.3593,3.3393,3.331,3.2824,3.2628,3.2355,3.1771,3.0707,2.9674,2.88,2.9083,2.9289,2.8998,2.8984,2.9353,2.9277,2.9161,2.9177,2.9177,2.9021,2.8727,2.9038,2.9059,2.8939,2.8905,2.8783,2.8642,2.8607,2.8625,2.8589,2.859,2.8353,2.8065,2.7521,2.6924,2.6373,2.5941,2.5956,2.5723,2.5723,2.5959,2.6288,2.659,2.6727,2.6904,2.7532,2.7411,2.7463,2.7584,2.7548,2.7322,2.6757,2.6531,2.6386,2.6073,2.5594,2.5424,2.5211,2.4906,2.4748,2.4527,2.4251,2.4,2.3915,2.3937,2.3952,2.3952,2.3873,2.3788,2.3595,2.3197,2.2509,2.2011,2.1521,2.0842,2.005,1.9512,1.9065,1.8917,1.8798,1.847,1.8169,1.7889,1.7496,1.7076,1.6833,1.6655,1.6509,1.6392,2.9589,2.957,2.957,2.9738,2.9944,2.9878,2.9954,3.0177,3.0251,3.0679,3.1467,3.2024,3.2681,3.3405,3.3918,3.4216,3.4216,3.4204,3.4161,3.3947,3.3934,3.3934,3.3934,3.3934,3.3967,3.408,3.3974,3.38,3.376,3.3524,3.3385,3.3193,3.2817,3.2355,3.1576,3.102,3.0222,3.0184,2.9961,3.015,3.0406,3.0435,3.0307,3.0307,3.0272,3.0167,2.9979,2.9966,3.0092,3.0075,3.0006,2.9955,2.9937,2.9937,2.992,2.992,2.9868,2.9506,2.8956,2.8732,2.8117,2.7481,2.6919,2.6665,2.6546,2.6411,2.6529,2.6831,2.7243,2.7596,2.7918,2.8555,2.8876,2.891,2.8707,2.8671,2.827,2.7699,2.7199,2.7105,2.662,2.6303,2.6086,2.5888,2.5596,2.5484,2.5387,2.5095,2.4791,2.4594,2.4451,2.4405,2.4343,2.424,2.4177,2.4114,2.3644,2.3016,2.2642,2.2314,2.1418,2.0587,2.005,1.9549,1.939,1.9186,1.8798,1.8489,1.8303,1.805,1.77,1.7537,1.7455,1.724,1.7002,2.997,2.9978,2.9951,3.0454,3.1028,3.0899,3.1171,3.1753,3.1764,3.2136,3.2876,3.2824,3.3229,3.393,3.416,3.4216,3.4216,3.4216,3.4185,3.4173,3.4124,3.4148,3.4161,3.4161,3.4161,3.4185,3.4148,3.4043,3.4068,3.3948,3.391,3.3928,3.3716,3.35,3.2902,3.2106,3.1261,3.1236,3.1174,3.1369,3.1579,3.1642,3.1548,3.1533,3.1515,3.1247,3.106,3.1022,3.119,3.1163,3.0993,3.0855,3.0802,3.0767,3.0767,3.0767,3.082,3.0283,2.9883,2.976,2.9676,2.923,2.8867,2.8407,2.7675,2.7114,2.708,2.7518,2.8071,2.8565,2.9042,2.9513,2.9978,2.9794,2.951,2.9242,2.8824,2.8338,2.7836,2.7367,2.6696,2.6345,2.6366,2.6228,2.6139,2.6192,2.6068,2.5781,2.5462,2.5001,2.4859,2.465,2.4605,2.4482,2.4441,2.4405,2.4184,2.3565,2.3432,2.3065,2.2099,2.1326,2.094,2.0516,1.9977,1.9627,1.9457,1.9152,1.8804,1.8559,1.8319,1.7943,1.7773,1.7584,1.7344,3.1701,3.1663,3.1682,3.1834,3.2083,3.2524,3.2581,3.2251,3.2232,3.2344,3.2379,3.2978,3.3407,3.3392,3.3918,3.4153,3.4228,3.4216,3.4216,3.4216,3.4216,3.4216,3.4216,3.4216,3.4216,3.4216,3.4197,3.4185,3.4173,3.4173,3.4173,3.4117,3.4086,3.4074,3.3801,3.3309,3.2938,3.2643,3.2436,3.2517,3.2583,3.2568,3.2524,3.2476,3.2476,3.2222,3.2181,3.2139,3.2259,3.2246,3.2215,3.2183,3.2183,3.2183,3.2166,3.2129,3.1792,3.1294,3.1119,3.105,3.1018,3.0953,3.0684,2.9678,2.8691,2.7873,2.7684,2.827,2.8853,2.9351,2.9969,3.0508,3.0851,3.0762,3.0575,3.0406,2.9999,2.9574,2.9013,2.8011,2.7316,2.6708,2.6708,2.6624,2.6556,2.6742,2.6725,2.6436,2.607,2.5633,2.5275,2.5075,2.4993,2.4954,2.471,2.4614,2.445,2.4209,2.4048,2.3781,2.2994,2.2325,2.1937,2.1415,2.0788,2.0489,2.0314,2.0025,1.9801,1.9266,1.897,1.849,1.8079,1.7916,1.78,3.2581,3.2588,3.2581,3.2779,3.3237,3.4004,3.4042,3.3653,3.3451,3.3318,3.3269,3.3731,3.3867,3.3923,3.4314,3.4446,3.4363,3.4381,3.4347,3.4216,3.4233,3.4216,3.4216,3.4221,3.4216,3.4228,3.4228,3.4197,3.4221,3.4228,3.4197,3.4166,3.4136,3.4111,3.4006,3.3874,3.386,3.3718,3.3629,3.3588,3.3433,3.3302,3.3243,3.3151,3.3184,3.3169,3.3136,3.309,3.2983,3.2954,3.2939,3.2795,3.2761,3.2761,3.2761,3.264,3.2408,3.2141,3.2052,3.2068,3.2132,3.2059,3.1893,3.1002,2.9967,2.9055,2.902,2.9252,2.9677,3.0153,3.0837,3.1463,3.1633,3.1765,3.1747,3.1747,3.1368,3.0971,3.0075,2.8973,2.8132,2.7362,2.7072,2.6974,2.6957,2.7056,2.7072,2.6957,2.659,2.6157,2.5817,2.5575,2.55,2.5443,2.5176,2.4977,2.491,2.48,2.4685,2.4323,2.3716,2.3141,2.2578,2.2075,2.1549,2.1356,2.1262,2.1157,2.0926,2.0377,2.0006,1.9789,1.9173,1.8357,1.8269,3.3135,3.3154,3.3103,3.3622,3.4372,3.5102,3.539,3.5453,3.4971,3.4889,3.4832,3.4879,3.4794,3.4651,3.4773,3.4722,3.4639,3.4615,3.4539,3.4269,3.4374,3.4386,3.4344,3.4281,3.4397,3.4316,3.4305,3.4409,3.4298,3.4333,3.4386,3.4239,3.4239,3.425,3.4244,3.4203,3.4166,3.4117,3.3992,3.3876,3.381,3.3788,3.3807,3.3766,3.3753,3.3753,3.368,3.3536,3.3335,3.3229,3.3124,3.2968,3.2968,3.2983,3.2968,3.295,3.2903,3.2901,3.2862,3.2844,3.287,3.266,3.2279,3.2032,3.1321,3.0015,2.976,3.0171,3.0641,3.0986,3.161,3.1966,3.2178,3.2197,3.2162,3.2162,3.1987,3.1411,3.0491,2.9419,2.8473,2.7786,2.7528,2.743,2.7105,2.725,2.7266,2.7234,2.7071,2.6641,2.6367,2.6087,2.6015,2.5926,2.5726,2.5559,2.5519,2.5406,2.525,2.4987,2.4477,2.3842,2.318,2.2844,2.2555,2.2371,2.2259,2.2233,2.2089,2.1535,2.1223,2.119,2.0489,1.9462,1.9037,3.4885,3.4885,3.4865,3.5019,3.5192,3.5404,3.55,3.55,3.541,3.5258,3.5141,3.5115,3.5054,3.4964,3.4964,3.4908,3.486,3.484,3.4801,3.4711,3.4691,3.4639,3.4693,3.466,3.4701,3.4742,3.4742,3.4691,3.467,3.4691,3.4722,3.4693,3.4601,3.4548,3.4548,3.4494,3.4439,3.4383,3.4262,3.408,3.3915,3.3842,3.3807,3.3807,3.3807,3.3807,3.378,3.3753,3.3666,3.362,3.3625,3.3564,3.3546,3.355,3.355,3.3546,3.3476,3.3465,3.3465,3.3433,3.3451,3.3508,3.3322,3.3327,3.2665,3.1128,3.0581,3.1139,3.152,3.1851,3.2198,3.2471,3.2635,3.2569,3.2485,3.2485,3.2485,3.1685,3.0836,2.9917,2.89,2.8382,2.8088,2.7744,2.7435,2.7315,2.7315,2.7297,2.7327,2.7085,2.6906,2.6674,2.6539,2.6436,2.6245,2.6105,2.6068,2.5943,2.5779,2.5503,2.5193,2.4588,2.3976,2.3829,2.3628,2.3354,2.3288,2.3549,2.329,2.2661,2.237,2.2273,2.1856,2.0971,2.0454,3.55,3.55,3.55,3.55,3.55,3.55,3.55,3.55,3.55,3.5439,3.5346,3.5331,3.5258,3.5157,3.5157,3.5081,3.5054,3.5037,3.4955,3.4927,3.4936,3.4889,3.4908,3.4936,3.4879,3.4908,3.4908,3.4889,3.4936,3.4898,3.4889,3.4898,3.486,3.4812,3.4803,3.4753,3.4704,3.4643,3.4513,3.4314,3.4062,3.3954,3.3834,3.3807,3.382,3.382,3.3807,3.3807,3.3807,3.3807,3.3766,3.3766,3.3734,3.3753,3.378,3.378,3.378,3.3807,3.382,3.3847,3.3847,3.386,3.3834,3.3638,3.3593,3.2292,3.2242,3.2664,3.2159,3.2375,3.2694,3.2981,3.286,3.2747,3.2699,3.2666,3.2453,3.1946,3.1409,3.097,2.992,2.8918,2.8581,2.8126,2.7833,2.7745,2.7689,2.77,2.7682,2.7539,2.7352,2.7211,2.7068,2.6973,2.6825,2.6708,2.6607,2.6453,2.6263,2.595,2.5601,2.5204,2.4813,2.4617,2.4422,2.4169,2.4206,2.4292,2.4153,2.3555,2.3412,2.335,2.2858,2.245,2.212,3.55,3.55,3.55,3.55,3.55,3.55,3.55,3.55,3.55,3.55,3.5467,3.5467,3.55,3.55,3.5493,3.538,3.5293,3.5261,3.5143,3.5063,3.5018,3.5081,3.5072,3.5028,3.5054,3.5054,3.5054,3.5046,3.5054,3.5054,3.5054,3.4982,3.4917,3.4879,3.4851,3.4813,3.4813,3.4784,3.4704,3.4632,3.4386,3.4148,3.4018,3.3915,3.3895,3.3895,3.3908,3.3908,3.3908,3.3934,3.3985,3.3979,3.3992,3.4005,3.3979,3.3992,3.4005,3.3974,3.3954,3.3992,3.3967,3.3947,3.3895,3.3863,3.3845,3.3787,3.3737,3.3463,3.2986,3.2875,3.3211,3.3321,3.3154,3.3029,3.2983,3.2905,3.2601,3.2317,3.2105,3.1842,3.0886,2.9779,2.9333,2.8834,2.8526,2.8415,2.8276,2.8276,2.8208,2.7965,2.7754,2.7651,2.7532,2.7446,2.728,2.7137,2.699,2.6908,2.6674,2.6367,2.6055,2.5766,2.5517,2.533,2.5115,2.4846,2.4618,2.4567,2.4399,2.4215,2.4025,2.385,2.3814,2.3513,2.3684,3.55,3.55,3.55,3.55,3.55,3.55,3.55,3.55,3.55,3.55,3.55,3.55,3.55,3.55,3.55,3.5446,3.5417,3.541,3.5432,3.5383,3.5297,3.5346,3.5346,3.5266,3.5373,3.5346,3.5304,3.5361,3.5266,3.5324,3.5361,3.5339,3.5297,3.5262,3.5254,3.5215,3.513,3.5062,3.4925,3.4851,3.4773,3.4569,3.442,3.4375,3.4375,3.4375,3.4375,3.4375,3.4375,3.4375,3.433,3.4318,3.4295,3.4265,3.4272,3.4249,3.4242,3.4253,3.423,3.4249,3.4237,3.426,3.4237,3.4189,3.4153,3.4099,3.4006,3.3858,3.3519,3.3479,3.3662,3.3652,3.3536,3.3536,3.3508,3.3364,3.3128,3.3015,3.2865,3.2451,3.1843,3.1234,3.0983,3.046,2.9932,2.9717,2.9326,2.9291,2.9192,2.8734,2.8272,2.8194,2.8163,2.7657,2.739,2.7343,2.7233,2.7185,2.7088,2.6808,2.659,2.6454,2.6229,2.5924,2.5687,2.5454,2.5237,2.4934,2.4675,2.4486,2.4318,2.4214,2.4281,2.4261,2.4156]}]]